Wetterdaten: Samstag, 21.10.2017
Datum Zeit Temp. A. Pool Temp. Feuchte A. Luftdruck Regen Wind Richtung Richtung Sonnenschein ET UV Solar Taupunkt Windchill Windben Empfang
21.10.2017 00:00 7,1 C 11,7 C 97 % 1017,5 hPa 0,0 l/m 0,0 km/h (0 Bft) S-SO 150 0 min 0,000 mm 0,0 UV-I 0 W/m 6,7 C 7,1 C 0,0 km/h (0 Bft) 100,00 %
21.10.2017 00:02 7,2 C 11,7 C 97 % 1017,5 hPa 0,0 l/m 0,0 km/h (0 Bft) S-SO 150 0 min 0,000 mm 0,0 UV-I 0 W/m 6,8 C 7,2 C 0,0 km/h (0 Bft) 100,00 %
21.10.2017 00:04 7,2 C 11,7 C 97 % 1017,5 hPa 0,0 l/m 0,0 km/h (0 Bft) S-SO 150 0 min 0,000 mm 0,0 UV-I 0 W/m 6,8 C 7,2 C 0,0 km/h (0 Bft) 97,87 %
21.10.2017 00:06 7,2 C 11,7 C 97 % 1017,6 hPa 0,0 l/m 0,0 km/h (0 Bft) W 272 0 min 0,000 mm 0,0 UV-I 0 W/m 6,8 C 7,2 C 0,0 km/h (0 Bft) 100,00 %
21.10.2017 00:08 7,1 C 11,7 C 97 % 1017,7 hPa 0,0 l/m 0,0 km/h (0 Bft) W 266 0 min 0,000 mm 0,0 UV-I 0 W/m 6,7 C 7,1 C 0,0 km/h (0 Bft) 100,00 %
21.10.2017 00:10 7,1 C 11,7 C 97 % 1017,8 hPa 0,0 l/m 0,0 km/h (0 Bft) SW 232 0 min 0,000 mm 0,0 UV-I 0 W/m 6,7 C 7,1 C 0,0 km/h (0 Bft) 100,00 %
21.10.2017 00:12 7,1 C 11,7 C 97 % 1017,8 hPa 0,0 l/m 4,7 km/h (1 Bft) SW 219 0 min 0,000 mm 0,0 UV-I 0 W/m 6,7 C 7,1 C 9,7 km/h (2 Bft) 100,00 %
21.10.2017 00:14 6,9 C 11,7 C 97 % 1017,8 hPa 0,0 l/m 4,4 km/h (1 Bft) SW 219 0 min 0,000 mm 0,0 UV-I 0 W/m 6,5 C 6,9 C 6,4 km/h (2 Bft) 100,00 %
21.10.2017 00:16 6,9 C 11,7 C 97 % 1017,9 hPa 0,0 l/m 6,0 km/h (2 Bft) W-SW 240 0 min 0,000 mm 0,0 UV-I 0 W/m 6,5 C 6,9 C 8,0 km/h (2 Bft) 98,21 %
21.10.2017 00:18 7,0 C 11,7 C 98 % 1017,9 hPa 0,0 l/m 6,8 km/h (2 Bft) W-SW 257 0 min 0,000 mm 0,0 UV-I 0 W/m 6,7 C 6,7 C 11,3 km/h (2 Bft) 100,00 %
21.10.2017 00:20 7,1 C 11,7 C 98 % 1018,0 hPa 0,0 l/m 6,2 km/h (2 Bft) W-SW 247 0 min 0,000 mm 0,0 UV-I 0 W/m 6,8 C 7,1 C 8,0 km/h (2 Bft) 97,87 %
21.10.2017 00:22 7,2 C 11,7 C 98 % 1017,8 hPa 0,0 l/m 2,7 km/h (1 Bft) W-SW 242 0 min 0,000 mm 0,0 UV-I 0 W/m 6,9 C 7,2 C 4,8 km/h (1 Bft) 100,00 %
21.10.2017 00:24 7,4 C 11,7 C 98 % 1017,8 hPa 0,0 l/m 3,6 km/h (1 Bft) SW 219 0 min 0,000 mm 0,0 UV-I 0 W/m 7,1 C 7,4 C 6,4 km/h (2 Bft) 100,00 %
21.10.2017 00:26 7,6 C 11,7 C 98 % 1017,7 hPa 0,0 l/m 4,3 km/h (1 Bft) S-SW 210 0 min 0,000 mm 0,0 UV-I 0 W/m 7,3 C 7,6 C 6,4 km/h (2 Bft) 100,00 %
21.10.2017 00:28 7,7 C 11,7 C 98 % 1017,6 hPa 0,0 l/m 1,5 km/h (1 Bft) S 191 0 min 0,000 mm 0,0 UV-I 0 W/m 7,4 C 7,7 C 3,2 km/h (1 Bft) 96,00 %
21.10.2017 00:30 7,7 C 11,7 C 98 % 1017,7 hPa 0,0 l/m 2,5 km/h (1 Bft) SW 214 0 min 0,000 mm 0,0 UV-I 0 W/m 7,4 C 7,7 C 4,8 km/h (1 Bft) 94,74 %
21.10.2017 00:32 7,7 C 11,7 C 98 % 1017,6 hPa 0,0 l/m 1,5 km/h (1 Bft) SW 214 0 min 0,000 mm 0,0 UV-I 0 W/m 7,4 C 7,7 C 4,8 km/h (1 Bft) 100,00 %
21.10.2017 00:34 7,7 C 11,7 C 98 % 1017,6 hPa 0,0 l/m 0,8 km/h (0 Bft) SW 214 0 min 0,000 mm 0,0 UV-I 0 W/m 7,4 C 7,7 C 1,6 km/h (1 Bft) 98,00 %
21.10.2017 00:36 7,7 C 11,7 C 98 % 1017,8 hPa 0,0 l/m 2,0 km/h (1 Bft) SW 214 0 min 0,000 mm 0,0 UV-I 0 W/m 7,4 C 7,7 C 3,2 km/h (1 Bft) 100,00 %
21.10.2017 00:38 7,7 C 11,7 C 98 % 1017,9 hPa 0,0 l/m 2,2 km/h (1 Bft) W-SW 257 0 min 0,000 mm 0,0 UV-I 0 W/m 7,4 C 7,7 C 3,2 km/h (1 Bft) 100,00 %
21.10.2017 00:40 7,7 C 11,7 C 98 % 1017,9 hPa 0,0 l/m 3,2 km/h (1 Bft) W 259 0 min 0,000 mm 0,0 UV-I 0 W/m 7,4 C 7,7 C 4,8 km/h (1 Bft) 100,00 %
21.10.2017 00:42 7,7 C 11,7 C 98 % 1017,9 hPa 0,0 l/m 2,6 km/h (1 Bft) W 259 0 min 0,000 mm 0,0 UV-I 0 W/m 7,4 C 7,7 C 4,8 km/h (1 Bft) 100,00 %
21.10.2017 00:44 7,7 C 11,7 C 98 % 1018,0 hPa 0,0 l/m 2,1 km/h (1 Bft) W 259 0 min 0,000 mm 0,0 UV-I 0 W/m 7,4 C 7,7 C 3,2 km/h (1 Bft) 100,00 %
21.10.2017 00:46 7,7 C 11,7 C 98 % 1017,9 hPa 0,0 l/m 0,9 km/h (0 Bft) W 259 0 min 0,000 mm 0,0 UV-I 0 W/m 7,4 C 7,7 C 3,2 km/h (1 Bft) 100,00 %
21.10.2017 00:48 7,7 C 11,7 C 98 % 1017,9 hPa 0,0 l/m 0,6 km/h (0 Bft) W 259 0 min 0,000 mm 0,0 UV-I 0 W/m 7,4 C 7,7 C 3,2 km/h (1 Bft) 100,00 %
21.10.2017 00:50 7,7 C 11,7 C 98 % 1017,9 hPa 0,0 l/m 0,5 km/h (0 Bft) W-SW 248 0 min 0,000 mm 0,0 UV-I 0 W/m 7,4 C 7,7 C 1,6 km/h (1 Bft) 100,00 %
21.10.2017 00:52 7,7 C 11,7 C 98 % 1017,9 hPa 0,0 l/m 0,5 km/h (0 Bft) S 188 0 min 0,000 mm 0,0 UV-I 0 W/m 7,4 C 7,7 C 1,6 km/h (1 Bft) 100,00 %
21.10.2017 00:54 7,7 C 11,7 C 98 % 1017,9 hPa 0,0 l/m 1,4 km/h (1 Bft) S 169 0 min 0,000 mm 0,0 UV-I 0 W/m 7,4 C 7,7 C 4,8 km/h (1 Bft) 100,00 %
21.10.2017 00:56 7,7 C 11,7 C 98 % 1017,9 hPa 0,0 l/m 3,7 km/h (1 Bft) S-SW 196 0 min 0,000 mm 0,0 UV-I 0 W/m 7,4 C 7,7 C 6,4 km/h (2 Bft) 97,78 %
21.10.2017 00:58 7,6 C 11,7 C 98 % 1017,9 hPa 0,0 l/m 3,4 km/h (1 Bft) SW 229 0 min 0,000 mm 0,0 UV-I 0 W/m 7,3 C 7,6 C 4,8 km/h (1 Bft) 100,00 %
21.10.2017 01:00 7,6 C 11,7 C 98 % 1018,0 hPa 0,0 l/m 5,6 km/h (1 Bft) SW 232 0 min 0,000 mm 0,0 UV-I 0 W/m 7,3 C 7,6 C 8,0 km/h (2 Bft) 97,37 %
21.10.2017 01:02 7,6 C 11,7 C 98 % 1017,9 hPa 0,0 l/m 3,6 km/h (1 Bft) W 269 0 min 0,000 mm 0,0 UV-I 0 W/m 7,3 C 7,6 C 4,8 km/h (1 Bft) 100,00 %
21.10.2017 01:04 7,6 C 11,7 C 98 % 1017,9 hPa 0,0 l/m 3,5 km/h (1 Bft) W-SW 250 0 min 0,000 mm 0,0 UV-I 0 W/m 7,3 C 7,6 C 6,4 km/h (2 Bft) 100,00 %
21.10.2017 01:06 7,6 C 11,7 C 98 % 1017,9 hPa 0,0 l/m 3,7 km/h (1 Bft) W 265 0 min 0,000 mm 0,0 UV-I 0 W/m 7,3 C 7,6 C 4,8 km/h (1 Bft) 97,87 %
21.10.2017 01:08 7,6 C 11,7 C 98 % 1017,9 hPa 0,0 l/m 2,8 km/h (1 Bft) W 265 0 min 0,000 mm 0,0 UV-I 0 W/m 7,3 C 7,6 C 4,8 km/h (1 Bft) 100,00 %
21.10.2017 01:10 7,6 C 11,7 C 98 % 1017,9 hPa 0,0 l/m 0,6 km/h (0 Bft) W 265 0 min 0,000 mm 0,0 UV-I 0 W/m 7,3 C 7,6 C 1,6 km/h (1 Bft) 97,37 %
21.10.2017 01:12 7,6 C 11,7 C 98 % 1017,9 hPa 0,0 l/m 0,1 km/h (0 Bft) W 265 0 min 0,000 mm 0,0 UV-I 0 W/m 7,3 C 7,6 C 1,6 km/h (1 Bft) 98,00 %
21.10.2017 01:14 7,6 C 11,7 C 98 % 1017,9 hPa 0,0 l/m 0,0 km/h (0 Bft) W 265 0 min 0,000 mm 0,0 UV-I 0 W/m 7,3 C 7,6 C 0,0 km/h (0 Bft) 96,00 %
21.10.2017 01:16 7,6 C 11,7 C 98 % 1017,9 hPa 0,0 l/m 0,3 km/h (0 Bft) W 265 0 min 0,000 mm 0,0 UV-I 0 W/m 7,3 C 7,6 C 1,6 km/h (1 Bft) 97,87 %
21.10.2017 01:18 7,6 C 11,7 C 98 % 1017,9 hPa 0,0 l/m 0,8 km/h (0 Bft) W 265 0 min 0,000 mm 0,0 UV-I 0 W/m 7,3 C 7,6 C 3,2 km/h (1 Bft) 97,56 %
21.10.2017 01:20 7,6 C 11,7 C 98 % 1017,9 hPa 0,0 l/m 0,5 km/h (0 Bft) S-SW 193 0 min 0,000 mm 0,0 UV-I 0 W/m 7,3 C 7,6 C 1,6 km/h (1 Bft) 98,11 %
21.10.2017 01:22 7,6 C 11,7 C 98 % 1017,9 hPa 0,0 l/m 1,0 km/h (0 Bft) S-SW 192 0 min 0,000 mm 0,0 UV-I 0 W/m 7,3 C 7,6 C 3,2 km/h (1 Bft) 97,50 %
21.10.2017 01:24 7,7 C 11,7 C 98 % 1017,9 hPa 0,0 l/m 1,1 km/h (1 Bft) S 170 0 min 0,000 mm 0,0 UV-I 0 W/m 7,4 C 7,7 C 3,2 km/h (1 Bft) 94,74 %
21.10.2017 01:26 7,7 C 11,7 C 98 % 1017,9 hPa 0,0 l/m 1,3 km/h (1 Bft) S 170 0 min 0,000 mm 0,0 UV-I 0 W/m 7,4 C 7,7 C 3,2 km/h (1 Bft) 98,21 %
21.10.2017 01:28 7,7 C 11,7 C 98 % 1017,9 hPa 0,0 l/m 0,0 km/h (0 Bft) S 170 0 min 0,000 mm 0,0 UV-I 0 W/m 7,4 C 7,7 C 0,0 km/h (0 Bft) 98,00 %
21.10.2017 01:30 7,7 C 11,7 C 98 % 1017,9 hPa 0,0 l/m 0,5 km/h (0 Bft) S 170 0 min 0,000 mm 0,0 UV-I 0 W/m 7,4 C 7,7 C 1,6 km/h (1 Bft) 98,00 %
21.10.2017 01:32 7,7 C 11,7 C 98 % 1017,9 hPa 0,0 l/m 2,1 km/h (1 Bft) S 170 0 min 0,000 mm 0,0 UV-I 0 W/m 7,4 C 7,7 C 3,2 km/h (1 Bft) 97,37 %
21.10.2017 01:34 7,7 C 11,7 C 98 % 1017,8 hPa 0,0 l/m 1,2 km/h (1 Bft) S 170 0 min 0,000 mm 0,0 UV-I 0 W/m 7,4 C 7,7 C 3,2 km/h (1 Bft) 95,74 %
21.10.2017 01:36 7,7 C 11,7 C 98 % 1017,8 hPa 0,0 l/m 0,5 km/h (0 Bft) S 170 0 min 0,000 mm 0,0 UV-I 0 W/m 7,4 C 7,7 C 3,2 km/h (1 Bft) 98,00 %
21.10.2017 01:38 7,7 C 11,7 C 98 % 1017,9 hPa 0,0 l/m 0,0 km/h (0 Bft) S 170 0 min 0,000 mm 0,0 UV-I 0 W/m 7,4 C 7,7 C 0,0 km/h (0 Bft) 95,45 %
21.10.2017 01:40 7,7 C 11,7 C 98 % 1017,9 hPa 0,0 l/m 0,0 km/h (0 Bft) S 170 0 min 0,000 mm 0,0 UV-I 0 W/m 7,4 C 7,7 C 0,0 km/h (0 Bft) 98,21 %
21.10.2017 01:42 7,6 C 11,7 C 98 % 1017,9 hPa 0,0 l/m 0,0 km/h (0 Bft) S 170 0 min 0,000 mm 0,0 UV-I 0 W/m 7,3 C 7,6 C 0,0 km/h (0 Bft) 97,87 %
21.10.2017 01:44 7,6 C 11,7 C 98 % 1017,9 hPa 0,0 l/m 0,0 km/h (0 Bft) S 170 0 min 0,000 mm 0,0 UV-I 0 W/m 7,3 C 7,6 C 0,0 km/h (0 Bft) 97,87 %
21.10.2017 01:46 7,6 C 11,7 C 98 % 1017,9 hPa 0,0 l/m 0,0 km/h (0 Bft) S 170 0 min 0,000 mm 0,0 UV-I 0 W/m 7,3 C 7,6 C 0,0 km/h (0 Bft) 97,87 %
21.10.2017 01:48 7,5 C 11,7 C 98 % 1017,9 hPa 0,0 l/m 0,0 km/h (0 Bft) S 170 0 min 0,000 mm 0,0 UV-I 0 W/m 7,2 C 7,5 C 0,0 km/h (0 Bft) 97,37 %
21.10.2017 01:50 7,4 C 11,7 C 98 % 1017,9 hPa 0,0 l/m 0,2 km/h (0 Bft) S 170 0 min 0,000 mm 0,0 UV-I 0 W/m 7,1 C 7,4 C 1,6 km/h (1 Bft) 97,87 %
21.10.2017 01:52 7,4 C 11,7 C 98 % 1017,9 hPa 0,0 l/m 0,4 km/h (0 Bft) S 170 0 min 0,000 mm 0,0 UV-I 0 W/m 7,1 C 7,4 C 1,6 km/h (1 Bft) 100,00 %
21.10.2017 01:54 7,3 C 11,7 C 98 % 1017,9 hPa 0,0 l/m 0,0 km/h (0 Bft) S 170 0 min 0,000 mm 0,0 UV-I 0 W/m 7,0 C 7,3 C 0,0 km/h (0 Bft) 100,00 %
21.10.2017 01:56 7,4 C 11,7 C 98 % 1017,9 hPa 0,0 l/m 0,0 km/h (0 Bft) S 170 0 min 0,000 mm 0,0 UV-I 0 W/m 7,1 C 7,4 C 0,0 km/h (0 Bft) 98,00 %
21.10.2017 01:58 7,4 C 11,7 C 98 % 1017,9 hPa 0,0 l/m 1,3 km/h (1 Bft) S 170 0 min 0,000 mm 0,0 UV-I 0 W/m 7,1 C 7,4 C 3,2 km/h (1 Bft) 97,73 %
21.10.2017 02:00 7,3 C 11,7 C 98 % 1017,8 hPa 0,0 l/m 2,0 km/h (1 Bft) S 170 0 min 0,000 mm 0,0 UV-I 0 W/m 7,0 C 7,3 C 3,2 km/h (1 Bft) 97,92 %
21.10.2017 02:02 7,3 C 11,7 C 98 % 1017,8 hPa 0,0 l/m 2,4 km/h (1 Bft) S 170 0 min 0,000 mm 0,0 UV-I 0 W/m 7,0 C 7,3 C 3,2 km/h (1 Bft) 97,87 %
21.10.2017 02:04 7,3 C 11,7 C 98 % 1017,8 hPa 0,0 l/m 1,9 km/h (1 Bft) S 170 0 min 0,000 mm 0,0 UV-I 0 W/m 7,0 C 7,3 C 3,2 km/h (1 Bft) 95,74 %
21.10.2017 02:06 7,2 C 11,7 C 98 % 1017,7 hPa 0,0 l/m 1,8 km/h (1 Bft) S 170 0 min 0,000 mm 0,0 UV-I 0 W/m 6,9 C 7,2 C 3,2 km/h (1 Bft) 98,00 %
21.10.2017 02:08 7,1 C 11,7 C 98 % 1017,8 hPa 0,0 l/m 1,1 km/h (1 Bft) S 170 0 min 0,000 mm 0,0 UV-I 0 W/m 6,8 C 7,1 C 1,6 km/h (1 Bft) 97,37 %
21.10.2017 02:10 7,2 C 11,7 C 98 % 1017,8 hPa 0,0 l/m 0,0 km/h (0 Bft) S 170 0 min 0,000 mm 0,0 UV-I 0 W/m 6,9 C 7,2 C 0,0 km/h (0 Bft) 94,92 %
21.10.2017 02:12 7,2 C 11,7 C 98 % 1017,7 hPa 0,0 l/m 0,0 km/h (0 Bft) S 170 0 min 0,000 mm 0,0 UV-I 0 W/m 6,9 C 7,2 C 1,6 km/h (1 Bft) 95,12 %
21.10.2017 02:14 7,2 C 11,7 C 98 % 1017,7 hPa 0,0 l/m 0,0 km/h (0 Bft) S 170 0 min 0,000 mm 0,0 UV-I 0 W/m 6,9 C 7,2 C 0,0 km/h (0 Bft) 97,87 %
21.10.2017 02:16 7,2 C 11,7 C 98 % 1017,7 hPa 0,0 l/m 0,0 km/h (0 Bft) S 170 0 min 0,000 mm 0,0 UV-I 0 W/m 6,9 C 7,2 C 0,0 km/h (0 Bft) 97,87 %
21.10.2017 02:18 7,1 C 11,7 C 98 % 1017,7 hPa 0,0 l/m 0,0 km/h (0 Bft) S 170 0 min 0,000 mm 0,0 UV-I 0 W/m 6,8 C 7,1 C 0,0 km/h (0 Bft) 98,00 %
21.10.2017 02:20 7,2 C 11,7 C 98 % 1017,7 hPa 0,0 l/m 0,7 km/h (0 Bft) S 170 0 min 0,000 mm 0,0 UV-I 0 W/m 6,9 C 7,2 C 3,2 km/h (1 Bft) 97,87 %
21.10.2017 02:22 7,1 C 11,7 C 98 % 1017,7 hPa 0,0 l/m 0,0 km/h (0 Bft) S 170 0 min 0,000 mm 0,0 UV-I 0 W/m 6,8 C 7,1 C 1,6 km/h (1 Bft) 97,87 %
21.10.2017 02:24 6,9 C 11,7 C 98 % 1017,7 hPa 0,0 l/m 0,0 km/h (0 Bft) S 170 0 min 0,000 mm 0,0 UV-I 0 W/m 6,6 C 6,9 C 0,0 km/h (0 Bft) 97,37 %
21.10.2017 02:26 6,9 C 11,7 C 98 % 1017,7 hPa 0,0 l/m 0,0 km/h (0 Bft) S 170 0 min 0,000 mm 0,0 UV-I 0 W/m 6,6 C 6,9 C 0,0 km/h (0 Bft) 94,64 %
21.10.2017 02:28 6,8 C 11,7 C 98 % 1017,7 hPa 0,0 l/m 0,0 km/h (0 Bft) S 170 0 min 0,000 mm 0,0 UV-I 0 W/m 6,5 C 6,8 C 0,0 km/h (0 Bft) 97,37 %
21.10.2017 02:30 6,8 C 11,7 C 98 % 1017,7 hPa 0,0 l/m 0,1 km/h (0 Bft) S 170 0 min 0,000 mm 0,0 UV-I 0 W/m 6,5 C 6,8 C 1,6 km/h (1 Bft) 97,87 %
21.10.2017 02:32 6,9 C 11,7 C 98 % 1017,7 hPa 0,0 l/m 0,1 km/h (0 Bft) S 170 0 min 0,000 mm 0,0 UV-I 0 W/m 6,6 C 6,9 C 1,6 km/h (1 Bft) 95,74 %
21.10.2017 02:34 6,9 C 11,7 C 98 % 1017,7 hPa 0,0 l/m 0,1 km/h (0 Bft) S 170 0 min 0,000 mm 0,0 UV-I 0 W/m 6,6 C 6,9 C 1,6 km/h (1 Bft) 98,11 %
21.10.2017 02:36 6,9 C 11,7 C 98 % 1017,7 hPa 0,0 l/m 0,0 km/h (0 Bft) S 170 0 min 0,000 mm 0,0 UV-I 0 W/m 6,6 C 6,9 C 0,0 km/h (0 Bft) 98,00 %
21.10.2017 02:38 7,0 C 11,7 C 98 % 1017,7 hPa 0,0 l/m 0,0 km/h (0 Bft) S 170 0 min 0,000 mm 0,0 UV-I 0 W/m 6,7 C 7,0 C 0,0 km/h (0 Bft) 97,44 %
21.10.2017 02:40 7,1 C 11,7 C 98 % 1017,7 hPa 0,0 l/m 0,0 km/h (0 Bft) S 170 0 min 0,000 mm 0,0 UV-I 0 W/m 6,8 C 7,1 C 0,0 km/h (0 Bft) 95,12 %
21.10.2017 02:42 7,2 C 11,7 C 98 % 1017,7 hPa 0,0 l/m 0,0 km/h (0 Bft) S 170 0 min 0,000 mm 0,0 UV-I 0 W/m 6,9 C 7,2 C 0,0 km/h (0 Bft) 98,11 %
21.10.2017 02:44 7,1 C 11,7 C 98 % 1017,7 hPa 0,0 l/m 0,0 km/h (0 Bft) S 170 0 min 0,000 mm 0,0 UV-I 0 W/m 6,8 C 7,1 C 0,0 km/h (0 Bft) 98,00 %
21.10.2017 02:46 7,1 C 11,7 C 98 % 1017,7 hPa 0,0 l/m 0,0 km/h (0 Bft) S 170 0 min 0,000 mm 0,0 UV-I 0 W/m 6,8 C 7,1 C 0,0 km/h (0 Bft) 97,87 %
21.10.2017 02:48 7,1 C 11,7 C 98 % 1017,7 hPa 0,0 l/m 0,1 km/h (0 Bft) S 170 0 min 0,000 mm 0,0 UV-I 0 W/m 6,8 C 7,1 C 1,6 km/h (1 Bft) 96,00 %
21.10.2017 02:50 7,1 C 11,7 C 98 % 1017,7 hPa 0,0 l/m 0,4 km/h (0 Bft) S 170 0 min 0,000 mm 0,0 UV-I 0 W/m 6,8 C 7,1 C 3,2 km/h (1 Bft) 100,00 %
21.10.2017 02:52 7,1 C 11,7 C 98 % 1017,6 hPa 0,0 l/m 1,9 km/h (1 Bft) S 170 0 min 0,000 mm 0,0 UV-I 0 W/m 6,8 C 7,1 C 3,2 km/h (1 Bft) 100,00 %
21.10.2017 02:54 7,1 C 11,7 C 98 % 1017,7 hPa 0,0 l/m 1,4 km/h (1 Bft) S 170 0 min 0,000 mm 0,0 UV-I 0 W/m 6,8 C 7,1 C 3,2 km/h (1 Bft) 100,00 %
21.10.2017 02:55 7,1 C 11,7 C 98 % 1017,7 hPa 0,0 l/m 2,4 km/h (1 Bft) S 170 0 min 0,000 mm 0,0 UV-I 0 W/m 6,8 C 7,1 C 3,2 km/h (1 Bft) 100,00 %
21.10.2017 03:02 7,2 C 11,7 C 98 % 1017,7 hPa 0,0 l/m 2,2 km/h (1 Bft) S-SW 205 0 min 0,000 mm 0,0 UV-I 0 W/m 6,9 C 7,2 C 4,8 km/h (1 Bft) 100,00 %
21.10.2017 03:04 7,2 C 11,7 C 98 % 1017,7 hPa 0,0 l/m 2,7 km/h (1 Bft) S-SW 205 0 min 0,000 mm 0,0 UV-I 0 W/m 6,9 C 7,2 C 4,8 km/h (1 Bft) 97,37 %
21.10.2017 03:06 7,3 C 11,7 C 98 % 1017,7 hPa 0,0 l/m 2,3 km/h (1 Bft) S-SW 205 0 min 0,000 mm 0,0 UV-I 0 W/m 7,0 C 7,3 C 4,8 km/h (1 Bft) 100,00 %
21.10.2017 03:08 7,3 C 11,7 C 98 % 1017,7 hPa 0,0 l/m 2,3 km/h (1 Bft) S-SW 205 0 min 0,000 mm 0,0 UV-I 0 W/m 7,0 C 7,3 C 3,2 km/h (1 Bft) 97,56 %
21.10.2017 03:10 7,3 C 11,7 C 98 % 1017,7 hPa 0,0 l/m 1,2 km/h (1 Bft) S-SW 205 0 min 0,000 mm 0,0 UV-I 0 W/m 7,0 C 7,3 C 1,6 km/h (1 Bft) 98,00 %
21.10.2017 03:12 7,3 C 11,7 C 98 % 1017,7 hPa 0,0 l/m 0,0 km/h (0 Bft) S-SW 205 0 min 0,000 mm 0,0 UV-I 0 W/m 7,0 C 7,3 C 0,0 km/h (0 Bft) 98,00 %
21.10.2017 03:14 7,2 C 11,7 C 98 % 1017,7 hPa 0,0 l/m 0,0 km/h (0 Bft) S-SW 205 0 min 0,000 mm 0,0 UV-I 0 W/m 6,9 C 7,2 C 0,0 km/h (0 Bft) 100,00 %
21.10.2017 03:16 7,2 C 11,7 C 98 % 1017,7 hPa 0,0 l/m 0,1 km/h (0 Bft) S-SW 205 0 min 0,000 mm 0,0 UV-I 0 W/m 6,9 C 7,2 C 1,6 km/h (1 Bft) 97,87 %
21.10.2017 03:18 7,1 C 11,7 C 98 % 1017,7 hPa 0,0 l/m 1,3 km/h (1 Bft) S-SW 205 0 min 0,000 mm 0,0 UV-I 0 W/m 6,8 C 7,1 C 3,2 km/h (1 Bft) 97,56 %
21.10.2017 03:21 7,1 C 11,7 C 98 % 1017,7 hPa 0,0 l/m 2,0 km/h (1 Bft) S-SW 205 0 min 0,000 mm 0,0 UV-I 0 W/m 6,8 C 7,1 C 3,2 km/h (1 Bft) 98,65 %
21.10.2017 03:22 7,1 C 11,7 C 98 % 1017,7 hPa 0,0 l/m 2,3 km/h (1 Bft) S-SW 205 0 min 0,000 mm 0,0 UV-I 0 W/m 6,8 C 7,1 C 3,2 km/h (1 Bft) 95,65 %
21.10.2017 03:24 7,2 C 11,7 C 98 % 1017,7 hPa 0,0 l/m 1,8 km/h (1 Bft) S-SW 205 0 min 0,000 mm 0,0 UV-I 0 W/m 6,9 C 7,2 C 3,2 km/h (1 Bft) 97,73 %
21.10.2017 03:26 7,4 C 11,7 C 98 % 1017,7 hPa 0,0 l/m 0,3 km/h (0 Bft) S-SW 205 0 min 0,000 mm 0,0 UV-I 0 W/m 7,1 C 7,4 C 1,6 km/h (1 Bft) 98,00 %
21.10.2017 03:28 7,6 C 11,7 C 98 % 1017,7 hPa 0,0 l/m 0,2 km/h (0 Bft) S-SW 205 0 min 0,000 mm 0,0 UV-I 0 W/m 7,3 C 7,6 C 1,6 km/h (1 Bft) 97,22 %
21.10.2017 03:30 7,7 C 11,7 C 98 % 1017,7 hPa 0,0 l/m 0,0 km/h (0 Bft) S-SW 205 0 min 0,000 mm 0,0 UV-I 0 W/m 7,4 C 7,7 C 0,0 km/h (0 Bft) 98,11 %
21.10.2017 03:32 7,7 C 11,7 C 98 % 1017,7 hPa 0,0 l/m 0,0 km/h (0 Bft) S-SW 205 0 min 0,000 mm 0,0 UV-I 0 W/m 7,4 C 7,7 C 0,0 km/h (0 Bft) 97,87 %
21.10.2017 03:34 7,6 C 11,7 C 98 % 1017,7 hPa 0,0 l/m 0,0 km/h (0 Bft) S-SW 205 0 min 0,000 mm 0,0 UV-I 0 W/m 7,3 C 7,6 C 0,0 km/h (0 Bft) 96,00 %
21.10.2017 03:36 7,3 C 11,7 C 98 % 1017,7 hPa 0,0 l/m 0,0 km/h (0 Bft) S-SW 205 0 min 0,000 mm 0,0 UV-I 0 W/m 7,0 C 7,3 C 0,0 km/h (0 Bft) 96,00 %
21.10.2017 03:38 7,2 C 11,7 C 98 % 1017,7 hPa 0,0 l/m 0,8 km/h (0 Bft) S-SW 205 0 min 0,000 mm 0,0 UV-I 0 W/m 6,9 C 7,2 C 1,6 km/h (1 Bft) 95,12 %
21.10.2017 03:40 7,1 C 11,7 C 98 % 1017,7 hPa 0,0 l/m 1,9 km/h (1 Bft) S-SW 205 0 min 0,000 mm 0,0 UV-I 0 W/m 6,8 C 7,1 C 3,2 km/h (1 Bft) 98,00 %
21.10.2017 03:42 7,2 C 11,7 C 98 % 1017,7 hPa 0,0 l/m 1,8 km/h (1 Bft) S-SW 205 0 min 0,000 mm 0,0 UV-I 0 W/m 6,9 C 7,2 C 3,2 km/h (1 Bft) 98,00 %
21.10.2017 03:44 7,2 C 11,7 C 98 % 1017,7 hPa 0,0 l/m 1,4 km/h (1 Bft) S-SW 205 0 min 0,000 mm 0,0 UV-I 0 W/m 6,9 C 7,2 C 1,6 km/h (1 Bft) 97,56 %
21.10.2017 03:46 7,3 C 11,7 C 98 % 1017,7 hPa 0,0 l/m 2,1 km/h (1 Bft) SO 141 0 min 0,000 mm 0,0 UV-I 0 W/m 7,0 C 7,3 C 3,2 km/h (1 Bft) 97,87 %
21.10.2017 03:48 7,3 C 11,7 C 98 % 1017,7 hPa 0,0 l/m 2,6 km/h (1 Bft) O-SO 119 0 min 0,000 mm 0,0 UV-I 0 W/m 7,0 C 7,3 C 3,2 km/h (1 Bft) 98,00 %
21.10.2017 03:50 7,3 C 11,7 C 98 % 1017,7 hPa 0,0 l/m 3,2 km/h (1 Bft) O-SO 119 0 min 0,000 mm 0,0 UV-I 0 W/m 7,0 C 7,3 C 4,8 km/h (1 Bft) 97,37 %
21.10.2017 03:52 7,3 C 11,7 C 98 % 1017,7 hPa 0,0 l/m 1,6 km/h (1 Bft) O-SO 119 0 min 0,000 mm 0,0 UV-I 0 W/m 7,0 C 7,3 C 4,8 km/h (1 Bft) 96,23 %
21.10.2017 03:54 7,3 C 11,7 C 98 % 1017,8 hPa 0,0 l/m 1,0 km/h (0 Bft) O-SO 119 0 min 0,000 mm 0,0 UV-I 0 W/m 7,0 C 7,3 C 3,2 km/h (1 Bft) 100,00 %
21.10.2017 03:56 7,3 C 11,7 C 98 % 1017,7 hPa 0,0 l/m 1,1 km/h (1 Bft) O-SO 119 0 min 0,000 mm 0,0 UV-I 0 W/m 7,0 C 7,3 C 1,6 km/h (1 Bft) 100,00 %
21.10.2017 03:58 7,3 C 11,7 C 98 % 1017,7 hPa 0,0 l/m 1,0 km/h (0 Bft) O-SO 119 0 min 0,000 mm 0,0 UV-I 0 W/m 7,0 C 7,3 C 3,2 km/h (1 Bft) 100,00 %
21.10.2017 04:00 7,3 C 11,7 C 98 % 1017,7 hPa 0,0 l/m 0,8 km/h (0 Bft) O-SO 119 0 min 0,000 mm 0,0 UV-I 0 W/m 7,0 C 7,3 C 3,2 km/h (1 Bft) 100,00 %
21.10.2017 04:02 7,4 C 11,7 C 98 % 1017,7 hPa 0,0 l/m 0,5 km/h (0 Bft) O-SO 119 0 min 0,000 mm 0,0 UV-I 0 W/m 7,1 C 7,4 C 3,2 km/h (1 Bft) 100,00 %
21.10.2017 04:04 7,3 C 11,7 C 98 % 1017,7 hPa 0,0 l/m 0,0 km/h (0 Bft) O-SO 119 0 min 0,000 mm 0,0 UV-I 0 W/m 7,0 C 7,3 C 0,0 km/h (0 Bft) 100,00 %
21.10.2017 04:06 7,3 C 11,7 C 98 % 1017,7 hPa 0,0 l/m 0,1 km/h (0 Bft) O-SO 119 0 min 0,000 mm 0,0 UV-I 0 W/m 7,0 C 7,3 C 1,6 km/h (1 Bft) 100,00 %
21.10.2017 04:08 7,3 C 11,7 C 98 % 1017,6 hPa 0,0 l/m 0,0 km/h (0 Bft) O-SO 119 0 min 0,000 mm 0,0 UV-I 0 W/m 7,0 C 7,3 C 0,0 km/h (0 Bft) 100,00 %
21.10.2017 04:10 7,3 C 11,7 C 98 % 1017,7 hPa 0,0 l/m 0,0 km/h (0 Bft) O-SO 119 0 min 0,000 mm 0,0 UV-I 0 W/m 7,0 C 7,3 C 0,0 km/h (0 Bft) 100,00 %
21.10.2017 04:12 7,2 C 11,7 C 98 % 1017,7 hPa 0,0 l/m 0,0 km/h (0 Bft) O-SO 119 0 min 0,000 mm 0,0 UV-I 0 W/m 6,9 C 7,2 C 0,0 km/h (0 Bft) 98,28 %
21.10.2017 04:14 7,3 C 11,7 C 98 % 1017,8 hPa 0,0 l/m 0,0 km/h (0 Bft) O-SO 119 0 min 0,000 mm 0,0 UV-I 0 W/m 7,0 C 7,3 C 0,0 km/h (0 Bft) 100,00 %
21.10.2017 04:16 7,2 C 11,7 C 98 % 1017,7 hPa 0,0 l/m 0,0 km/h (0 Bft) O-SO 119 0 min 0,000 mm 0,0 UV-I 0 W/m 6,9 C 7,2 C 0,0 km/h (0 Bft) 100,00 %
21.10.2017 04:18 7,1 C 11,7 C 98 % 1017,7 hPa 0,0 l/m 1,5 km/h (1 Bft) O-SO 119 0 min 0,000 mm 0,0 UV-I 0 W/m 6,8 C 7,1 C 3,2 km/h (1 Bft) 100,00 %
21.10.2017 04:20 7,1 C 11,7 C 98 % 1017,7 hPa 0,0 l/m 2,3 km/h (1 Bft) O-SO 119 0 min 0,000 mm 0,0 UV-I 0 W/m 6,8 C 7,1 C 3,2 km/h (1 Bft) 100,00 %
21.10.2017 04:22 7,1 C 11,7 C 98 % 1017,7 hPa 0,0 l/m 1,9 km/h (1 Bft) O-SO 119 0 min 0,000 mm 0,0 UV-I 0 W/m 6,8 C 7,1 C 3,2 km/h (1 Bft) 100,00 %
21.10.2017 04:24 7,1 C 11,7 C 98 % 1017,7 hPa 0,0 l/m 0,7 km/h (0 Bft) O-SO 119 0 min 0,000 mm 0,0 UV-I 0 W/m 6,8 C 7,1 C 3,2 km/h (1 Bft) 100,00 %
21.10.2017 04:26 7,1 C 11,7 C 98 % 1017,6 hPa 0,0 l/m 0,9 km/h (0 Bft) O-SO 119 0 min 0,000 mm 0,0 UV-I 0 W/m 6,8 C 7,1 C 3,2 km/h (1 Bft) 100,00 %
21.10.2017 04:28 7,1 C 11,7 C 98 % 1017,6 hPa 0,0 l/m 2,7 km/h (1 Bft) O-SO 119 0 min 0,000 mm 0,0 UV-I 0 W/m 6,8 C 7,1 C 3,2 km/h (1 Bft) 98,00 %
21.10.2017 04:30 7,2 C 11,7 C 98 % 1017,6 hPa 0,0 l/m 1,4 km/h (1 Bft) O-SO 119 0 min 0,000 mm 0,0 UV-I 0 W/m 6,9 C 7,2 C 3,2 km/h (1 Bft) 100,00 %
21.10.2017 04:32 7,2 C 11,7 C 98 % 1017,6 hPa 0,0 l/m 2,2 km/h (1 Bft) O-SO 120 0 min 0,000 mm 0,0 UV-I 0 W/m 6,9 C 7,2 C 3,2 km/h (1 Bft) 100,00 %
21.10.2017 04:34 7,1 C 11,7 C 98 % 1017,5 hPa 0,0 l/m 2,5 km/h (1 Bft) SO 134 0 min 0,000 mm 0,0 UV-I 0 W/m 6,8 C 7,1 C 4,8 km/h (1 Bft) 100,00 %
21.10.2017 04:36 7,2 C 11,7 C 98 % 1017,4 hPa 0,0 l/m 3,7 km/h (1 Bft) SO 139 0 min 0,000 mm 0,0 UV-I 0 W/m 6,9 C 7,2 C 6,4 km/h (2 Bft) 100,00 %
21.10.2017 04:38 7,2 C 11,7 C 98 % 1017,4 hPa 0,0 l/m 3,0 km/h (1 Bft) SO 139 0 min 0,000 mm 0,0 UV-I 0 W/m 6,9 C 7,2 C 4,8 km/h (1 Bft) 100,00 %
21.10.2017 04:40 7,2 C 11,7 C 98 % 1017,4 hPa 0,0 l/m 3,1 km/h (1 Bft) SO 139 0 min 0,000 mm 0,0 UV-I 0 W/m 6,9 C 7,2 C 4,8 km/h (1 Bft) 100,00 %
21.10.2017 04:42 7,2 C 11,7 C 98 % 1017,4 hPa 0,0 l/m 4,3 km/h (1 Bft) SO 136 0 min 0,000 mm 0,0 UV-I 0 W/m 6,9 C 7,2 C 8,0 km/h (2 Bft) 100,00 %
21.10.2017 04:44 7,3 C 11,7 C 98 % 1017,4 hPa 0,0 l/m 4,9 km/h (1 Bft) SO 136 0 min 0,000 mm 0,0 UV-I 0 W/m 7,0 C 7,3 C 6,4 km/h (2 Bft) 100,00 %
21.10.2017 04:46 7,3 C 11,7 C 98 % 1017,4 hPa 0,0 l/m 2,8 km/h (1 Bft) SO 136 0 min 0,000 mm 0,0 UV-I 0 W/m 7,0 C 7,3 C 6,4 km/h (2 Bft) 98,00 %
21.10.2017 04:48 7,4 C 11,7 C 98 % 1017,4 hPa 0,0 l/m 3,0 km/h (1 Bft) SO 136 0 min 0,000 mm 0,0 UV-I 0 W/m 7,1 C 7,4 C 4,8 km/h (1 Bft) 100,00 %
21.10.2017 04:50 7,4 C 11,7 C 98 % 1017,4 hPa 0,0 l/m 1,7 km/h (1 Bft) SO 136 0 min 0,000 mm 0,0 UV-I 0 W/m 7,1 C 7,4 C 3,2 km/h (1 Bft) 98,00 %
21.10.2017 04:52 7,6 C 11,7 C 98 % 1017,4 hPa 0,0 l/m 2,1 km/h (1 Bft) SO 136 0 min 0,000 mm 0,0 UV-I 0 W/m 7,3 C 7,6 C 3,2 km/h (1 Bft) 100,00 %
21.10.2017 04:54 7,6 C 11,7 C 98 % 1017,4 hPa 0,0 l/m 2,0 km/h (1 Bft) SO 136 0 min 0,000 mm 0,0 UV-I 0 W/m 7,3 C 7,6 C 3,2 km/h (1 Bft) 100,00 %
21.10.2017 04:56 7,7 C 11,7 C 98 % 1017,4 hPa 0,0 l/m 0,9 km/h (0 Bft) SO 136 0 min 0,000 mm 0,0 UV-I 0 W/m 7,4 C 7,7 C 3,2 km/h (1 Bft) 100,00 %
21.10.2017 04:58 7,7 C 11,7 C 98 % 1017,4 hPa 0,0 l/m 0,3 km/h (0 Bft) SO 136 0 min 0,000 mm 0,0 UV-I 0 W/m 7,4 C 7,7 C 3,2 km/h (1 Bft) 100,00 %
21.10.2017 05:00 7,8 C 11,7 C 98 % 1017,5 hPa 0,0 l/m 1,1 km/h (1 Bft) SO 136 0 min 0,000 mm 0,0 UV-I 0 W/m 7,5 C 7,8 C 3,2 km/h (1 Bft) 98,00 %
21.10.2017 05:02 7,8 C 11,7 C 98 % 1017,5 hPa 0,0 l/m 1,8 km/h (1 Bft) SO 136 0 min 0,000 mm 0,0 UV-I 0 W/m 7,5 C 7,8 C 3,2 km/h (1 Bft) 100,00 %
21.10.2017 05:04 7,9 C 11,7 C 98 % 1017,5 hPa 0,0 l/m 0,3 km/h (0 Bft) SO 136 0 min 0,000 mm 0,0 UV-I 0 W/m 7,6 C 7,9 C 1,6 km/h (1 Bft) 100,00 %
21.10.2017 05:06 8,1 C 11,7 C 98 % 1017,5 hPa 0,0 l/m 0,0 km/h (0 Bft) SO 136 0 min 0,000 mm 0,0 UV-I 0 W/m 7,8 C 8,1 C 0,0 km/h (0 Bft) 100,00 %
21.10.2017 05:08 8,0 C 11,7 C 98 % 1017,5 hPa 0,0 l/m 0,2 km/h (0 Bft) SO 136 0 min 0,000 mm 0,0 UV-I 0 W/m 7,7 C 8,0 C 3,2 km/h (1 Bft) 97,87 %
21.10.2017 05:10 7,8 C 11,7 C 98 % 1017,6 hPa 0,0 l/m 1,1 km/h (1 Bft) SO 136 0 min 0,000 mm 0,0 UV-I 0 W/m 7,5 C 7,8 C 3,2 km/h (1 Bft) 98,11 %
21.10.2017 05:12 7,7 C 11,7 C 98 % 1017,6 hPa 0,0 l/m 0,1 km/h (0 Bft) SO 136 0 min 0,000 mm 0,0 UV-I 0 W/m 7,4 C 7,7 C 1,6 km/h (1 Bft) 97,37 %
21.10.2017 05:14 7,7 C 11,7 C 98 % 1017,6 hPa 0,0 l/m 0,0 km/h (0 Bft) SO 136 0 min 0,000 mm 0,0 UV-I 0 W/m 7,4 C 7,7 C 0,0 km/h (0 Bft) 98,00 %
21.10.2017 05:16 7,6 C 11,7 C 98 % 1017,7 hPa 0,0 l/m 0,6 km/h (0 Bft) SO 136 0 min 0,000 mm 0,0 UV-I 0 W/m 7,3 C 7,6 C 1,6 km/h (1 Bft) 95,74 %
21.10.2017 05:18 7,6 C 11,7 C 98 % 1017,7 hPa 0,0 l/m 1,4 km/h (1 Bft) SO 136 0 min 0,000 mm 0,0 UV-I 0 W/m 7,3 C 7,6 C 3,2 km/h (1 Bft) 96,00 %
21.10.2017 05:20 7,6 C 11,7 C 98 % 1017,7 hPa 0,0 l/m 1,1 km/h (1 Bft) SO 136 0 min 0,000 mm 0,0 UV-I 0 W/m 7,3 C 7,6 C 3,2 km/h (1 Bft) 98,00 %
21.10.2017 05:22 7,6 C 11,7 C 98 % 1017,7 hPa 0,0 l/m 0,3 km/h (0 Bft) SO 136 0 min 0,000 mm 0,0 UV-I 0 W/m 7,3 C 7,6 C 1,6 km/h (1 Bft) 97,37 %
21.10.2017 05:24 7,5 C 11,7 C 98 % 1017,7 hPa 0,0 l/m 0,0 km/h (0 Bft) SO 136 0 min 0,000 mm 0,0 UV-I 0 W/m 7,2 C 7,5 C 0,0 km/h (0 Bft) 96,36 %
21.10.2017 05:26 7,5 C 11,7 C 98 % 1017,6 hPa 0,0 l/m 0,0 km/h (0 Bft) SO 136 0 min 0,000 mm 0,0 UV-I 0 W/m 7,2 C 7,5 C 0,0 km/h (0 Bft) 95,74 %
21.10.2017 05:28 7,6 C 11,7 C 98 % 1017,6 hPa 0,0 l/m 0,0 km/h (0 Bft) SO 136 0 min 0,000 mm 0,0 UV-I 0 W/m 7,3 C 7,6 C 0,0 km/h (0 Bft) 93,62 %
21.10.2017 05:30 7,6 C 11,7 C 98 % 1017,6 hPa 0,0 l/m 0,0 km/h (0 Bft) SO 136 0 min 0,000 mm 0,0 UV-I 0 W/m 7,3 C 7,6 C 0,0 km/h (0 Bft) 93,62 %
21.10.2017 05:32 7,6 C 11,7 C 98 % 1017,5 hPa 0,0 l/m 0,0 km/h (0 Bft) SO 136 0 min 0,000 mm 0,0 UV-I 0 W/m 7,3 C 7,6 C 1,6 km/h (1 Bft) 95,24 %
21.10.2017 05:34 7,6 C 11,7 C 98 % 1017,6 hPa 0,0 l/m 0,4 km/h (0 Bft) SO 136 0 min 0,000 mm 0,0 UV-I 0 W/m 7,3 C 7,6 C 3,2 km/h (1 Bft) 98,00 %
21.10.2017 05:36 7,6 C 11,7 C 98 % 1017,6 hPa 0,0 l/m 0,7 km/h (0 Bft) SO 136 0 min 0,000 mm 0,0 UV-I 0 W/m 7,3 C 7,6 C 3,2 km/h (1 Bft) 92,00 %
21.10.2017 05:38 7,7 C 11,7 C 98 % 1017,7 hPa 0,0 l/m 0,0 km/h (0 Bft) SO 136 0 min 0,000 mm 0,0 UV-I 0 W/m 7,4 C 7,7 C 0,0 km/h (0 Bft) 93,62 %
21.10.2017 05:40 7,7 C 11,7 C 98 % 1017,7 hPa 0,0 l/m 0,0 km/h (0 Bft) SO 136 0 min 0,000 mm 0,0 UV-I 0 W/m 7,4 C 7,7 C 0,0 km/h (0 Bft) 94,29 %
21.10.2017 05:42 7,7 C 11,7 C 98 % 1017,7 hPa 0,0 l/m 0,0 km/h (0 Bft) SO 136 0 min 0,000 mm 0,0 UV-I 0 W/m 7,4 C 7,7 C 0,0 km/h (0 Bft) 96,00 %
21.10.2017 05:44 7,7 C 11,7 C 98 % 1017,7 hPa 0,0 l/m 1,2 km/h (1 Bft) SO 136 0 min 0,000 mm 0,0 UV-I 0 W/m 7,4 C 7,7 C 3,2 km/h (1 Bft) 96,23 %
21.10.2017 05:46 7,8 C 11,7 C 98 % 1017,7 hPa 0,0 l/m 1,5 km/h (1 Bft) SO 136 0 min 0,000 mm 0,0 UV-I 0 W/m 7,5 C 7,8 C 3,2 km/h (1 Bft) 95,74 %
21.10.2017 05:48 7,7 C 11,7 C 98 % 1017,7 hPa 0,0 l/m 0,0 km/h (0 Bft) SO 136 0 min 0,000 mm 0,0 UV-I 0 W/m 7,4 C 7,7 C 0,0 km/h (0 Bft) 91,49 %
21.10.2017 05:50 7,7 C 11,7 C 98 % 1017,7 hPa 0,0 l/m 0,0 km/h (0 Bft) SO 136 0 min 0,000 mm 0,0 UV-I 0 W/m 7,4 C 7,7 C 0,0 km/h (0 Bft) 92,00 %
21.10.2017 05:52 7,7 C 11,7 C 98 % 1017,6 hPa 0,0 l/m 0,0 km/h (0 Bft) SO 136 0 min 0,000 mm 0,0 UV-I 0 W/m 7,4 C 7,7 C 0,0 km/h (0 Bft) 97,37 %
21.10.2017 05:54 7,7 C 11,7 C 98 % 1017,5 hPa 0,0 l/m 0,0 km/h (0 Bft) SO 136 0 min 0,000 mm 0,0 UV-I 0 W/m 7,4 C 7,7 C 0,0 km/h (0 Bft) 94,00 %
21.10.2017 05:56 7,7 C 11,7 C 98 % 1017,5 hPa 0,0 l/m 0,0 km/h (0 Bft) SO 136 0 min 0,000 mm 0,0 UV-I 0 W/m 7,4 C 7,7 C 1,6 km/h (1 Bft) 94,34 %
21.10.2017 05:58 7,7 C 11,7 C 98 % 1017,5 hPa 0,0 l/m 0,0 km/h (0 Bft) SO 136 0 min 0,000 mm 0,0 UV-I 0 W/m 7,4 C 7,7 C 0,0 km/h (0 Bft) 95,74 %
21.10.2017 06:00 7,7 C 11,7 C 98 % 1017,6 hPa 0,0 l/m 1,4 km/h (1 Bft) SO 136 0 min 0,000 mm 0,0 UV-I 0 W/m 7,4 C 7,7 C 3,2 km/h (1 Bft) 95,74 %
21.10.2017 06:02 7,7 C 11,7 C 98 % 1017,6 hPa 0,0 l/m 2,1 km/h (1 Bft) SO 136 0 min 0,000 mm 0,0 UV-I 0 W/m 7,4 C 7,7 C 3,2 km/h (1 Bft) 97,14 %
21.10.2017 06:04 7,8 C 11,7 C 98 % 1017,6 hPa 0,0 l/m 2,4 km/h (1 Bft) SO 136 0 min 0,000 mm 0,0 UV-I 0 W/m 7,5 C 7,8 C 3,2 km/h (1 Bft) 97,92 %
21.10.2017 06:06 7,8 C 11,7 C 98 % 1017,5 hPa 0,0 l/m 0,0 km/h (0 Bft) SO 136 0 min 0,000 mm 0,0 UV-I 0 W/m 7,5 C 7,8 C 1,6 km/h (1 Bft) 98,08 %
21.10.2017 06:08 7,8 C 11,7 C 98 % 1017,4 hPa 0,0 l/m 0,7 km/h (0 Bft) SO 136 0 min 0,000 mm 0,0 UV-I 0 W/m 7,5 C 7,8 C 1,6 km/h (1 Bft) 100,00 %
21.10.2017 06:10 7,8 C 11,7 C 98 % 1017,4 hPa 0,0 l/m 1,4 km/h (1 Bft) SO 136 0 min 0,000 mm 0,0 UV-I 0 W/m 7,5 C 7,8 C 3,2 km/h (1 Bft) 100,00 %
21.10.2017 06:12 7,9 C 11,7 C 98 % 1017,4 hPa 0,0 l/m 0,6 km/h (0 Bft) SO 136 0 min 0,000 mm 0,0 UV-I 0 W/m 7,6 C 7,9 C 1,6 km/h (1 Bft) 100,00 %
21.10.2017 06:14 7,9 C 11,7 C 98 % 1017,4 hPa 0,0 l/m 3,7 km/h (1 Bft) SO 136 0 min 0,000 mm 0,0 UV-I 0 W/m 7,6 C 7,9 C 4,8 km/h (1 Bft) 97,14 %
21.10.2017 06:16 8,0 C 11,7 C 98 % 1017,4 hPa 0,0 l/m 2,1 km/h (1 Bft) SO 136 0 min 0,000 mm 0,0 UV-I 0 W/m 7,7 C 8,0 C 4,8 km/h (1 Bft) 100,00 %
21.10.2017 06:18 8,0 C 11,7 C 98 % 1017,5 hPa 0,0 l/m 1,0 km/h (0 Bft) SO 136 0 min 0,000 mm 0,0 UV-I 0 W/m 7,7 C 8,0 C 3,2 km/h (1 Bft) 98,00 %
21.10.2017 06:20 8,1 C 11,7 C 98 % 1017,5 hPa 0,0 l/m 0,4 km/h (0 Bft) SO 136 0 min 0,000 mm 0,0 UV-I 0 W/m 7,8 C 8,1 C 1,6 km/h (1 Bft) 97,37 %
21.10.2017 06:22 8,2 C 11,7 C 98 % 1017,5 hPa 0,0 l/m 0,0 km/h (0 Bft) SO 136 0 min 0,000 mm 0,0 UV-I 0 W/m 7,9 C 8,2 C 0,0 km/h (0 Bft) 100,00 %
21.10.2017 06:24 8,2 C 11,7 C 98 % 1017,5 hPa 0,0 l/m 0,0 km/h (0 Bft) SO 136 0 min 0,000 mm 0,0 UV-I 0 W/m 7,9 C 8,2 C 0,0 km/h (0 Bft) 100,00 %
21.10.2017 06:26 8,2 C 11,7 C 98 % 1017,5 hPa 0,0 l/m 0,0 km/h (0 Bft) SO 136 0 min 0,000 mm 0,0 UV-I 0 W/m 7,9 C 8,2 C 0,0 km/h (0 Bft) 97,14 %
21.10.2017 06:28 8,1 C 11,7 C 98 % 1017,6 hPa 0,0 l/m 0,5 km/h (0 Bft) SO 136 0 min 0,000 mm 0,0 UV-I 0 W/m 7,8 C 8,1 C 3,2 km/h (1 Bft) 100,00 %
21.10.2017 06:30 8,1 C 11,7 C 98 % 1017,5 hPa 0,0 l/m 1,1 km/h (1 Bft) SO 136 0 min 0,000 mm 0,0 UV-I 0 W/m 7,8 C 8,1 C 3,2 km/h (1 Bft) 98,11 %
21.10.2017 06:32 8,1 C 11,7 C 98 % 1017,5 hPa 0,0 l/m 0,0 km/h (0 Bft) SO 136 0 min 0,000 mm 0,0 UV-I 0 W/m 7,8 C 8,1 C 0,0 km/h (0 Bft) 100,00 %
21.10.2017 06:34 8,0 C 11,7 C 98 % 1017,5 hPa 0,0 l/m 0,0 km/h (0 Bft) SO 136 0 min 0,000 mm 0,0 UV-I 0 W/m 7,7 C 8,0 C 0,0 km/h (0 Bft) 100,00 %
21.10.2017 06:36 8,0 C 11,7 C 98 % 1017,5 hPa 0,0 l/m 0,0 km/h (0 Bft) SO 136 0 min 0,000 mm 0,0 UV-I 0 W/m 7,7 C 8,0 C 0,0 km/h (0 Bft) 95,45 %
21.10.2017 06:38 8,0 C 11,7 C 98 % 1017,5 hPa 0,0 l/m 0,0 km/h (0 Bft) SO 136 0 min 0,000 mm 0,0 UV-I 0 W/m 7,7 C 8,0 C 1,6 km/h (1 Bft) 97,87 %
21.10.2017 06:40 7,9 C 11,7 C 98 % 1017,5 hPa 0,0 l/m 0,1 km/h (0 Bft) SO 136 0 min 0,000 mm 0,0 UV-I 0 W/m 7,6 C 7,9 C 1,6 km/h (1 Bft) 100,00 %
21.10.2017 06:42 7,9 C 11,7 C 98 % 1017,5 hPa 0,0 l/m 0,0 km/h (0 Bft) SO 136 0 min 0,000 mm 0,0 UV-I 0 W/m 7,6 C 7,9 C 0,0 km/h (0 Bft) 98,04 %
21.10.2017 06:44 7,9 C 11,7 C 98 % 1017,6 hPa 0,0 l/m 0,1 km/h (0 Bft) NO 49 0 min 0,000 mm 0,0 UV-I 0 W/m 7,6 C 7,9 C 1,6 km/h (1 Bft) 97,87 %
21.10.2017 06:46 7,9 C 11,7 C 98 % 1017,6 hPa 0,0 l/m 0,6 km/h (0 Bft) N-NW 348 0 min 0,000 mm 0,0 UV-I 0 W/m 7,6 C 7,9 C 3,2 km/h (1 Bft) 100,00 %
21.10.2017 06:48 7,9 C 11,7 C 98 % 1017,5 hPa 0,0 l/m 0,7 km/h (0 Bft) N-NO 13 0 min 0,000 mm 0,0 UV-I 0 W/m 7,6 C 7,9 C 4,8 km/h (1 Bft) 100,00 %
21.10.2017 06:50 8,0 C 11,7 C 98 % 1017,5 hPa 0,0 l/m 0,8 km/h (0 Bft) N-NO 13 0 min 0,000 mm 0,0 UV-I 0 W/m 7,7 C 8,0 C 3,2 km/h (1 Bft) 100,00 %
21.10.2017 06:52 8,1 C 11,7 C 98 % 1017,4 hPa 0,0 l/m 0,1 km/h (0 Bft) N-NO 13 0 min 0,000 mm 0,0 UV-I 0 W/m 7,8 C 8,1 C 1,6 km/h (1 Bft) 96,00 %
21.10.2017 06:54 8,1 C 11,7 C 98 % 1017,5 hPa 0,0 l/m 1,8 km/h (1 Bft) N-NO 13 0 min 0,000 mm 0,0 UV-I 0 W/m 7,8 C 8,1 C 3,2 km/h (1 Bft) 100,00 %
21.10.2017 06:56 8,2 C 11,7 C 98 % 1017,5 hPa 0,0 l/m 1,0 km/h (0 Bft) N-NO 13 0 min 0,000 mm 0,0 UV-I 0 W/m 7,9 C 8,2 C 3,2 km/h (1 Bft) 100,00 %
21.10.2017 06:58 8,2 C 11,7 C 98 % 1017,6 hPa 0,0 l/m 0,1 km/h (0 Bft) N-NO 13 0 min 0,000 mm 0,0 UV-I 0 W/m 7,9 C 8,2 C 1,6 km/h (1 Bft) 97,87 %
21.10.2017 07:00 8,2 C 11,7 C 98 % 1017,6 hPa 0,0 l/m 0,2 km/h (0 Bft) N-NO 13 0 min 0,000 mm 0,0 UV-I 0 W/m 7,9 C 8,2 C 3,2 km/h (1 Bft) 100,00 %
21.10.2017 07:02 8,2 C 11,7 C 98 % 1017,5 hPa 0,0 l/m 1,9 km/h (1 Bft) N-NO 13 0 min 0,000 mm 0,0 UV-I 0 W/m 7,9 C 8,2 C 3,2 km/h (1 Bft) 100,00 %
21.10.2017 07:04 8,2 C 11,7 C 98 % 1017,5 hPa 0,0 l/m 3,2 km/h (1 Bft) N-NO 14 0 min 0,000 mm 0,0 UV-I 0 W/m 7,9 C 8,2 C 4,8 km/h (1 Bft) 100,00 %
21.10.2017 07:06 8,2 C 11,7 C 98 % 1017,4 hPa 0,0 l/m 3,9 km/h (1 Bft) N-NO 16 0 min 0,000 mm 0,0 UV-I 0 W/m 7,9 C 8,2 C 4,8 km/h (1 Bft) 100,00 %
21.10.2017 07:08 8,2 C 11,7 C 98 % 1017,5 hPa 0,0 l/m 3,5 km/h (1 Bft) N-NO 21 0 min 0,000 mm 0,0 UV-I 0 W/m 7,9 C 8,2 C 4,8 km/h (1 Bft) 98,00 %
21.10.2017 07:10 8,1 C 11,7 C 98 % 1017,5 hPa 0,0 l/m 4,1 km/h (1 Bft) NO 44 0 min 0,000 mm 0,0 UV-I 0 W/m 7,8 C 8,1 C 4,8 km/h (1 Bft) 100,00 %
21.10.2017 07:12 8,1 C 11,7 C 98 % 1017,6 hPa 0,0 l/m 3,5 km/h (1 Bft) N-NO 30 0 min 0,000 mm 0,0 UV-I 0 W/m 7,8 C 8,1 C 6,4 km/h (2 Bft) 100,00 %
21.10.2017 07:14 8,0 C 11,7 C 98 % 1017,5 hPa 0,0 l/m 3,5 km/h (1 Bft) N-NO 30 0 min 0,000 mm 0,0 UV-I 0 W/m 7,7 C 8,0 C 6,4 km/h (2 Bft) 100,00 %
21.10.2017 07:16 8,0 C 11,7 C 98 % 1017,5 hPa 0,0 l/m 2,8 km/h (1 Bft) N-NO 30 0 min 0,000 mm 0,0 UV-I 0 W/m 7,7 C 8,0 C 4,8 km/h (1 Bft) 98,00 %
21.10.2017 07:18 7,9 C 11,7 C 98 % 1017,5 hPa 0,0 l/m 1,3 km/h (1 Bft) N-NO 30 0 min 0,000 mm 0,0 UV-I 0 W/m 7,6 C 7,9 C 3,2 km/h (1 Bft) 100,00 %
21.10.2017 07:20 7,9 C 11,7 C 98 % 1017,5 hPa 0,0 l/m 0,2 km/h (0 Bft) N-NO 30 0 min 0,000 mm 0,0 UV-I 0 W/m 7,6 C 7,9 C 1,6 km/h (1 Bft) 97,87 %
21.10.2017 07:22 7,9 C 11,7 C 98 % 1017,5 hPa 0,0 l/m 0,0 km/h (0 Bft) N-NO 30 0 min 0,000 mm 0,0 UV-I 0 W/m 7,6 C 7,9 C 0,0 km/h (0 Bft) 100,00 %
21.10.2017 07:24 7,9 C 11,7 C 98 % 1017,4 hPa 0,0 l/m 0,0 km/h (0 Bft) N-NO 30 0 min 0,000 mm 0,0 UV-I 0 W/m 7,6 C 7,9 C 0,0 km/h (0 Bft) 97,56 %
21.10.2017 07:26 7,9 C 11,7 C 98 % 1017,4 hPa 0,0 l/m 1,0 km/h (0 Bft) N-NO 30 0 min 0,000 mm 0,0 UV-I 0 W/m 7,6 C 7,9 C 1,6 km/h (1 Bft) 97,92 %
21.10.2017 07:28 7,9 C 11,7 C 98 % 1017,4 hPa 0,0 l/m 0,4 km/h (0 Bft) N-NO 30 0 min 0,000 mm 0,0 UV-I 0 W/m 7,6 C 7,9 C 1,6 km/h (1 Bft) 98,00 %
21.10.2017 07:30 7,9 C 11,7 C 98 % 1017,4 hPa 0,0 l/m 0,3 km/h (0 Bft) N-NO 30 0 min 0,000 mm 0,0 UV-I 3 W/m 7,6 C 7,9 C 3,2 km/h (1 Bft) 98,08 %
21.10.2017 07:32 7,9 C 11,7 C 98 % 1017,4 hPa 0,0 l/m 1,8 km/h (1 Bft) N-NO 30 0 min 0,000 mm 0,0 UV-I 5 W/m 7,6 C 7,9 C 3,2 km/h (1 Bft) 97,92 %
21.10.2017 07:34 7,9 C 11,7 C 98 % 1017,4 hPa 0,0 l/m 0,9 km/h (0 Bft) N-NO 30 0 min 0,000 mm 0,0 UV-I 5 W/m 7,6 C 7,9 C 3,2 km/h (1 Bft) 97,37 %
21.10.2017 07:36 7,9 C 11,7 C 98 % 1017,4 hPa 0,0 l/m 2,6 km/h (1 Bft) N-NO 30 0 min 0,000 mm 0,0 UV-I 5 W/m 7,6 C 7,9 C 4,8 km/h (1 Bft) 95,74 %
21.10.2017 07:38 7,9 C 11,7 C 98 % 1017,4 hPa 0,0 l/m 2,4 km/h (1 Bft) NO 43 0 min 0,000 mm 0,0 UV-I 5 W/m 7,6 C 7,9 C 4,8 km/h (1 Bft) 96,23 %
21.10.2017 07:40 7,9 C 11,7 C 98 % 1017,4 hPa 0,0 l/m 0,6 km/h (0 Bft) NO 43 0 min 0,000 mm 0,0 UV-I 5 W/m 7,6 C 7,9 C 3,2 km/h (1 Bft) 97,87 %
21.10.2017 07:42 7,9 C 11,7 C 98 % 1017,4 hPa 0,0 l/m 1,6 km/h (1 Bft) NO 43 0 min 0,000 mm 0,0 UV-I 5 W/m 7,6 C 7,9 C 3,2 km/h (1 Bft) 97,87 %
21.10.2017 07:44 7,9 C 11,7 C 98 % 1017,4 hPa 0,0 l/m 2,8 km/h (1 Bft) NO 43 0 min 0,000 mm 0,0 UV-I 6 W/m 7,6 C 7,9 C 3,2 km/h (1 Bft) 94,74 %
21.10.2017 07:46 7,9 C 11,7 C 98 % 1017,3 hPa 0,0 l/m 0,8 km/h (0 Bft) NO 43 0 min 0,000 mm 0,0 UV-I 7 W/m 7,6 C 7,9 C 3,2 km/h (1 Bft) 97,87 %
21.10.2017 07:48 7,9 C 11,7 C 98 % 1017,4 hPa 0,0 l/m 0,0 km/h (0 Bft) NO 43 0 min 0,000 mm 0,0 UV-I 7 W/m 7,6 C 7,9 C 0,0 km/h (0 Bft) 98,11 %
21.10.2017 07:50 7,9 C 11,7 C 98 % 1017,4 hPa 0,0 l/m 0,0 km/h (0 Bft) NO 43 0 min 0,000 mm 0,0 UV-I 7 W/m 7,6 C 7,9 C 0,0 km/h (0 Bft) 97,87 %
21.10.2017 07:52 7,9 C 11,7 C 98 % 1017,4 hPa 0,0 l/m 0,0 km/h (0 Bft) NO 43 0 min 0,000 mm 0,0 UV-I 9 W/m 7,6 C 7,9 C 0,0 km/h (0 Bft) 95,12 %
21.10.2017 07:54 7,9 C 11,7 C 98 % 1017,4 hPa 0,0 l/m 0,0 km/h (0 Bft) NO 43 0 min 0,000 mm 0,0 UV-I 9 W/m 7,6 C 7,9 C 0,0 km/h (0 Bft) 100,00 %
21.10.2017 07:56 7,9 C 11,7 C 98 % 1017,4 hPa 0,0 l/m 0,0 km/h (0 Bft) NO 43 0 min 0,000 mm 0,0 UV-I 10 W/m 7,6 C 7,9 C 0,0 km/h (0 Bft) 94,00 %
21.10.2017 07:58 7,9 C 11,7 C 98 % 1017,3 hPa 0,0 l/m 0,0 km/h (0 Bft) NO 43 0 min 0,000 mm 0,0 UV-I 11 W/m 7,6 C 7,9 C 0,0 km/h (0 Bft) 98,00 %
21.10.2017 08:00 7,9 C 11,7 C 98 % 1017,3 hPa 0,0 l/m 0,0 km/h (0 Bft) NO 43 0 min 0,000 mm 0,0 UV-I 12 W/m 7,6 C 7,9 C 1,6 km/h (1 Bft) 100,00 %
21.10.2017 08:02 7,9 C 11,7 C 98 % 1017,4 hPa 0,0 l/m 0,0 km/h (0 Bft) NO 43 0 min 0,000 mm 0,0 UV-I 14 W/m 7,6 C 7,9 C 0,0 km/h (0 Bft) 100,00 %
21.10.2017 08:04 8,0 C 11,7 C 98 % 1017,4 hPa 0,0 l/m 0,0 km/h (0 Bft) NO 43 0 min 0,000 mm 0,0 UV-I 17 W/m 7,7 C 8,0 C 0,0 km/h (0 Bft) 95,56 %
21.10.2017 08:06 8,0 C 11,7 C 98 % 1017,4 hPa 0,0 l/m 0,3 km/h (0 Bft) NO 43 0 min 0,000 mm 0,0 UV-I 19 W/m 7,7 C 8,0 C 1,6 km/h (1 Bft) 97,87 %
21.10.2017 08:08 8,0 C 11,7 C 98 % 1017,5 hPa 0,0 l/m 0,3 km/h (0 Bft) NO 43 0 min 0,000 mm 0,0 UV-I 23 W/m 7,7 C 8,0 C 3,2 km/h (1 Bft) 98,00 %
21.10.2017 08:10 8,0 C 11,7 C 98 % 1017,5 hPa 0,0 l/m 0,0 km/h (0 Bft) NO 43 0 min 0,000 mm 0,0 UV-I 29 W/m 7,7 C 8,0 C 0,0 km/h (0 Bft) 100,00 %
21.10.2017 08:12 8,0 C 11,7 C 98 % 1017,4 hPa 0,0 l/m 0,0 km/h (0 Bft) NO 43 0 min 0,000 mm 0,0 UV-I 32 W/m 7,7 C 8,0 C 0,0 km/h (0 Bft) 100,00 %
21.10.2017 08:14 8,0 C 11,7 C 98 % 1017,4 hPa 0,0 l/m 0,0 km/h (0 Bft) NO 43 0 min 0,000 mm 0,0 UV-I 28 W/m 7,7 C 8,0 C 1,6 km/h (1 Bft) 100,00 %
21.10.2017 08:16 8,1 C 11,7 C 98 % 1017,4 hPa 0,0 l/m 0,0 km/h (0 Bft) NO 43 0 min 0,000 mm 0,0 UV-I 22 W/m 7,8 C 8,1 C 0,0 km/h (0 Bft) 100,00 %
21.10.2017 08:18 8,1 C 11,7 C 98 % 1017,4 hPa 0,0 l/m 0,0 km/h (0 Bft) NO 43 0 min 0,000 mm 0,0 UV-I 21 W/m 7,8 C 8,1 C 0,0 km/h (0 Bft) 100,00 %
21.10.2017 08:20 8,1 C 11,7 C 98 % 1017,5 hPa 0,0 l/m 0,0 km/h (0 Bft) NO 43 0 min 0,000 mm 0,0 UV-I 22 W/m 7,8 C 8,1 C 0,0 km/h (0 Bft) 100,00 %
21.10.2017 08:22 8,1 C 11,7 C 98 % 1017,5 hPa 0,0 l/m 0,0 km/h (0 Bft) NO 43 0 min 0,000 mm 0,0 UV-I 24 W/m 7,8 C 8,1 C 0,0 km/h (0 Bft) 100,00 %
21.10.2017 08:24 8,2 C 11,7 C 98 % 1017,5 hPa 0,0 l/m 0,0 km/h (0 Bft) NO 43 0 min 0,000 mm 0,0 UV-I 26 W/m 7,9 C 8,2 C 0,0 km/h (0 Bft) 97,87 %
21.10.2017 08:26 8,2 C 11,7 C 98 % 1017,5 hPa 0,0 l/m 0,2 km/h (0 Bft) NO 43 0 min 0,000 mm 0,0 UV-I 28 W/m 7,9 C 8,2 C 1,6 km/h (1 Bft) 100,00 %
21.10.2017 08:28 8,2 C 11,7 C 98 % 1017,4 hPa 0,0 l/m 0,0 km/h (0 Bft) NO 43 0 min 0,000 mm 0,0 UV-I 31 W/m 7,9 C 8,2 C 0,0 km/h (0 Bft) 100,00 %
21.10.2017 08:30 8,2 C 11,7 C 98 % 1017,5 hPa 0,0 l/m 0,0 km/h (0 Bft) NO 43 0 min 0,000 mm 0,0 UV-I 34 W/m 7,9 C 8,2 C 0,0 km/h (0 Bft) 100,00 %
21.10.2017 08:32 8,2 C 11,7 C 98 % 1017,5 hPa 0,0 l/m 0,0 km/h (0 Bft) NO 43 0 min 0,000 mm 0,0 UV-I 37 W/m 7,9 C 8,2 C 0,0 km/h (0 Bft) 100,00 %
21.10.2017 08:34 8,2 C 11,7 C 98 % 1017,5 hPa 0,0 l/m 0,0 km/h (0 Bft) NO 43 0 min 0,000 mm 0,0 UV-I 37 W/m 7,9 C 8,2 C 1,6 km/h (1 Bft) 100,00 %
21.10.2017 08:36 8,2 C 11,7 C 98 % 1017,6 hPa 0,0 l/m 0,7 km/h (0 Bft) N-NW 342 0 min 0,000 mm 0,0 UV-I 35 W/m 7,9 C 8,2 C 3,2 km/h (1 Bft) 100,00 %
21.10.2017 08:38 8,2 C 11,7 C 98 % 1017,7 hPa 0,0 l/m 0,8 km/h (0 Bft) N-NW 332 0 min 0,000 mm 0,0 UV-I 34 W/m 7,9 C 8,2 C 3,2 km/h (1 Bft) 100,00 %
21.10.2017 08:40 8,2 C 11,7 C 98 % 1017,7 hPa 0,0 l/m 0,5 km/h (0 Bft) N-NW 340 0 min 0,000 mm 0,0 UV-I 32 W/m 7,9 C 8,2 C 3,2 km/h (1 Bft) 100,00 %
21.10.2017 08:42 8,3 C 11,7 C 98 % 1017,7 hPa 0,0 l/m 0,3 km/h (0 Bft) N-NW 340 0 min 0,000 mm 0,0 UV-I 32 W/m 8,0 C 8,3 C 1,6 km/h (1 Bft) 97,92 %
21.10.2017 08:44 8,3 C 11,7 C 98 % 1017,8 hPa 0,0 l/m 0,0 km/h (0 Bft) N-NW 340 0 min 0,000 mm 0,0 UV-I 32 W/m 8,0 C 8,3 C 1,6 km/h (1 Bft) 97,87 %
21.10.2017 08:46 8,4 C 11,7 C 98 % 1017,8 hPa 0,0 l/m 0,2 km/h (0 Bft) N-NW 340 0 min 0,000 mm 0,0 UV-I 33 W/m 8,1 C 8,4 C 1,6 km/h (1 Bft) 96,00 %
21.10.2017 08:48 8,4 C 11,7 C 98 % 1017,7 hPa 0,0 l/m 1,2 km/h (1 Bft) N 9 0 min 0,000 mm 0,0 UV-I 36 W/m 8,1 C 8,4 C 4,8 km/h (1 Bft) 96,00 %
21.10.2017 08:50 8,4 C 11,7 C 98 % 1017,7 hPa 0,0 l/m 3,7 km/h (1 Bft) N 9 0 min 0,000 mm 0,0 UV-I 41 W/m 8,1 C 8,4 C 4,8 km/h (1 Bft) 93,88 %
21.10.2017 08:52 8,5 C 11,7 C 98 % 1017,8 hPa 0,0 l/m 1,4 km/h (1 Bft) N 9 0 min 0,000 mm 0,0 UV-I 42 W/m 8,2 C 8,5 C 4,8 km/h (1 Bft) 93,33 %
21.10.2017 08:54 8,5 C 11,7 C 98 % 1017,8 hPa 0,0 l/m 0,0 km/h (0 Bft) N 9 0 min 0,000 mm 0,0 UV-I 41 W/m 8,2 C 8,5 C 1,6 km/h (1 Bft) 97,87 %
21.10.2017 08:56 8,5 C 11,7 C 98 % 1017,7 hPa 0,0 l/m 1,5 km/h (1 Bft) N 9 0 min 0,000 mm 0,0 UV-I 42 W/m 8,2 C 8,5 C 3,2 km/h (1 Bft) 97,87 %
21.10.2017 08:58 8,6 C 11,7 C 98 % 1017,7 hPa 0,0 l/m 1,4 km/h (1 Bft) N 9 0 min 0,000 mm 0,0 UV-I 42 W/m 8,3 C 8,6 C 3,2 km/h (1 Bft) 95,74 %
21.10.2017 09:00 8,6 C 11,7 C 98 % 1017,8 hPa 0,0 l/m 0,0 km/h (0 Bft) N 9 0 min 0,025 mm 0,0 UV-I 47 W/m 8,3 C 8,6 C 0,0 km/h (0 Bft) 97,87 %
21.10.2017 09:02 8,6 C 11,7 C 98 % 1017,8 hPa 0,0 l/m 0,0 km/h (0 Bft) N 9 0 min 0,000 mm 0,0 UV-I 54 W/m 8,3 C 8,6 C 0,0 km/h (0 Bft) 97,87 %
21.10.2017 09:04 8,6 C 11,7 C 98 % 1017,8 hPa 0,0 l/m 0,0 km/h (0 Bft) N 9 0 min 0,000 mm 0,0 UV-I 59 W/m 8,3 C 8,6 C 0,0 km/h (0 Bft) 97,56 %
21.10.2017 09:06 8,6 C 11,7 C 98 % 1017,8 hPa 0,0 l/m 0,0 km/h (0 Bft) N 9 0 min 0,000 mm 0,0 UV-I 62 W/m 8,3 C 8,6 C 0,0 km/h (0 Bft) 97,87 %
21.10.2017 09:08 8,6 C 11,7 C 98 % 1017,8 hPa 0,0 l/m 0,3 km/h (0 Bft) N 9 0 min 0,000 mm 0,0 UV-I 62 W/m 8,3 C 8,6 C 1,6 km/h (1 Bft) 95,74 %
21.10.2017 09:10 8,6 C 11,7 C 98 % 1017,9 hPa 0,0 l/m 0,0 km/h (0 Bft) N 9 0 min 0,000 mm 0,0 UV-I 56 W/m 8,3 C 8,6 C 0,0 km/h (0 Bft) 95,74 %
21.10.2017 09:12 8,7 C 11,7 C 98 % 1017,9 hPa 0,0 l/m 0,0 km/h (0 Bft) N 9 0 min 0,000 mm 0,0 UV-I 47 W/m 8,4 C 8,7 C 0,0 km/h (0 Bft) 98,00 %
21.10.2017 09:14 8,7 C 11,7 C 98 % 1017,9 hPa 0,0 l/m 0,7 km/h (0 Bft) N-NW 332 0 min 0,000 mm 0,0 UV-I 44 W/m 8,4 C 8,7 C 4,8 km/h (1 Bft) 96,00 %
21.10.2017 09:16 8,7 C 11,7 C 98 % 1017,9 hPa 0,0 l/m 3,1 km/h (1 Bft) W-NW 288 0 min 0,000 mm 0,0 UV-I 48 W/m 8,4 C 8,7 C 4,8 km/h (1 Bft) 97,87 %
21.10.2017 09:18 8,7 C 11,7 C 98 % 1018,0 hPa 0,0 l/m 3,0 km/h (1 Bft) W-NW 288 0 min 0,000 mm 0,0 UV-I 51 W/m 8,4 C 8,7 C 4,8 km/h (1 Bft) 97,14 %
21.10.2017 09:20 8,8 C 11,7 C 98 % 1018,0 hPa 0,0 l/m 4,0 km/h (1 Bft) SW 228 0 min 0,000 mm 0,0 UV-I 43 W/m 8,5 C 8,8 C 4,8 km/h (1 Bft) 98,11 %
21.10.2017 09:22 8,8 C 11,7 C 98 % 1018,1 hPa 0,0 l/m 4,3 km/h (1 Bft) SW 233 0 min 0,000 mm 0,0 UV-I 36 W/m 8,5 C 8,8 C 6,4 km/h (2 Bft) 96,00 %
21.10.2017 09:24 8,8 C 11,7 C 98 % 1018,1 hPa 0,0 l/m 6,0 km/h (2 Bft) W-SW 257 0 min 0,000 mm 0,0 UV-I 44 W/m 8,5 C 8,8 C 9,7 km/h (2 Bft) 98,00 %
21.10.2017 09:26 8,8 C 11,7 C 98 % 1018,3 hPa 0,0 l/m 5,1 km/h (1 Bft) W-SW 250 0 min 0,000 mm 0,0 UV-I 48 W/m 8,5 C 8,8 C 9,7 km/h (2 Bft) 97,44 %
21.10.2017 09:28 8,9 C 11,7 C 98 % 1018,1 hPa 0,0 l/m 4,4 km/h (1 Bft) W 259 0 min 0,000 mm 0,0 UV-I 55 W/m 8,6 C 8,9 C 9,7 km/h (2 Bft) 95,74 %
21.10.2017 09:30 8,9 C 11,7 C 98 % 1018,1 hPa 0,0 l/m 6,8 km/h (2 Bft) W-SW 255 0 min 0,000 mm 0,0 UV-I 61 W/m 8,6 C 8,6 C 9,7 km/h (2 Bft) 94,34 %
21.10.2017 09:32 8,9 C 11,7 C 98 % 1018,0 hPa 0,0 l/m 1,9 km/h (1 Bft) W 280 0 min 0,000 mm 0,0 UV-I 60 W/m 8,6 C 8,9 C 4,8 km/h (1 Bft) 95,24 %
21.10.2017 09:34 9,0 C 11,7 C 98 % 1017,9 hPa 0,0 l/m 0,2 km/h (0 Bft) W 280 0 min 0,000 mm 0,0 UV-I 56 W/m 8,7 C 9,0 C 1,6 km/h (1 Bft) 93,62 %
21.10.2017 09:36 9,0 C 11,7 C 98 % 1018,0 hPa 0,0 l/m 3,4 km/h (1 Bft) W-SW 255 0 min 0,000 mm 0,0 UV-I 49 W/m 8,7 C 9,0 C 4,8 km/h (1 Bft) 93,62 %
21.10.2017 09:38 9,1 C 11,7 C 98 % 1018,0 hPa 0,0 l/m 1,6 km/h (1 Bft) W-SW 255 0 min 0,000 mm 0,0 UV-I 45 W/m 8,8 C 9,1 C 4,8 km/h (1 Bft) 93,62 %
21.10.2017 09:40 9,1 C 11,7 C 98 % 1017,9 hPa 0,0 l/m 1,0 km/h (0 Bft) W-SW 254 0 min 0,000 mm 0,0 UV-I 42 W/m 8,8 C 9,1 C 3,2 km/h (1 Bft) 93,62 %
21.10.2017 09:42 9,1 C 11,7 C 98 % 1017,8 hPa 0,0 l/m 1,2 km/h (1 Bft) W-SW 254 0 min 0,000 mm 0,0 UV-I 44 W/m 8,8 C 9,1 C 3,2 km/h (1 Bft) 97,73 %
21.10.2017 09:44 9,1 C 11,7 C 98 % 1017,8 hPa 0,0 l/m 1,5 km/h (1 Bft) W-SW 254 0 min 0,000 mm 0,0 UV-I 56 W/m 8,8 C 9,1 C 3,2 km/h (1 Bft) 96,00 %
21.10.2017 09:46 9,2 C 11,7 C 98 % 1017,9 hPa 0,0 l/m 1,5 km/h (1 Bft) W 265 0 min 0,000 mm 0,0 UV-I 75 W/m 8,9 C 9,2 C 4,8 km/h (1 Bft) 97,56 %
21.10.2017 09:48 9,2 C 11,7 C 98 % 1017,9 hPa 0,0 l/m 2,2 km/h (1 Bft) W 276 0 min 0,000 mm 0,0 UV-I 86 W/m 8,9 C 9,2 C 3,2 km/h (1 Bft) 98,21 %
21.10.2017 09:50 9,3 C 11,7 C 98 % 1017,9 hPa 0,0 l/m 1,0 km/h (0 Bft) W 276 0 min 0,000 mm 0,0 UV-I 97 W/m 9,0 C 9,3 C 3,2 km/h (1 Bft) 97,87 %
21.10.2017 09:52 9,3 C 11,7 C 98 % 1017,9 hPa 0,0 l/m 0,0 km/h (0 Bft) W 276 0 min 0,000 mm 0,0 UV-I 102 W/m 9,0 C 9,3 C 0,0 km/h (0 Bft) 97,56 %
21.10.2017 09:54 9,3 C 11,7 C 98 % 1018,0 hPa 0,0 l/m 2,8 km/h (1 Bft) W 276 0 min 0,000 mm 0,0 UV-I 81 W/m 9,0 C 9,3 C 4,8 km/h (1 Bft) 98,00 %
21.10.2017 09:56 9,3 C 11,7 C 98 % 1018,0 hPa 0,0 l/m 1,7 km/h (1 Bft) W 276 0 min 0,000 mm 0,0 UV-I 65 W/m 9,0 C 9,3 C 3,2 km/h (1 Bft) 96,00 %
21.10.2017 09:58 9,3 C 11,7 C 98 % 1018,0 hPa 0,0 l/m 1,9 km/h (1 Bft) W 276 0 min 0,000 mm 0,0 UV-I 55 W/m 9,0 C 9,3 C 3,2 km/h (1 Bft) 97,87 %
21.10.2017 10:00 9,4 C 11,7 C 98 % 1018,1 hPa 0,0 l/m 2,4 km/h (1 Bft) W-SW 245 0 min 0,026 mm 0,0 UV-I 58 W/m 9,1 C 9,4 C 4,8 km/h (1 Bft) 100,00 %
21.10.2017 10:03 9,4 C 11,7 C 98 % 1018,0 hPa 0,0 l/m 3,0 km/h (1 Bft) S-SW 211 0 min 0,000 mm 0,0 UV-I 75 W/m 9,1 C 9,4 C 6,4 km/h (2 Bft) 100,00 %
21.10.2017 10:04 9,4 C 11,7 C 98 % 1018,0 hPa 0,0 l/m 3,1 km/h (1 Bft) S-SW 211 0 min 0,000 mm 0,0 UV-I 76 W/m 9,1 C 9,4 C 4,8 km/h (1 Bft) 100,00 %
21.10.2017 10:06 9,4 C 11,7 C 98 % 1018,1 hPa 0,0 l/m 3,8 km/h (1 Bft) SW 227 0 min 0,000 mm 0,0 UV-I 78 W/m 9,1 C 9,4 C 4,8 km/h (1 Bft) 100,00 %
21.10.2017 10:08 9,5 C 11,7 C 98 % 1018,0 hPa 0,0 l/m 1,8 km/h (1 Bft) SW 223 0 min 0,000 mm 0,0 UV-I 75 W/m 9,2 C 9,5 C 4,8 km/h (1 Bft) 98,00 %
21.10.2017 10:10 9,5 C 11,7 C 98 % 1018,1 hPa 0,0 l/m 3,9 km/h (1 Bft) W-SW 254 0 min 0,000 mm 0,0 UV-I 71 W/m 9,2 C 9,5 C 6,4 km/h (2 Bft) 100,00 %
21.10.2017 10:12 9,6 C 11,7 C 98 % 1018,1 hPa 0,0 l/m 2,5 km/h (1 Bft) W 271 0 min 0,000 mm 0,0 UV-I 60 W/m 9,3 C 9,6 C 4,8 km/h (1 Bft) 98,00 %
21.10.2017 10:14 9,6 C 11,7 C 98 % 1018,2 hPa 0,0 l/m 1,0 km/h (0 Bft) W 271 0 min 0,000 mm 0,0 UV-I 38 W/m 9,3 C 9,6 C 3,2 km/h (1 Bft) 100,00 %
21.10.2017 10:16 9,6 C 11,7 C 98 % 1018,3 hPa 0,0 l/m 1,8 km/h (1 Bft) W 271 0 min 0,000 mm 0,0 UV-I 27 W/m 9,3 C 9,6 C 3,2 km/h (1 Bft) 100,00 %
21.10.2017 10:18 9,6 C 11,7 C 98 % 1018,3 hPa 0,0 l/m 3,5 km/h (1 Bft) SW 234 0 min 0,000 mm 0,0 UV-I 29 W/m 9,3 C 9,6 C 4,8 km/h (1 Bft) 100,00 %
21.10.2017 10:20 9,7 C 11,7 C 98 % 1018,3 hPa 0,0 l/m 3,3 km/h (1 Bft) SW 223 0 min 0,000 mm 0,0 UV-I 28 W/m 9,4 C 9,7 C 4,8 km/h (1 Bft) 100,00 %
21.10.2017 10:22 9,7 C 11,7 C 98 % 1018,3 hPa 0,0 l/m 3,3 km/h (1 Bft) SW 223 0 min 0,000 mm 0,0 UV-I 26 W/m 9,4 C 9,7 C 4,8 km/h (1 Bft) 100,00 %
21.10.2017 10:24 9,7 C 11,7 C 98 % 1018,4 hPa 0,0 l/m 5,4 km/h (1 Bft) SW 226 0 min 0,000 mm 0,0 UV-I 23 W/m 9,4 C 9,7 C 8,0 km/h (2 Bft) 98,00 %
21.10.2017 10:26 9,7 C 11,7 C 98 % 1018,5 hPa 0,0 l/m 4,9 km/h (1 Bft) W-SW 238 0 min 0,000 mm 0,0 UV-I 21 W/m 9,4 C 9,7 C 6,4 km/h (2 Bft) 94,74 %
21.10.2017 10:28 9,7 C 11,7 C 98 % 1018,5 hPa 0,0 l/m 3,4 km/h (1 Bft) W-SW 240 0 min 0,000 mm 0,0 UV-I 22 W/m 9,4 C 9,7 C 4,8 km/h (1 Bft) 100,00 %
21.10.2017 10:30 9,7 C 11,7 C 98 % 1018,6 hPa 0,0 l/m 3,7 km/h (1 Bft) W 267 0 min 0,000 mm 0,0 UV-I 23 W/m 9,4 C 9,7 C 6,4 km/h (2 Bft) 100,00 %
21.10.2017 10:32 9,7 C 11,7 C 98 % 1018,6 hPa 0,0 l/m 2,2 km/h (1 Bft) SW 227 0 min 0,000 mm 0,0 UV-I 24 W/m 9,4 C 9,7 C 4,8 km/h (1 Bft) 100,00 %
21.10.2017 10:34 9,7 C 11,7 C 98 % 1018,6 hPa 0,0 l/m 5,4 km/h (1 Bft) W 263 0 min 0,000 mm 0,0 UV-I 32 W/m 9,4 C 9,7 C 9,7 km/h (2 Bft) 97,37 %
21.10.2017 10:36 9,7 C 11,7 C 98 % 1018,7 hPa 0,0 l/m 3,9 km/h (1 Bft) W 276 0 min 0,000 mm 0,0 UV-I 34 W/m 9,4 C 9,7 C 9,7 km/h (2 Bft) 100,00 %
21.10.2017 10:38 9,7 C 11,7 C 98 % 1018,8 hPa 0,0 l/m 4,1 km/h (1 Bft) W 261 0 min 0,000 mm 0,0 UV-I 31 W/m 9,4 C 9,7 C 6,4 km/h (2 Bft) 100,00 %
21.10.2017 10:40 9,8 C 11,7 C 98 % 1018,8 hPa 0,0 l/m 2,5 km/h (1 Bft) W 262 0 min 0,000 mm 0,0 UV-I 29 W/m 9,5 C 9,8 C 4,8 km/h (1 Bft) 100,00 %
21.10.2017 10:42 9,8 C 11,7 C 98 % 1018,9 hPa 0,0 l/m 2,9 km/h (1 Bft) NO 42 0 min 0,000 mm 0,0 UV-I 27 W/m 9,5 C 9,8 C 6,4 km/h (2 Bft) 100,00 %
21.10.2017 10:44 9,8 C 11,7 C 98 % 1018,8 hPa 0,0 l/m 2,2 km/h (1 Bft) N-NO 31 0 min 0,000 mm 0,0 UV-I 40 W/m 9,5 C 9,8 C 4,8 km/h (1 Bft) 100,00 %
21.10.2017 10:46 9,8 C 11,7 C 98 % 1018,8 hPa 0,0 l/m 0,2 km/h (0 Bft) N-NO 31 0 min 0,000 mm 0,0 UV-I 47 W/m 9,5 C 9,8 C 1,6 km/h (1 Bft) 97,22 %
21.10.2017 10:48 9,8 C 11,7 C 98 % 1019,0 hPa 0,0 l/m 1,5 km/h (1 Bft) W-NW 283 0 min 0,000 mm 0,0 UV-I 44 W/m 9,5 C 9,8 C 4,8 km/h (1 Bft) 98,11 %
21.10.2017 10:50 9,8 C 11,7 C 98 % 1018,8 hPa 0,0 l/m 1,0 km/h (0 Bft) W-NW 283 0 min 0,000 mm 0,0 UV-I 58 W/m 9,5 C 9,8 C 3,2 km/h (1 Bft) 100,00 %
21.10.2017 10:52 9,8 C 11,7 C 98 % 1018,7 hPa 0,0 l/m 2,5 km/h (1 Bft) S 169 0 min 0,000 mm 0,0 UV-I 68 W/m 9,5 C 9,8 C 3,2 km/h (1 Bft) 100,00 %
21.10.2017 10:54 9,8 C 11,7 C 98 % 1018,7 hPa 0,2 l/m 0,4 km/h (0 Bft) S 170 0 min 0,000 mm 0,0 UV-I 53 W/m 9,5 C 9,8 C 1,6 km/h (1 Bft) 97,14 %
21.10.2017 10:56 9,8 C 11,7 C 98 % 1018,7 hPa 0,0 l/m 0,5 km/h (0 Bft) S 169 0 min 0,000 mm 0,0 UV-I 39 W/m 9,5 C 9,8 C 1,6 km/h (1 Bft) 100,00 %
21.10.2017 10:58 9,8 C 11,7 C 98 % 1018,7 hPa 0,0 l/m 0,0 km/h (0 Bft) S 169 0 min 0,000 mm 0,0 UV-I 39 W/m 9,5 C 9,8 C 0,0 km/h (0 Bft) 100,00 %
21.10.2017 11:00 9,8 C 11,7 C 98 % 1018,7 hPa 0,0 l/m 2,2 km/h (1 Bft) S 170 0 min 0,025 mm 0,0 UV-I 43 W/m 9,5 C 9,8 C 6,4 km/h (2 Bft) 100,00 %
21.10.2017 11:02 9,9 C 11,7 C 98 % 1018,6 hPa 0,0 l/m 1,5 km/h (1 Bft) S 170 0 min 0,000 mm 0,0 UV-I 58 W/m 9,6 C 9,9 C 3,2 km/h (1 Bft) 100,00 %
21.10.2017 11:04 9,9 C 11,7 C 98 % 1018,7 hPa 0,0 l/m 0,0 km/h (0 Bft) S 170 0 min 0,000 mm 0,0 UV-I 69 W/m 9,6 C 9,9 C 0,0 km/h (0 Bft) 100,00 %
21.10.2017 11:06 10,0 C 11,7 C 98 % 1018,7 hPa 0,0 l/m 0,0 km/h (0 Bft) S 170 0 min 0,000 mm 0,0 UV-I 82 W/m 9,7 C 10,0 C 0,0 km/h (0 Bft) 97,14 %
21.10.2017 11:08 10,1 C 11,7 C 98 % 1018,7 hPa 0,0 l/m 0,3 km/h (0 Bft) S 170 0 min 0,000 mm 0,0 UV-I 84 W/m 9,8 C 10,1 C 1,6 km/h (1 Bft) 100,00 %
21.10.2017 11:10 10,1 C 11,7 C 98 % 1018,7 hPa 0,0 l/m 1,8 km/h (1 Bft) S-SO 163 0 min 0,000 mm 0,4 UV-I 98 W/m 9,8 C 10,1 C 4,8 km/h (1 Bft) 100,00 %
21.10.2017 11:12 10,2 C 11,7 C 98 % 1018,7 hPa 0,0 l/m 0,8 km/h (0 Bft) S-SO 163 0 min 0,000 mm 0,1 UV-I 91 W/m 9,9 C 10,2 C 3,2 km/h (1 Bft) 97,87 %
21.10.2017 11:14 10,2 C 11,7 C 98 % 1018,7 hPa 0,0 l/m 0,8 km/h (0 Bft) S-SO 163 0 min 0,000 mm 0,0 UV-I 76 W/m 9,9 C 10,2 C 3,2 km/h (1 Bft) 100,00 %
21.10.2017 11:16 10,2 C 11,7 C 98 % 1018,7 hPa 0,0 l/m 1,2 km/h (1 Bft) S-SO 163 0 min 0,000 mm 0,1 UV-I 83 W/m 9,9 C 10,2 C 3,2 km/h (1 Bft) 100,00 %
21.10.2017 11:18 10,3 C 11,7 C 98 % 1018,6 hPa 0,0 l/m 2,3 km/h (1 Bft) S 177 0 min 0,000 mm 0,6 UV-I 115 W/m 10,0 C 10,3 C 4,8 km/h (1 Bft) 100,00 %
21.10.2017 11:20 10,4 C 11,7 C 98 % 1018,6 hPa 0,0 l/m 0,6 km/h (0 Bft) S 177 0 min 0,000 mm 0,7 UV-I 146 W/m 10,1 C 10,4 C 3,2 km/h (1 Bft) 97,22 %
21.10.2017 11:22 10,4 C 11,7 C 98 % 1018,5 hPa 0,0 l/m 0,5 km/h (0 Bft) S 177 0 min 0,000 mm 0,8 UV-I 141 W/m 10,1 C 10,4 C 1,6 km/h (1 Bft) 100,00 %
21.10.2017 11:24 10,4 C 11,7 C 98 % 1018,5 hPa 0,0 l/m 1,8 km/h (1 Bft) S 174 0 min 0,000 mm 0,8 UV-I 158 W/m 10,1 C 10,4 C 3,2 km/h (1 Bft) 100,00 %
21.10.2017 11:26 10,5 C 11,7 C 98 % 1018,5 hPa 0,0 l/m 1,2 km/h (1 Bft) S 169 0 min 0,000 mm 0,8 UV-I 171 W/m 10,2 C 10,5 C 3,2 km/h (1 Bft) 100,00 %
21.10.2017 11:28 10,6 C 11,7 C 98 % 1018,6 hPa 0,0 l/m 2,2 km/h (1 Bft) S-SW 207 0 min 0,000 mm 0,6 UV-I 123 W/m 10,3 C 10,6 C 6,4 km/h (2 Bft) 100,00 %
21.10.2017 11:30 10,7 C 11,7 C 98 % 1018,5 hPa 0,0 l/m 2,3 km/h (1 Bft) S-SO 167 0 min 0,000 mm 0,5 UV-I 104 W/m 10,4 C 10,7 C 4,8 km/h (1 Bft) 96,92 %
21.10.2017 11:32 10,8 C 11,7 C 98 % 1018,6 hPa 0,0 l/m 2,5 km/h (1 Bft) S 175 0 min 0,000 mm 0,4 UV-I 100 W/m 10,5 C 10,8 C 6,4 km/h (2 Bft) 95,45 %
21.10.2017 11:34 10,8 C 11,7 C 98 % 1018,6 hPa 0,0 l/m 0,4 km/h (0 Bft) S 175 0 min 0,000 mm 0,0 UV-I 76 W/m 10,5 C 10,8 C 3,2 km/h (1 Bft) 98,00 %
21.10.2017 11:36 10,8 C 11,7 C 98 % 1018,6 hPa 0,0 l/m 0,4 km/h (0 Bft) S 175 0 min 0,000 mm 0,0 UV-I 52 W/m 10,5 C 10,8 C 1,6 km/h (1 Bft) 94,74 %
21.10.2017 11:38 10,8 C 11,7 C 98 % 1018,6 hPa 0,0 l/m 1,3 km/h (1 Bft) S 180 0 min 0,000 mm 0,0 UV-I 39 W/m 10,5 C 10,8 C 3,2 km/h (1 Bft) 98,04 %
21.10.2017 11:40 10,8 C 11,7 C 98 % 1018,7 hPa 0,0 l/m 1,7 km/h (1 Bft) S 180 0 min 0,000 mm 0,0 UV-I 42 W/m 10,5 C 10,8 C 3,2 km/h (1 Bft) 96,23 %
21.10.2017 11:47 10,8 C 11,7 C 97 % 1018,7 hPa 0,0 l/m 0,0 km/h (0 Bft) S 180 0 min 0,000 mm 0,0 UV-I 47 W/m 10,3 C 10,8 C 0,0 km/h (0 Bft) 98,31 %
21.10.2017 11:50 10,9 C 11,7 C 98 % 1018,6 hPa 0,0 l/m 1,4 km/h (1 Bft) S 180 0 min 0,000 mm 0,0 UV-I 47 W/m 10,6 C 10,9 C 3,2 km/h (1 Bft) 96,05 %
21.10.2017 11:52 10,9 C 11,7 C 98 % 1018,7 hPa 0,0 l/m 0,4 km/h (0 Bft) S 180 0 min 0,000 mm 0,0 UV-I 53 W/m 10,6 C 10,9 C 3,2 km/h (1 Bft) 98,00 %
21.10.2017 11:54 10,9 C 11,7 C 98 % 1018,7 hPa 0,0 l/m 0,2 km/h (0 Bft) S 180 0 min 0,000 mm 0,0 UV-I 54 W/m 10,6 C 10,9 C 1,6 km/h (1 Bft) 95,12 %
21.10.2017 11:56 11,0 C 11,7 C 98 % 1018,6 hPa 0,0 l/m 0,0 km/h (0 Bft) S 180 0 min 0,000 mm 0,0 UV-I 54 W/m 10,7 C 11,0 C 1,6 km/h (1 Bft) 94,00 %
21.10.2017 11:58 11,0 C 11,7 C 98 % 1018,6 hPa 0,0 l/m 0,6 km/h (0 Bft) S 180 0 min 0,000 mm 0,0 UV-I 52 W/m 10,7 C 11,0 C 3,2 km/h (1 Bft) 97,87 %
21.10.2017 12:00 10,9 C 11,7 C 97 % 1018,6 hPa 0,0 l/m 0,3 km/h (0 Bft) S 180 0 min 0,026 mm 0,0 UV-I 47 W/m 10,4 C 10,9 C 1,6 km/h (1 Bft) 97,56 %
21.10.2017 12:02 10,9 C 11,7 C 97 % 1018,6 hPa 0,0 l/m 0,7 km/h (0 Bft) S 180 0 min 0,000 mm 0,0 UV-I 47 W/m 10,4 C 10,9 C 1,6 km/h (1 Bft) 100,00 %
21.10.2017 12:04 11,0 C 11,7 C 97 % 1018,6 hPa 0,0 l/m 0,0 km/h (0 Bft) S 180 0 min 0,000 mm 0,0 UV-I 47 W/m 10,5 C 11,0 C 0,0 km/h (0 Bft) 100,00 %
21.10.2017 12:06 11,0 C 11,7 C 97 % 1018,6 hPa 0,0 l/m 0,0 km/h (0 Bft) S 180 0 min 0,000 mm 0,0 UV-I 36 W/m 10,5 C 11,0 C 0,0 km/h (0 Bft) 100,00 %
21.10.2017 12:08 11,0 C 11,7 C 97 % 1018,6 hPa 0,0 l/m 0,0 km/h (0 Bft) S 180 0 min 0,000 mm 0,0 UV-I 26 W/m 10,5 C 11,0 C 0,0 km/h (0 Bft) 100,00 %
21.10.2017 12:10 11,1 C 11,7 C 97 % 1018,6 hPa 0,0 l/m 0,0 km/h (0 Bft) S 180 0 min 0,000 mm 0,0 UV-I 29 W/m 10,6 C 11,1 C 0,0 km/h (0 Bft) 97,87 %
21.10.2017 12:12 11,1 C 11,7 C 97 % 1018,7 hPa 0,0 l/m 0,0 km/h (0 Bft) S 180 0 min 0,000 mm 0,0 UV-I 31 W/m 10,6 C 11,1 C 0,0 km/h (0 Bft) 100,00 %
21.10.2017 12:14 11,2 C 11,7 C 97 % 1018,7 hPa 0,2 l/m 0,3 km/h (0 Bft) S 180 0 min 0,000 mm 0,0 UV-I 43 W/m 10,7 C 11,2 C 1,6 km/h (1 Bft) 100,00 %
21.10.2017 12:16 11,1 C 11,7 C 97 % 1018,6 hPa 0,0 l/m 0,0 km/h (0 Bft) S 180 0 min 0,000 mm 0,0 UV-I 51 W/m 10,6 C 11,1 C 0,0 km/h (0 Bft) 100,00 %
21.10.2017 12:18 11,1 C 11,7 C 97 % 1018,6 hPa 0,0 l/m 0,8 km/h (0 Bft) S 180 0 min 0,000 mm 0,0 UV-I 66 W/m 10,6 C 11,1 C 3,2 km/h (1 Bft) 100,00 %
21.10.2017 12:20 11,2 C 11,7 C 97 % 1018,6 hPa 0,0 l/m 0,5 km/h (0 Bft) S 180 0 min 0,000 mm 0,0 UV-I 69 W/m 10,7 C 11,2 C 1,6 km/h (1 Bft) 100,00 %
21.10.2017 12:22 11,2 C 11,7 C 97 % 1018,5 hPa 0,0 l/m 0,2 km/h (0 Bft) S 180 0 min 0,000 mm 0,0 UV-I 58 W/m 10,7 C 11,2 C 1,6 km/h (1 Bft) 100,00 %
21.10.2017 12:24 11,3 C 11,7 C 97 % 1018,5 hPa 0,0 l/m 0,8 km/h (0 Bft) S 180 0 min 0,000 mm 0,0 UV-I 57 W/m 10,8 C 11,3 C 1,6 km/h (1 Bft) 96,43 %
21.10.2017 12:26 11,3 C 11,7 C 97 % 1018,5 hPa 0,0 l/m 0,0 km/h (0 Bft) S 180 0 min 0,000 mm 0,0 UV-I 58 W/m 10,8 C 11,3 C 0,0 km/h (0 Bft) 100,00 %
21.10.2017 12:28 11,4 C 11,7 C 97 % 1018,4 hPa 0,0 l/m 2,1 km/h (1 Bft) S 180 0 min 0,000 mm 0,0 UV-I 59 W/m 10,9 C 11,4 C 3,2 km/h (1 Bft) 96,92 %
21.10.2017 12:30 11,4 C 11,7 C 97 % 1018,4 hPa 0,0 l/m 1,3 km/h (1 Bft) S 180 0 min 0,000 mm 0,0 UV-I 48 W/m 10,9 C 11,4 C 1,6 km/h (1 Bft) 97,37 %
21.10.2017 12:32 11,4 C 11,7 C 97 % 1018,4 hPa 0,0 l/m 0,0 km/h (0 Bft) S 180 0 min 0,000 mm 0,0 UV-I 40 W/m 10,9 C 11,4 C 0,0 km/h (0 Bft) 96,00 %
21.10.2017 12:34 11,4 C 11,7 C 97 % 1018,4 hPa 0,0 l/m 0,0 km/h (0 Bft) S 180 0 min 0,000 mm 0,0 UV-I 37 W/m 10,9 C 11,4 C 0,0 km/h (0 Bft) 98,00 %
21.10.2017 12:36 11,4 C 11,7 C 97 % 1018,4 hPa 0,0 l/m 0,0 km/h (0 Bft) S 180 0 min 0,000 mm 0,0 UV-I 38 W/m 10,9 C 11,4 C 1,6 km/h (1 Bft) 97,56 %
21.10.2017 12:38 11,4 C 11,7 C 97 % 1018,4 hPa 0,0 l/m 1,8 km/h (1 Bft) S 180 0 min 0,000 mm 0,0 UV-I 39 W/m 10,9 C 11,4 C 3,2 km/h (1 Bft) 98,00 %
21.10.2017 12:40 11,4 C 11,7 C 97 % 1018,3 hPa 0,0 l/m 1,3 km/h (1 Bft) S 179 0 min 0,000 mm 0,0 UV-I 40 W/m 10,9 C 11,4 C 3,2 km/h (1 Bft) 98,11 %
21.10.2017 12:42 11,4 C 11,7 C 97 % 1018,3 hPa 0,0 l/m 0,3 km/h (0 Bft) S 179 0 min 0,000 mm 0,0 UV-I 40 W/m 10,9 C 11,4 C 3,2 km/h (1 Bft) 95,74 %
21.10.2017 12:44 11,4 C 11,7 C 97 % 1018,3 hPa 0,0 l/m 0,0 km/h (0 Bft) S 179 0 min 0,000 mm 0,0 UV-I 48 W/m 10,9 C 11,4 C 0,0 km/h (0 Bft) 97,92 %
21.10.2017 12:46 11,4 C 11,7 C 97 % 1018,2 hPa 0,0 l/m 0,7 km/h (0 Bft) S 179 0 min 0,000 mm 0,0 UV-I 60 W/m 10,9 C 11,4 C 3,2 km/h (1 Bft) 97,87 %
21.10.2017 12:48 11,4 C 11,7 C 97 % 1018,2 hPa 0,0 l/m 0,0 km/h (0 Bft) S 179 0 min 0,000 mm 0,0 UV-I 63 W/m 10,9 C 11,4 C 0,0 km/h (0 Bft) 97,87 %
21.10.2017 12:50 11,5 C 11,7 C 97 % 1018,2 hPa 0,0 l/m 0,0 km/h (0 Bft) S 179 0 min 0,000 mm 0,0 UV-I 55 W/m 11,0 C 11,5 C 0,0 km/h (0 Bft) 97,87 %
21.10.2017 12:52 11,5 C 11,7 C 97 % 1018,1 hPa 0,0 l/m 0,0 km/h (0 Bft) S 179 0 min 0,000 mm 0,0 UV-I 57 W/m 11,0 C 11,5 C 0,0 km/h (0 Bft) 97,37 %
21.10.2017 12:54 11,5 C 11,7 C 97 % 1018,0 hPa 0,0 l/m 0,0 km/h (0 Bft) S 179 0 min 0,000 mm 0,0 UV-I 64 W/m 11,0 C 11,5 C 1,6 km/h (1 Bft) 98,00 %
21.10.2017 12:56 11,5 C 11,7 C 97 % 1018,0 hPa 0,0 l/m 0,5 km/h (0 Bft) S 179 0 min 0,000 mm 0,0 UV-I 61 W/m 11,0 C 11,5 C 3,2 km/h (1 Bft) 97,87 %
21.10.2017 12:58 11,6 C 11,7 C 97 % 1018,0 hPa 0,0 l/m 1,3 km/h (1 Bft) S 179 0 min 0,000 mm 0,0 UV-I 52 W/m 11,1 C 11,6 C 3,2 km/h (1 Bft) 94,00 %
21.10.2017 13:00 11,6 C 11,7 C 97 % 1018,0 hPa 0,0 l/m 3,1 km/h (1 Bft) S 175 0 min 0,025 mm 0,0 UV-I 49 W/m 11,1 C 11,6 C 4,8 km/h (1 Bft) 94,74 %
21.10.2017 13:02 11,6 C 11,7 C 97 % 1017,9 hPa 0,0 l/m 2,4 km/h (1 Bft) S 176 0 min 0,000 mm 0,0 UV-I 54 W/m 11,1 C 11,6 C 4,8 km/h (1 Bft) 97,87 %
21.10.2017 13:04 11,6 C 11,7 C 97 % 1017,9 hPa 0,0 l/m 0,6 km/h (0 Bft) S 175 0 min 0,000 mm 0,0 UV-I 57 W/m 11,1 C 11,6 C 3,2 km/h (1 Bft) 93,62 %
21.10.2017 13:06 11,7 C 11,7 C 97 % 1017,9 hPa 0,0 l/m 1,5 km/h (1 Bft) S 176 0 min 0,000 mm 0,0 UV-I 49 W/m 11,2 C 11,7 C 4,8 km/h (1 Bft) 98,00 %
21.10.2017 13:08 11,7 C 11,7 C 97 % 1017,9 hPa 0,0 l/m 1,3 km/h (1 Bft) S 177 0 min 0,000 mm 0,0 UV-I 40 W/m 11,2 C 11,7 C 4,8 km/h (1 Bft) 97,87 %
21.10.2017 13:10 11,7 C 11,7 C 97 % 1017,9 hPa 0,0 l/m 4,0 km/h (1 Bft) S-SW 198 0 min 0,000 mm 0,0 UV-I 45 W/m 11,2 C 11,7 C 6,4 km/h (2 Bft) 98,00 %
21.10.2017 13:12 11,7 C 11,7 C 97 % 1017,9 hPa 0,0 l/m 1,9 km/h (1 Bft) S-SW 198 0 min 0,000 mm 0,0 UV-I 52 W/m 11,2 C 11,7 C 3,2 km/h (1 Bft) 98,00 %
21.10.2017 13:14 11,8 C 11,7 C 97 % 1017,9 hPa 0,0 l/m 2,9 km/h (1 Bft) S-SW 198 0 min 0,000 mm 0,0 UV-I 61 W/m 11,3 C 11,8 C 4,8 km/h (1 Bft) 97,37 %
21.10.2017 13:16 11,7 C 11,7 C 97 % 1017,8 hPa 0,0 l/m 1,8 km/h (1 Bft) S-SW 198 0 min 0,000 mm 0,0 UV-I 66 W/m 11,2 C 11,7 C 4,8 km/h (1 Bft) 96,00 %
21.10.2017 13:18 11,8 C 11,7 C 97 % 1017,8 hPa 0,0 l/m 1,6 km/h (1 Bft) S-SW 198 0 min 0,000 mm 0,0 UV-I 78 W/m 11,3 C 11,8 C 3,2 km/h (1 Bft) 98,00 %
21.10.2017 13:20 11,9 C 11,7 C 97 % 1017,7 hPa 0,0 l/m 3,0 km/h (1 Bft) S-SW 198 0 min 0,000 mm 0,0 UV-I 70 W/m 11,4 C 11,9 C 4,8 km/h (1 Bft) 98,00 %
21.10.2017 13:22 11,9 C 11,7 C 97 % 1017,7 hPa 0,0 l/m 3,0 km/h (1 Bft) S-SW 198 0 min 0,000 mm 0,0 UV-I 70 W/m 11,4 C 11,9 C 4,8 km/h (1 Bft) 97,87 %
21.10.2017 13:24 12,0 C 11,7 C 97 % 1017,7 hPa 0,0 l/m 1,0 km/h (0 Bft) S-SW 198 0 min 0,000 mm 0,3 UV-I 84 W/m 11,5 C 12,0 C 3,2 km/h (1 Bft) 97,44 %
21.10.2017 13:26 12,1 C 11,7 C 97 % 1017,7 hPa 0,0 l/m 2,1 km/h (1 Bft) S-SW 197 0 min 0,000 mm 0,5 UV-I 91 W/m 11,6 C 12,1 C 4,8 km/h (1 Bft) 97,87 %
21.10.2017 13:28 12,2 C 11,7 C 97 % 1017,7 hPa 0,0 l/m 2,5 km/h (1 Bft) S-SW 198 0 min 0,000 mm 0,6 UV-I 103 W/m 11,7 C 12,2 C 4,8 km/h (1 Bft) 97,73 %
21.10.2017 13:30 12,2 C 11,7 C 97 % 1017,7 hPa 0,0 l/m 3,8 km/h (1 Bft) S-SW 213 0 min 0,000 mm 0,5 UV-I 103 W/m 11,7 C 12,2 C 4,8 km/h (1 Bft) 96,00 %
21.10.2017 13:32 12,3 C 11,7 C 97 % 1017,6 hPa 0,0 l/m 3,6 km/h (1 Bft) S-SW 211 0 min 0,000 mm 0,3 UV-I 91 W/m 11,8 C 12,3 C 6,4 km/h (2 Bft) 98,11 %
21.10.2017 13:34 12,3 C 11,7 C 97 % 1017,6 hPa 0,0 l/m 2,6 km/h (1 Bft) S-SO 163 0 min 0,000 mm 0,0 UV-I 78 W/m 11,8 C 12,3 C 6,4 km/h (2 Bft) 95,65 %
21.10.2017 13:36 12,4 C 11,7 C 97 % 1017,6 hPa 0,0 l/m 2,6 km/h (1 Bft) S 171 0 min 0,000 mm 0,0 UV-I 76 W/m 11,9 C 12,4 C 4,8 km/h (1 Bft) 98,46 %
21.10.2017 13:38 12,4 C 11,7 C 97 % 1017,6 hPa 0,0 l/m 3,4 km/h (1 Bft) S 186 0 min 0,000 mm 0,0 UV-I 81 W/m 11,9 C 12,4 C 6,4 km/h (2 Bft) 97,73 %
21.10.2017 13:40 12,5 C 11,7 C 97 % 1017,6 hPa 0,0 l/m 3,8 km/h (1 Bft) S 188 0 min 0,000 mm 0,0 UV-I 89 W/m 12,0 C 12,5 C 6,4 km/h (2 Bft) 96,23 %
21.10.2017 13:42 12,6 C 11,7 C 96 % 1017,6 hPa 0,0 l/m 2,4 km/h (1 Bft) S 171 0 min 0,000 mm 0,0 UV-I 90 W/m 12,0 C 12,6 C 6,4 km/h (2 Bft) 95,12 %
21.10.2017 13:44 12,6 C 11,7 C 96 % 1017,6 hPa 0,0 l/m 2,2 km/h (1 Bft) S 180 0 min 0,000 mm 0,2 UV-I 93 W/m 12,0 C 12,6 C 4,8 km/h (1 Bft) 97,87 %
21.10.2017 13:46 12,7 C 11,7 C 96 % 1017,5 hPa 0,0 l/m 2,5 km/h (1 Bft) S 176 0 min 0,000 mm 0,5 UV-I 106 W/m 12,1 C 12,7 C 6,4 km/h (2 Bft) 94,74 %
21.10.2017 13:48 12,8 C 11,7 C 96 % 1017,5 hPa 0,0 l/m 1,6 km/h (1 Bft) S 177 0 min 0,000 mm 0,5 UV-I 106 W/m 12,2 C 12,8 C 4,8 km/h (1 Bft) 98,21 %
21.10.2017 13:50 12,8 C 11,7 C 96 % 1017,5 hPa 0,0 l/m 1,1 km/h (1 Bft) S 177 0 min 0,000 mm 0,6 UV-I 115 W/m 12,2 C 12,8 C 3,2 km/h (1 Bft) 98,00 %
21.10.2017 13:52 12,9 C 11,7 C 96 % 1017,5 hPa 0,0 l/m 2,3 km/h (1 Bft) S 187 0 min 0,000 mm 0,6 UV-I 111 W/m 12,3 C 12,9 C 4,8 km/h (1 Bft) 97,37 %
21.10.2017 13:54 13,0 C 11,7 C 96 % 1017,3 hPa 0,0 l/m 2,0 km/h (1 Bft) S 186 0 min 0,000 mm 0,5 UV-I 95 W/m 12,4 C 13,0 C 4,8 km/h (1 Bft) 98,11 %
21.10.2017 13:56 13,1 C 11,7 C 96 % 1017,4 hPa 0,0 l/m 2,2 km/h (1 Bft) S-SW 197 0 min 0,000 mm 0,3 UV-I 89 W/m 12,5 C 13,1 C 4,8 km/h (1 Bft) 96,00 %
21.10.2017 13:58 13,1 C 11,7 C 96 % 1017,4 hPa 0,0 l/m 4,1 km/h (1 Bft) S-SW 196 0 min 0,000 mm 0,0 UV-I 76 W/m 12,5 C 13,1 C 6,4 km/h (2 Bft) 96,00 %
21.10.2017 14:00 13,1 C 11,7 C 95 % 1017,4 hPa 0,0 l/m 3,0 km/h (1 Bft) S-SW 201 0 min 0,051 mm 0,0 UV-I 72 W/m 12,3 C 13,1 C 6,4 km/h (2 Bft) 97,44 %
21.10.2017 14:02 13,2 C 11,7 C 95 % 1017,5 hPa 0,0 l/m 1,4 km/h (1 Bft) S-SW 201 0 min 0,000 mm 0,0 UV-I 72 W/m 12,4 C 13,2 C 3,2 km/h (1 Bft) 94,00 %
21.10.2017 14:04 13,2 C 11,7 C 95 % 1017,5 hPa 0,0 l/m 0,7 km/h (0 Bft) S-SW 201 0 min 0,000 mm 0,0 UV-I 85 W/m 12,4 C 13,2 C 3,2 km/h (1 Bft) 100,00 %
21.10.2017 14:06 13,3 C 11,7 C 95 % 1017,4 hPa 0,0 l/m 1,3 km/h (1 Bft) S-SW 201 0 min 0,000 mm 0,6 UV-I 113 W/m 12,5 C 13,3 C 3,2 km/h (1 Bft) 100,00 %
21.10.2017 14:08 13,3 C 11,7 C 95 % 1017,4 hPa 0,0 l/m 1,0 km/h (0 Bft) S-SW 200 0 min 0,000 mm 0,6 UV-I 117 W/m 12,5 C 13,3 C 6,4 km/h (2 Bft) 98,11 %
21.10.2017 14:10 13,4 C 11,7 C 95 % 1017,3 hPa 0,0 l/m 0,2 km/h (0 Bft) S-SW 200 0 min 0,000 mm 0,6 UV-I 122 W/m 12,6 C 13,4 C 1,6 km/h (1 Bft) 100,00 %
21.10.2017 14:12 13,4 C 11,7 C 94 % 1017,3 hPa 0,0 l/m 0,1 km/h (0 Bft) S-SW 200 0 min 0,000 mm 0,3 UV-I 101 W/m 12,5 C 13,4 C 1,6 km/h (1 Bft) 100,00 %
21.10.2017 14:14 13,4 C 11,7 C 94 % 1017,2 hPa 0,0 l/m 0,7 km/h (0 Bft) S-SW 200 0 min 0,000 mm 0,2 UV-I 94 W/m 12,5 C 13,4 C 3,2 km/h (1 Bft) 100,00 %
21.10.2017 14:16 13,5 C 11,7 C 94 % 1017,3 hPa 0,0 l/m 0,4 km/h (0 Bft) S-SW 200 0 min 0,000 mm 0,5 UV-I 105 W/m 12,6 C 13,5 C 1,6 km/h (1 Bft) 97,87 %
21.10.2017 14:18 13,6 C 11,7 C 94 % 1017,2 hPa 0,0 l/m 0,1 km/h (0 Bft) S-SW 200 0 min 0,000 mm 0,5 UV-I 113 W/m 12,7 C 13,6 C 1,6 km/h (1 Bft) 100,00 %
21.10.2017 14:21 13,7 C 11,7 C 94 % 1017,2 hPa 0,0 l/m 0,0 km/h (0 Bft) S-SW 200 0 min 0,000 mm 0,6 UV-I 123 W/m 12,8 C 13,7 C 0,0 km/h (0 Bft) 100,00 %
21.10.2017 14:22 13,8 C 11,7 C 95 % 1017,3 hPa 0,0 l/m 0,0 km/h (0 Bft) S-SW 200 0 min 0,000 mm 0,5 UV-I 112 W/m 13,0 C 13,8 C 0,0 km/h (0 Bft) 100,00 %
21.10.2017 14:24 13,8 C 11,7 C 94 % 1017,3 hPa 0,0 l/m 0,0 km/h (0 Bft) S-SW 200 0 min 0,000 mm 0,5 UV-I 104 W/m 12,9 C 13,8 C 0,0 km/h (0 Bft) 100,00 %
21.10.2017 14:26 13,8 C 11,7 C 94 % 1017,2 hPa 0,0 l/m 0,0 km/h (0 Bft) S-SW 200 0 min 0,000 mm 0,5 UV-I 107 W/m 12,9 C 13,8 C 0,0 km/h (0 Bft) 100,00 %
21.10.2017 14:28 13,9 C 11,7 C 94 % 1017,2 hPa 0,0 l/m 0,0 km/h (0 Bft) S-SW 200 0 min 0,000 mm 0,6 UV-I 122 W/m 12,9 C 13,9 C 0,0 km/h (0 Bft) 97,87 %
21.10.2017 14:30 13,9 C 11,7 C 93 % 1017,1 hPa 0,0 l/m 0,0 km/h (0 Bft) S-SW 200 0 min 0,000 mm 0,6 UV-I 120 W/m 12,8 C 13,9 C 0,0 km/h (0 Bft) 100,00 %
21.10.2017 14:32 14,0 C 11,7 C 93 % 1017,1 hPa 0,0 l/m 0,0 km/h (0 Bft) S-SW 200 0 min 0,000 mm 0,5 UV-I 112 W/m 12,9 C 14,0 C 0,0 km/h (0 Bft) 96,00 %
21.10.2017 14:34 14,1 C 11,7 C 93 % 1017,1 hPa 0,0 l/m 0,0 km/h (0 Bft) S-SW 200 0 min 0,000 mm 0,6 UV-I 111 W/m 13,0 C 14,1 C 0,0 km/h (0 Bft) 97,87 %
21.10.2017 14:36 14,2 C 11,7 C 94 % 1017,1 hPa 0,0 l/m 0,0 km/h (0 Bft) S-SW 200 0 min 0,000 mm 0,7 UV-I 133 W/m 13,2 C 14,2 C 0,0 km/h (0 Bft) 98,11 %
21.10.2017 14:38 14,3 C 11,7 C 94 % 1017,1 hPa 0,0 l/m 0,4 km/h (0 Bft) S-SW 200 0 min 0,000 mm 0,8 UV-I 168 W/m 13,3 C 14,3 C 1,6 km/h (1 Bft) 100,00 %
21.10.2017 14:40 14,4 C 11,7 C 94 % 1017,1 hPa 0,0 l/m 1,9 km/h (1 Bft) S-SW 200 0 min 0,000 mm 0,8 UV-I 162 W/m 13,4 C 14,4 C 3,2 km/h (1 Bft) 100,00 %
21.10.2017 14:42 14,4 C 11,7 C 94 % 1017,0 hPa 0,0 l/m 2,8 km/h (1 Bft) N-NO 22 0 min 0,000 mm 0,7 UV-I 140 W/m 13,4 C 14,4 C 4,8 km/h (1 Bft) 100,00 %
21.10.2017 14:44 14,3 C 11,7 C 94 % 1017,1 hPa 0,0 l/m 5,4 km/h (1 Bft) N-NO 30 0 min 0,000 mm 0,7 UV-I 166 W/m 13,3 C 14,3 C 6,4 km/h (2 Bft) 100,00 %
21.10.2017 14:46 14,2 C 11,7 C 94 % 1017,1 hPa 0,0 l/m 5,0 km/h (1 Bft) N-NO 30 0 min 0,000 mm 0,8 UV-I 184 W/m 13,2 C 14,2 C 6,4 km/h (2 Bft) 100,00 %
21.10.2017 14:48 14,1 C 11,7 C 94 % 1017,1 hPa 0,0 l/m 3,3 km/h (1 Bft) N-NO 30 0 min 0,000 mm 0,8 UV-I 169 W/m 13,1 C 14,1 C 4,8 km/h (1 Bft) 100,00 %
21.10.2017 14:50 14,1 C 11,7 C 94 % 1017,0 hPa 0,0 l/m 2,7 km/h (1 Bft) N-NO 30 0 min 0,000 mm 0,7 UV-I 159 W/m 13,1 C 14,1 C 4,8 km/h (1 Bft) 100,00 %
21.10.2017 14:52 14,1 C 11,7 C 94 % 1017,0 hPa 0,0 l/m 2,5 km/h (1 Bft) N-NO 30 0 min 0,000 mm 0,7 UV-I 164 W/m 13,1 C 14,1 C 3,2 km/h (1 Bft) 100,00 %
21.10.2017 14:54 14,0 C 11,7 C 94 % 1017,0 hPa 0,0 l/m 2,1 km/h (1 Bft) N-NO 30 0 min 0,000 mm 0,6 UV-I 156 W/m 13,0 C 14,0 C 3,2 km/h (1 Bft) 100,00 %
21.10.2017 14:56 14,1 C 11,7 C 94 % 1017,0 hPa 0,0 l/m 2,2 km/h (1 Bft) N-NO 30 0 min 0,000 mm 0,6 UV-I 148 W/m 13,1 C 14,1 C 4,8 km/h (1 Bft) 100,00 %
21.10.2017 14:58 14,1 C 11,7 C 94 % 1017,0 hPa 0,0 l/m 2,2 km/h (1 Bft) N-NO 30 0 min 0,000 mm 0,6 UV-I 128 W/m 13,1 C 14,1 C 3,2 km/h (1 Bft) 100,00 %
21.10.2017 15:00 14,1 C 11,7 C 94 % 1017,0 hPa 0,0 l/m 1,8 km/h (1 Bft) N-NO 30 0 min 0,076 mm 0,6 UV-I 152 W/m 13,1 C 14,1 C 3,2 km/h (1 Bft) 93,62 %
21.10.2017 15:02 14,1 C 11,7 C 94 % 1017,0 hPa 0,0 l/m 1,5 km/h (1 Bft) N-NO 30 2 min 0,000 mm 0,6 UV-I 226 W/m 13,1 C 14,1 C 3,2 km/h (1 Bft) 100,00 %
21.10.2017 15:04 14,3 C 11,7 C 94 % 1017,0 hPa 0,0 l/m 1,1 km/h (1 Bft) N-NO 30 0 min 0,000 mm 0,6 UV-I 188 W/m 13,3 C 14,3 C 3,2 km/h (1 Bft) 98,00 %
21.10.2017 15:06 14,3 C 11,7 C 94 % 1016,9 hPa 0,0 l/m 1,6 km/h (1 Bft) N-NO 30 0 min 0,000 mm 0,7 UV-I 195 W/m 13,3 C 14,3 C 3,2 km/h (1 Bft) 100,00 %
21.10.2017 15:08 14,4 C 11,7 C 94 % 1016,9 hPa 0,0 l/m 1,4 km/h (1 Bft) N-NO 30 0 min 0,000 mm 0,7 UV-I 161 W/m 13,4 C 14,4 C 3,2 km/h (1 Bft) 100,00 %
21.10.2017 15:10 14,4 C 11,7 C 94 % 1016,9 hPa 0,0 l/m 1,6 km/h (1 Bft) NO 35 0 min 0,000 mm 0,7 UV-I 165 W/m 13,4 C 14,4 C 3,2 km/h (1 Bft) 100,00 %
21.10.2017 15:12 14,6 C 11,7 C 94 % 1016,8 hPa 0,0 l/m 2,1 km/h (1 Bft) NO 36 0 min 0,000 mm 0,8 UV-I 180 W/m 13,6 C 14,6 C 3,2 km/h (1 Bft) 100,00 %
21.10.2017 15:14 14,6 C 11,7 C 94 % 1016,8 hPa 0,0 l/m 2,8 km/h (1 Bft) NO 36 0 min 0,000 mm 0,8 UV-I 185 W/m 13,6 C 14,6 C 3,2 km/h (1 Bft) 100,00 %
21.10.2017 15:16 14,7 C 11,7 C 94 % 1016,9 hPa 0,0 l/m 2,5 km/h (1 Bft) NO 36 0 min 0,000 mm 0,7 UV-I 165 W/m 13,7 C 14,7 C 3,2 km/h (1 Bft) 98,08 %
21.10.2017 15:18 14,7 C 11,7 C 94 % 1016,8 hPa 0,0 l/m 3,2 km/h (1 Bft) NO 36 0 min 0,000 mm 0,7 UV-I 140 W/m 13,7 C 14,7 C 4,8 km/h (1 Bft) 100,00 %
21.10.2017 15:20 14,7 C 11,7 C 94 % 1016,8 hPa 0,0 l/m 4,2 km/h (1 Bft) NO 40 0 min 0,000 mm 0,7 UV-I 149 W/m 13,7 C 14,7 C 6,4 km/h (2 Bft) 100,00 %
21.10.2017 15:22 14,6 C 11,7 C 93 % 1016,8 hPa 0,0 l/m 4,4 km/h (1 Bft) NO 40 0 min 0,000 mm 0,7 UV-I 161 W/m 13,5 C 14,6 C 6,4 km/h (2 Bft) 100,00 %
21.10.2017 15:24 14,7 C 11,7 C 94 % 1016,7 hPa 0,0 l/m 4,4 km/h (1 Bft) NO 40 0 min 0,000 mm 0,7 UV-I 174 W/m 13,7 C 14,7 C 6,4 km/h (2 Bft) 97,37 %
21.10.2017 15:26 14,7 C 11,7 C 93 % 1016,7 hPa 0,0 l/m 6,0 km/h (2 Bft) NO 34 0 min 0,000 mm 0,7 UV-I 187 W/m 13,6 C 14,7 C 8,0 km/h (2 Bft) 96,00 %
21.10.2017 15:28 14,7 C 11,7 C 94 % 1016,7 hPa 0,0 l/m 5,6 km/h (1 Bft) NO 36 2 min 0,000 mm 0,7 UV-I 244 W/m 13,7 C 14,7 C 8,0 km/h (2 Bft) 95,74 %
21.10.2017 15:30 14,8 C 11,7 C 94 % 1016,8 hPa 0,0 l/m 5,0 km/h (1 Bft) N-NO 32 2 min 0,000 mm 0,8 UV-I 296 W/m 13,8 C 14,8 C 6,4 km/h (2 Bft) 96,00 %
21.10.2017 15:32 14,9 C 11,7 C 94 % 1016,7 hPa 0,0 l/m 4,9 km/h (1 Bft) NO 53 2 min 0,000 mm 0,7 UV-I 286 W/m 13,9 C 14,9 C 6,4 km/h (2 Bft) 94,00 %
21.10.2017 15:34 14,9 C 11,7 C 94 % 1016,7 hPa 0,0 l/m 6,3 km/h (2 Bft) NO 40 2 min 0,000 mm 0,7 UV-I 285 W/m 13,9 C 14,9 C 8,0 km/h (2 Bft) 97,56 %
21.10.2017 15:36 15,0 C 11,7 C 94 % 1016,7 hPa 0,0 l/m 5,9 km/h (2 Bft) NO 41 2 min 0,000 mm 0,7 UV-I 277 W/m 14,0 C 15,0 C 8,0 km/h (2 Bft) 98,00 %
21.10.2017 15:38 15,1 C 11,7 C 94 % 1016,7 hPa 0,0 l/m 5,5 km/h (1 Bft) NO 44 2 min 0,000 mm 0,6 UV-I 248 W/m 14,1 C 15,1 C 8,0 km/h (2 Bft) 97,56 %
21.10.2017 15:40 15,1 C 11,7 C 93 % 1016,7 hPa 0,0 l/m 5,2 km/h (1 Bft) NO 49 2 min 0,000 mm 0,6 UV-I 229 W/m 14,0 C 15,1 C 6,4 km/h (2 Bft) 97,87 %
21.10.2017 15:42 15,0 C 11,7 C 93 % 1016,7 hPa 0,0 l/m 5,5 km/h (1 Bft) NO 35 2 min 0,000 mm 0,6 UV-I 202 W/m 13,9 C 15,0 C 8,0 km/h (2 Bft) 96,00 %
21.10.2017 15:44 15,0 C 11,7 C 93 % 1016,6 hPa 0,0 l/m 5,6 km/h (1 Bft) N-NO 16 2 min 0,000 mm 0,6 UV-I 220 W/m 13,9 C 15,0 C 8,0 km/h (2 Bft) 96,00 %
21.10.2017 15:46 14,9 C 11,7 C 93 % 1016,6 hPa 0,0 l/m 6,1 km/h (2 Bft) N-NO 31 2 min 0,000 mm 0,6 UV-I 183 W/m 13,8 C 14,9 C 8,0 km/h (2 Bft) 97,56 %
21.10.2017 15:48 14,9 C 11,7 C 93 % 1016,6 hPa 0,0 l/m 4,9 km/h (1 Bft) NO 44 0 min 0,000 mm 0,6 UV-I 161 W/m 13,8 C 14,9 C 8,0 km/h (2 Bft) 98,11 %
21.10.2017 15:50 14,9 C 11,7 C 93 % 1016,6 hPa 0,0 l/m 3,9 km/h (1 Bft) NO 34 0 min 0,000 mm 0,5 UV-I 176 W/m 13,8 C 14,9 C 6,4 km/h (2 Bft) 95,12 %
21.10.2017 15:52 14,9 C 11,7 C 93 % 1016,5 hPa 0,0 l/m 3,8 km/h (1 Bft) NO 38 2 min 0,000 mm 0,5 UV-I 190 W/m 13,8 C 14,9 C 4,8 km/h (1 Bft) 98,11 %
21.10.2017 15:54 14,9 C 11,7 C 93 % 1016,5 hPa 0,0 l/m 4,3 km/h (1 Bft) NO 47 0 min 0,000 mm 0,5 UV-I 158 W/m 13,8 C 14,9 C 6,4 km/h (2 Bft) 97,22 %
21.10.2017 15:56 14,9 C 11,7 C 93 % 1016,4 hPa 0,0 l/m 4,5 km/h (1 Bft) NO 53 0 min 0,000 mm 0,5 UV-I 154 W/m 13,8 C 14,9 C 6,4 km/h (2 Bft) 98,28 %
21.10.2017 15:58 14,8 C 11,7 C 93 % 1016,5 hPa 0,2 l/m 3,5 km/h (1 Bft) NO 51 0 min 0,000 mm 0,5 UV-I 141 W/m 13,7 C 14,8 C 4,8 km/h (1 Bft) 97,87 %
21.10.2017 16:00 14,8 C 11,7 C 93 % 1016,5 hPa 0,0 l/m 3,0 km/h (1 Bft) NO 51 0 min 0,000 mm 0,5 UV-I 147 W/m 13,7 C 14,8 C 6,4 km/h (2 Bft) 100,00 %
21.10.2017 16:02 14,8 C 11,7 C 93 % 1016,5 hPa 0,0 l/m 4,3 km/h (1 Bft) O-NO 57 0 min 0,102 mm 0,5 UV-I 162 W/m 13,7 C 14,8 C 6,4 km/h (2 Bft) 100,00 %
21.10.2017 16:04 14,7 C 11,7 C 93 % 1016,5 hPa 0,0 l/m 4,6 km/h (1 Bft) NO 53 0 min 0,000 mm 0,1 UV-I 151 W/m 13,6 C 14,7 C 6,4 km/h (2 Bft) 100,00 %
21.10.2017 16:06 14,7 C 11,7 C 93 % 1016,5 hPa 0,0 l/m 3,5 km/h (1 Bft) NO 50 0 min 0,000 mm 0,0 UV-I 135 W/m 13,6 C 14,7 C 4,8 km/h (1 Bft) 97,73 %
21.10.2017 16:08 14,7 C 11,7 C 93 % 1016,5 hPa 0,0 l/m 4,5 km/h (1 Bft) N-NO 26 0 min 0,000 mm 0,0 UV-I 122 W/m 13,6 C 14,7 C 8,0 km/h (2 Bft) 97,56 %
21.10.2017 16:10 14,7 C 11,7 C 93 % 1016,5 hPa 0,0 l/m 5,5 km/h (1 Bft) N-NO 25 0 min 0,000 mm 0,0 UV-I 107 W/m 13,6 C 14,7 C 8,0 km/h (2 Bft) 98,00 %
21.10.2017 16:12 14,6 C 11,7 C 93 % 1016,5 hPa 0,0 l/m 5,5 km/h (1 Bft) NO 34 0 min 0,000 mm 0,0 UV-I 104 W/m 13,5 C 14,6 C 8,0 km/h (2 Bft) 100,00 %
21.10.2017 16:14 14,5 C 11,7 C 94 % 1016,5 hPa 0,0 l/m 1,5 km/h (1 Bft) N-NO 26 0 min 0,000 mm 0,0 UV-I 99 W/m 13,5 C 14,5 C 4,8 km/h (1 Bft) 100,00 %
21.10.2017 16:16 14,3 C 11,7 C 93 % 1016,5 hPa 0,0 l/m 0,9 km/h (0 Bft) N-NO 22 0 min 0,000 mm 0,0 UV-I 94 W/m 13,2 C 14,3 C 3,2 km/h (1 Bft) 100,00 %
21.10.2017 16:18 14,2 C 11,7 C 94 % 1016,4 hPa 0,0 l/m 1,1 km/h (1 Bft) N-NO 18 0 min 0,000 mm 0,0 UV-I 94 W/m 13,2 C 14,2 C 3,2 km/h (1 Bft) 100,00 %
21.10.2017 16:20 14,2 C 11,7 C 94 % 1016,5 hPa 0,0 l/m 5,1 km/h (1 Bft) NO 38 0 min 0,000 mm 0,0 UV-I 113 W/m 13,2 C 14,2 C 6,4 km/h (2 Bft) 97,87 %
21.10.2017 16:22 14,1 C 11,7 C 94 % 1016,5 hPa 0,0 l/m 3,2 km/h (1 Bft) N-NO 26 2 min 0,000 mm 0,0 UV-I 150 W/m 13,1 C 14,1 C 4,8 km/h (1 Bft) 100,00 %
21.10.2017 16:24 14,1 C 11,7 C 94 % 1016,4 hPa 0,0 l/m 2,2 km/h (1 Bft) N 5 2 min 0,000 mm 0,0 UV-I 167 W/m 13,1 C 14,1 C 6,4 km/h (2 Bft) 100,00 %
21.10.2017 16:26 14,1 C 11,7 C 94 % 1016,5 hPa 0,0 l/m 6,3 km/h (2 Bft) N-NO 26 2 min 0,000 mm 0,0 UV-I 149 W/m 13,1 C 14,1 C 8,0 km/h (2 Bft) 100,00 %
21.10.2017 16:28 14,1 C 11,7 C 94 % 1016,5 hPa 0,0 l/m 3,0 km/h (1 Bft) N-NO 23 2 min 0,000 mm 0,0 UV-I 150 W/m 13,1 C 14,1 C 6,4 km/h (2 Bft) 100,00 %
21.10.2017 16:30 14,1 C 11,7 C 94 % 1016,5 hPa 0,0 l/m 4,1 km/h (1 Bft) NO 40 2 min 0,000 mm 0,0 UV-I 156 W/m 13,1 C 14,1 C 6,4 km/h (2 Bft) 100,00 %
21.10.2017 16:32 14,1 C 11,7 C 94 % 1016,5 hPa 0,0 l/m 2,7 km/h (1 Bft) N-NO 27 2 min 0,000 mm 0,0 UV-I 164 W/m 13,1 C 14,1 C 6,4 km/h (2 Bft) 100,00 %
21.10.2017 16:34 14,1 C 11,7 C 95 % 1016,5 hPa 0,0 l/m 5,4 km/h (1 Bft) N-NO 30 2 min 0,000 mm 0,0 UV-I 169 W/m 13,3 C 14,1 C 8,0 km/h (2 Bft) 100,00 %
21.10.2017 16:36 14,2 C 11,7 C 95 % 1016,5 hPa 0,0 l/m 4,3 km/h (1 Bft) NO 56 2 min 0,000 mm 0,0 UV-I 156 W/m 13,4 C 14,2 C 6,4 km/h (2 Bft) 98,00 %
21.10.2017 16:38 14,2 C 11,7 C 94 % 1016,5 hPa 0,0 l/m 4,9 km/h (1 Bft) O-NO 67 2 min 0,000 mm 0,0 UV-I 166 W/m 13,2 C 14,2 C 8,0 km/h (2 Bft) 100,00 %
21.10.2017 16:40 14,2 C 11,7 C 94 % 1016,5 hPa 0,0 l/m 3,3 km/h (1 Bft) NO 44 2 min 0,000 mm 0,0 UV-I 170 W/m 13,2 C 14,2 C 4,8 km/h (1 Bft) 100,00 %
21.10.2017 16:42 14,3 C 11,7 C 94 % 1016,4 hPa 0,0 l/m 6,3 km/h (2 Bft) NO 48 2 min 0,000 mm 0,0 UV-I 175 W/m 13,3 C 14,3 C 8,0 km/h (2 Bft) 100,00 %
21.10.2017 16:44 14,3 C 11,7 C 93 % 1016,4 hPa 0,0 l/m 5,2 km/h (1 Bft) O-NO 78 2 min 0,000 mm 0,0 UV-I 179 W/m 13,2 C 14,3 C 6,4 km/h (2 Bft) 100,00 %
21.10.2017 16:46 14,3 C 11,7 C 93 % 1016,5 hPa 0,0 l/m 4,5 km/h (1 Bft) NO 56 2 min 0,000 mm 0,0 UV-I 183 W/m 13,2 C 14,3 C 6,4 km/h (2 Bft) 100,00 %
21.10.2017 16:48 14,3 C 11,7 C 93 % 1016,5 hPa 0,0 l/m 3,2 km/h (1 Bft) O-NO 57 2 min 0,000 mm 0,0 UV-I 178 W/m 13,2 C 14,3 C 4,8 km/h (1 Bft) 100,00 %
21.10.2017 16:50 14,3 C 11,7 C 93 % 1016,4 hPa 0,0 l/m 3,5 km/h (1 Bft) NO 55 2 min 0,000 mm 0,0 UV-I 158 W/m 13,2 C 14,3 C 6,4 km/h (2 Bft) 97,96 %
21.10.2017 16:52 14,3 C 11,7 C 93 % 1016,5 hPa 0,0 l/m 6,5 km/h (2 Bft) O-NO 70 2 min 0,000 mm 0,0 UV-I 126 W/m 13,2 C 14,3 C 9,7 km/h (2 Bft) 100,00 %
21.10.2017 16:54 14,2 C 11,7 C 93 % 1016,5 hPa 0,0 l/m 5,7 km/h (1 Bft) NO 51 2 min 0,000 mm 0,0 UV-I 107 W/m 13,1 C 14,2 C 8,0 km/h (2 Bft) 100,00 %
21.10.2017 16:56 14,2 C 11,7 C 92 % 1016,5 hPa 0,0 l/m 5,8 km/h (2 Bft) NO 42 2 min 0,000 mm 0,0 UV-I 99 W/m 12,9 C 14,2 C 6,4 km/h (2 Bft) 100,00 %
21.10.2017 16:58 14,2 C 11,7 C 92 % 1016,5 hPa 0,0 l/m 4,3 km/h (1 Bft) N-NO 29 2 min 0,000 mm 0,0 UV-I 98 W/m 12,9 C 14,2 C 6,4 km/h (2 Bft) 100,00 %
21.10.2017 17:00 14,1 C 11,7 C 93 % 1016,5 hPa 0,0 l/m 3,9 km/h (1 Bft) N-NO 25 0 min 0,076 mm 0,0 UV-I 87 W/m 13,0 C 14,1 C 8,0 km/h (2 Bft) 97,56 %
21.10.2017 17:02 14,1 C 11,7 C 93 % 1016,5 hPa 0,0 l/m 6,8 km/h (2 Bft) N-NO 29 2 min 0,000 mm 0,0 UV-I 92 W/m 13,0 C 13,9 C 12,9 km/h (3 Bft) 97,73 %
21.10.2017 17:04 13,9 C 11,7 C 93 % 1016,5 hPa 0,0 l/m 6,2 km/h (2 Bft) NO 39 2 min 0,000 mm 0,0 UV-I 93 W/m 12,8 C 13,9 C 8,0 km/h (2 Bft) 96,61 %
21.10.2017 17:06 13,9 C 11,7 C 93 % 1016,5 hPa 0,0 l/m 4,5 km/h (1 Bft) N-NO 29 2 min 0,000 mm 0,0 UV-I 92 W/m 12,8 C 13,9 C 8,0 km/h (2 Bft) 94,74 %
21.10.2017 17:08 13,8 C 11,7 C 93 % 1016,5 hPa 0,0 l/m 3,5 km/h (1 Bft) NO 45 2 min 0,000 mm 0,0 UV-I 96 W/m 12,7 C 13,8 C 6,4 km/h (2 Bft) 98,00 %
21.10.2017 17:10 13,8 C 11,7 C 94 % 1016,5 hPa 0,0 l/m 4,2 km/h (1 Bft) NO 45 2 min 0,000 mm 0,0 UV-I 89 W/m 12,9 C 13,8 C 6,4 km/h (2 Bft) 97,87 %
21.10.2017 17:12 13,8 C 11,7 C 94 % 1016,4 hPa 0,0 l/m 4,4 km/h (1 Bft) O-NO 57 2 min 0,000 mm 0,0 UV-I 74 W/m 12,9 C 13,8 C 6,4 km/h (2 Bft) 97,87 %
21.10.2017 17:14 13,8 C 11,7 C 94 % 1016,4 hPa 0,0 l/m 4,1 km/h (1 Bft) O-NO 58 0 min 0,000 mm 0,0 UV-I 66 W/m 12,9 C 13,8 C 6,4 km/h (2 Bft) 98,00 %
21.10.2017 17:16 13,8 C 11,7 C 94 % 1016,4 hPa 0,0 l/m 2,7 km/h (1 Bft) O-NO 58 2 min 0,000 mm 0,0 UV-I 72 W/m 12,9 C 13,8 C 4,8 km/h (1 Bft) 96,30 %
21.10.2017 17:18 13,8 C 11,7 C 94 % 1016,5 hPa 0,0 l/m 2,9 km/h (1 Bft) NO 36 2 min 0,000 mm 0,0 UV-I 64 W/m 12,9 C 13,8 C 4,8 km/h (1 Bft) 98,51 %
21.10.2017 17:20 13,7 C 11,7 C 94 % 1016,4 hPa 0,0 l/m 4,1 km/h (1 Bft) O-NO 59 0 min 0,000 mm 0,0 UV-I 55 W/m 12,8 C 13,7 C 6,4 km/h (2 Bft) 92,31 %
21.10.2017 17:22 13,7 C 11,7 C 94 % 1016,4 hPa 0,0 l/m 5,2 km/h (1 Bft) O-NO 59 0 min 0,000 mm 0,0 UV-I 48 W/m 12,8 C 13,7 C 8,0 km/h (2 Bft) 95,74 %
21.10.2017 17:24 13,7 C 11,7 C 94 % 1016,4 hPa 0,0 l/m 3,9 km/h (1 Bft) O-NO 59 0 min 0,000 mm 0,0 UV-I 45 W/m 12,8 C 13,7 C 4,8 km/h (1 Bft) 97,87 %
21.10.2017 17:26 13,7 C 11,7 C 94 % 1016,4 hPa 0,0 l/m 3,3 km/h (1 Bft) O-NO 59 0 min 0,000 mm 0,0 UV-I 43 W/m 12,8 C 13,7 C 4,8 km/h (1 Bft) 92,45 %
21.10.2017 17:28 13,7 C 11,7 C 94 % 1016,4 hPa 0,0 l/m 2,6 km/h (1 Bft) O-NO 59 0 min 0,000 mm 0,0 UV-I 42 W/m 12,8 C 13,7 C 4,8 km/h (1 Bft) 95,12 %
21.10.2017 17:30 13,6 C 11,7 C 94 % 1016,4 hPa 0,0 l/m 3,9 km/h (1 Bft) O 82 0 min 0,000 mm 0,0 UV-I 40 W/m 12,7 C 13,6 C 4,8 km/h (1 Bft) 96,00 %
21.10.2017 17:32 13,4 C 11,7 C 94 % 1016,4 hPa 0,0 l/m 2,9 km/h (1 Bft) O 82 0 min 0,000 mm 0,0 UV-I 39 W/m 12,5 C 13,4 C 4,8 km/h (1 Bft) 96,23 %
21.10.2017 17:34 13,4 C 11,7 C 94 % 1016,3 hPa 0,0 l/m 2,5 km/h (1 Bft) O 82 0 min 0,000 mm 0,0 UV-I 37 W/m 12,5 C 13,4 C 3,2 km/h (1 Bft) 95,12 %
21.10.2017 17:36 13,3 C 11,7 C 94 % 1016,3 hPa 0,0 l/m 2,8 km/h (1 Bft) O 82 2 min 0,000 mm 0,0 UV-I 35 W/m 12,4 C 13,3 C 4,8 km/h (1 Bft) 95,74 %
21.10.2017 17:38 13,3 C 11,7 C 94 % 1016,3 hPa 0,0 l/m 2,9 km/h (1 Bft) O 82 2 min 0,000 mm 0,0 UV-I 33 W/m 12,4 C 13,3 C 4,8 km/h (1 Bft) 96,00 %
21.10.2017 17:40 13,3 C 11,7 C 95 % 1016,2 hPa 0,0 l/m 2,6 km/h (1 Bft) O 82 2 min 0,000 mm 0,0 UV-I 32 W/m 12,5 C 13,3 C 4,8 km/h (1 Bft) 94,29 %
21.10.2017 17:42 13,3 C 11,7 C 95 % 1016,3 hPa 0,0 l/m 2,2 km/h (1 Bft) O 82 2 min 0,000 mm 0,0 UV-I 29 W/m 12,5 C 13,3 C 3,2 km/h (1 Bft) 96,43 %
21.10.2017 17:44 13,3 C 11,7 C 95 % 1016,3 hPa 0,0 l/m 1,2 km/h (1 Bft) O 82 2 min 0,000 mm 0,0 UV-I 27 W/m 12,5 C 13,3 C 3,2 km/h (1 Bft) 90,00 %
21.10.2017 17:46 13,2 C 11,7 C 95 % 1016,3 hPa 0,0 l/m 2,9 km/h (1 Bft) O 82 2 min 0,000 mm 0,0 UV-I 25 W/m 12,4 C 13,2 C 3,2 km/h (1 Bft) 97,56 %
21.10.2017 17:48 13,2 C 11,7 C 95 % 1016,2 hPa 0,0 l/m 2,8 km/h (1 Bft) O 82 2 min 0,000 mm 0,0 UV-I 22 W/m 12,4 C 13,2 C 3,2 km/h (1 Bft) 94,00 %
21.10.2017 17:50 13,1 C 11,7 C 95 % 1016,3 hPa 0,0 l/m 2,8 km/h (1 Bft) O 82 2 min 0,000 mm 0,0 UV-I 19 W/m 12,3 C 13,1 C 4,8 km/h (1 Bft) 95,74 %
21.10.2017 17:52 13,1 C 11,7 C 95 % 1016,3 hPa 0,0 l/m 1,6 km/h (1 Bft) O 82 2 min 0,000 mm 0,0 UV-I 16 W/m 12,3 C 13,1 C 3,2 km/h (1 Bft) 96,00 %
21.10.2017 17:54 13,1 C 11,7 C 95 % 1016,4 hPa 0,0 l/m 1,1 km/h (1 Bft) O 82 0 min 0,000 mm 0,0 UV-I 12 W/m 12,3 C 13,1 C 3,2 km/h (1 Bft) 94,44 %
21.10.2017 17:56 13,1 C 11,7 C 95 % 1016,4 hPa 0,0 l/m 3,0 km/h (1 Bft) O 82 0 min 0,000 mm 0,0 UV-I 11 W/m 12,3 C 13,1 C 4,8 km/h (1 Bft) 96,23 %
21.10.2017 17:58 13,0 C 11,7 C 95 % 1016,3 hPa 0,0 l/m 5,1 km/h (1 Bft) O 83 0 min 0,000 mm 0,0 UV-I 9 W/m 12,2 C 13,0 C 6,4 km/h (2 Bft) 95,92 %
21.10.2017 18:00 12,9 C 11,7 C 95 % 1016,3 hPa 0,0 l/m 4,6 km/h (1 Bft) O 89 0 min 0,025 mm 0,0 UV-I 7 W/m 12,1 C 12,9 C 8,0 km/h (2 Bft) 94,00 %
21.10.2017 18:02 12,8 C 11,7 C 95 % 1016,4 hPa 0,0 l/m 2,1 km/h (1 Bft) O 89 0 min 0,000 mm 0,0 UV-I 7 W/m 12,0 C 12,8 C 4,8 km/h (1 Bft) 92,68 %
21.10.2017 18:04 12,9 C 11,7 C 96 % 1016,3 hPa 0,0 l/m 3,8 km/h (1 Bft) O-NO 72 0 min 0,000 mm 0,0 UV-I 6 W/m 12,3 C 12,9 C 4,8 km/h (1 Bft) 92,68 %
21.10.2017 18:06 12,9 C 11,7 C 96 % 1016,3 hPa 0,0 l/m 4,9 km/h (1 Bft) O 80 0 min 0,000 mm 0,0 UV-I 5 W/m 12,3 C 12,9 C 6,4 km/h (2 Bft) 96,00 %
21.10.2017 18:08 13,0 C 11,7 C 96 % 1016,3 hPa 0,0 l/m 3,7 km/h (1 Bft) O-NO 67 0 min 0,000 mm 0,0 UV-I 5 W/m 12,4 C 13,0 C 6,4 km/h (2 Bft) 100,00 %
21.10.2017 18:10 12,9 C 11,7 C 96 % 1016,4 hPa 0,0 l/m 1,2 km/h (1 Bft) O-NO 67 0 min 0,000 mm 0,0 UV-I 5 W/m 12,3 C 12,9 C 3,2 km/h (1 Bft) 100,00 %
21.10.2017 18:12 12,9 C 11,7 C 96 % 1016,4 hPa 0,0 l/m 1,2 km/h (1 Bft) O-NO 67 0 min 0,000 mm 0,0 UV-I 5 W/m 12,3 C 12,9 C 3,2 km/h (1 Bft) 100,00 %
21.10.2017 18:14 12,8 C 11,7 C 95 % 1016,2 hPa 0,0 l/m 5,2 km/h (1 Bft) O-NO 78 0 min 0,000 mm 0,0 UV-I 5 W/m 12,0 C 12,8 C 6,4 km/h (2 Bft) 100,00 %
21.10.2017 18:16 12,8 C 11,7 C 95 % 1016,2 hPa 0,0 l/m 5,8 km/h (2 Bft) O 80 0 min 0,000 mm 0,0 UV-I 2 W/m 12,0 C 12,8 C 9,7 km/h (2 Bft) 100,00 %
21.10.2017 18:18 12,8 C 11,7 C 96 % 1016,3 hPa 0,0 l/m 2,2 km/h (1 Bft) O 80 0 min 0,000 mm 0,0 UV-I 0 W/m 12,2 C 12,8 C 4,8 km/h (1 Bft) 98,11 %
21.10.2017 18:20 12,7 C 11,7 C 96 % 1016,3 hPa 0,0 l/m 0,6 km/h (0 Bft) NW 322 0 min 0,000 mm 0,0 UV-I 0 W/m 12,1 C 12,7 C 3,2 km/h (1 Bft) 97,87 %
21.10.2017 18:22 12,6 C 11,7 C 95 % 1016,3 hPa 0,0 l/m 1,0 km/h (0 Bft) N-NW 333 0 min 0,000 mm 0,0 UV-I 0 W/m 11,8 C 12,6 C 4,8 km/h (1 Bft) 100,00 %
21.10.2017 18:24 12,3 C 11,7 C 95 % 1016,3 hPa 0,0 l/m 3,5 km/h (1 Bft) NO 53 0 min 0,000 mm 0,0 UV-I 0 W/m 11,5 C 12,3 C 4,8 km/h (1 Bft) 100,00 %
21.10.2017 18:26 12,3 C 11,7 C 96 % 1016,4 hPa 0,0 l/m 5,3 km/h (1 Bft) O-NO 76 0 min 0,000 mm 0,0 UV-I 0 W/m 11,7 C 12,3 C 8,0 km/h (2 Bft) 97,92 %
21.10.2017 18:28 12,3 C 11,7 C 96 % 1016,4 hPa 0,0 l/m 5,1 km/h (1 Bft) O-NO 66 0 min 0,000 mm 0,0 UV-I 0 W/m 11,7 C 12,3 C 6,4 km/h (2 Bft) 100,00 %
21.10.2017 18:30 12,4 C 11,7 C 96 % 1016,3 hPa 0,0 l/m 3,3 km/h (1 Bft) O-NO 66 0 min 0,000 mm 0,0 UV-I 0 W/m 11,8 C 12,4 C 4,8 km/h (1 Bft) 100,00 %
21.10.2017 18:32 12,4 C 11,7 C 96 % 1016,3 hPa 0,0 l/m 1,8 km/h (1 Bft) O-NO 66 0 min 0,000 mm 0,0 UV-I 0 W/m 11,8 C 12,4 C 3,2 km/h (1 Bft) 100,00 %
21.10.2017 18:34 12,4 C 11,7 C 96 % 1016,3 hPa 0,0 l/m 1,2 km/h (1 Bft) O-NO 66 0 min 0,000 mm 0,0 UV-I 0 W/m 11,8 C 12,4 C 3,2 km/h (1 Bft) 100,00 %
21.10.2017 18:36 12,4 C 11,7 C 96 % 1016,3 hPa 0,0 l/m 0,8 km/h (0 Bft) O-NO 66 0 min 0,000 mm 0,0 UV-I 0 W/m 11,8 C 12,4 C 3,2 km/h (1 Bft) 98,00 %
21.10.2017 18:38 12,3 C 11,7 C 96 % 1016,3 hPa 0,0 l/m 4,5 km/h (1 Bft) NO 47 0 min 0,000 mm 0,0 UV-I 0 W/m 11,7 C 12,3 C 6,4 km/h (2 Bft) 94,74 %
21.10.2017 18:40 12,3 C 11,7 C 96 % 1016,3 hPa 0,0 l/m 5,5 km/h (1 Bft) NO 47 0 min 0,000 mm 0,0 UV-I 0 W/m 11,7 C 12,3 C 8,0 km/h (2 Bft) 98,11 %
21.10.2017 18:42 12,2 C 11,7 C 96 % 1016,4 hPa 0,0 l/m 6,0 km/h (2 Bft) N-NO 30 0 min 0,000 mm 0,0 UV-I 0 W/m 11,6 C 12,2 C 9,7 km/h (2 Bft) 100,00 %
21.10.2017 18:44 12,2 C 11,7 C 96 % 1016,5 hPa 0,0 l/m 7,4 km/h (2 Bft) N-NO 31 0 min 0,000 mm 0,0 UV-I 0 W/m 11,6 C 11,5 C 12,9 km/h (3 Bft) 100,00 %
21.10.2017 18:46 12,2 C 11,7 C 96 % 1016,4 hPa 0,0 l/m 8,2 km/h (2 Bft) NO 46 0 min 0,000 mm 0,0 UV-I 0 W/m 11,6 C 11,0 C 12,9 km/h (3 Bft) 100,00 %
21.10.2017 18:48 12,2 C 11,7 C 96 % 1016,5 hPa 0,0 l/m 4,8 km/h (1 Bft) NO 55 0 min 0,000 mm 0,0 UV-I 0 W/m 11,6 C 12,2 C 8,0 km/h (2 Bft) 97,87 %
21.10.2017 18:50 12,2 C 11,7 C 96 % 1016,4 hPa 0,0 l/m 4,8 km/h (1 Bft) O-NO 65 0 min 0,000 mm 0,0 UV-I 0 W/m 11,6 C 12,2 C 6,4 km/h (2 Bft) 100,00 %
21.10.2017 18:52 12,2 C 11,7 C 96 % 1016,5 hPa 0,0 l/m 5,4 km/h (1 Bft) O-NO 57 0 min 0,000 mm 0,0 UV-I 0 W/m 11,6 C 12,2 C 8,0 km/h (2 Bft) 100,00 %
21.10.2017 18:54 12,2 C 11,7 C 97 % 1016,5 hPa 0,0 l/m 3,1 km/h (1 Bft) O-NO 57 0 min 0,000 mm 0,0 UV-I 0 W/m 11,7 C 12,2 C 4,8 km/h (1 Bft) 100,00 %
21.10.2017 18:56 12,2 C 11,7 C 97 % 1016,5 hPa 0,0 l/m 2,0 km/h (1 Bft) O-NO 57 0 min 0,000 mm 0,0 UV-I 0 W/m 11,7 C 12,2 C 3,2 km/h (1 Bft) 97,37 %
21.10.2017 18:58 12,2 C 11,7 C 96 % 1016,5 hPa 0,0 l/m 3,8 km/h (1 Bft) O-NO 72 0 min 0,000 mm 0,0 UV-I 0 W/m 11,6 C 12,2 C 4,8 km/h (1 Bft) 100,00 %
21.10.2017 19:00 12,2 C 11,7 C 97 % 1016,5 hPa 0,0 l/m 4,5 km/h (1 Bft) NO 56 0 min 0,000 mm 0,0 UV-I 0 W/m 11,7 C 12,2 C 6,4 km/h (2 Bft) 100,00 %
21.10.2017 19:02 12,2 C 11,7 C 97 % 1016,5 hPa 0,0 l/m 4,9 km/h (1 Bft) O-NO 67 0 min 0,000 mm 0,0 UV-I 0 W/m 11,7 C 12,2 C 6,4 km/h (2 Bft) 100,00 %
21.10.2017 19:04 12,3 C 11,7 C 97 % 1016,4 hPa 0,0 l/m 4,6 km/h (1 Bft) O-NO 68 0 min 0,000 mm 0,0 UV-I 0 W/m 11,8 C 12,3 C 6,4 km/h (2 Bft) 100,00 %
21.10.2017 19:06 12,3 C 11,7 C 97 % 1016,4 hPa 0,0 l/m 5,6 km/h (1 Bft) O 80 0 min 0,000 mm 0,0 UV-I 0 W/m 11,8 C 12,3 C 8,0 km/h (2 Bft) 100,00 %
21.10.2017 19:08 12,3 C 11,7 C 97 % 1016,4 hPa 0,0 l/m 6,3 km/h (2 Bft) O-NO 69 0 min 0,000 mm 0,0 UV-I 0 W/m 11,8 C 12,3 C 11,3 km/h (2 Bft) 100,00 %
21.10.2017 19:10 12,2 C 11,7 C 97 % 1016,4 hPa 0,0 l/m 7,4 km/h (2 Bft) O 79 0 min 0,000 mm 0,0 UV-I 0 W/m 11,7 C 11,5 C 11,3 km/h (2 Bft) 100,00 %
21.10.2017 19:12 12,3 C 11,7 C 97 % 1016,3 hPa 0,0 l/m 4,9 km/h (1 Bft) O 99 0 min 0,000 mm 0,0 UV-I 0 W/m 11,8 C 12,3 C 8,0 km/h (2 Bft) 100,00 %
21.10.2017 19:14 12,3 C 11,7 C 97 % 1016,3 hPa 0,0 l/m 4,5 km/h (1 Bft) O 82 0 min 0,000 mm 0,0 UV-I 0 W/m 11,8 C 12,3 C 8,0 km/h (2 Bft) 100,00 %
21.10.2017 19:16 12,3 C 11,7 C 97 % 1016,4 hPa 0,0 l/m 6,4 km/h (2 Bft) O 99 0 min 0,000 mm 0,0 UV-I 0 W/m 11,8 C 12,3 C 9,7 km/h (2 Bft) 100,00 %
21.10.2017 19:18 12,3 C 11,7 C 97 % 1016,4 hPa 0,0 l/m 2,8 km/h (1 Bft) O-SO 117 0 min 0,000 mm 0,0 UV-I 0 W/m 11,8 C 12,3 C 6,4 km/h (2 Bft) 100,00 %
21.10.2017 19:20 12,3 C 11,7 C 97 % 1016,5 hPa 0,0 l/m 1,6 km/h (1 Bft) O-SO 117 0 min 0,000 mm 0,0 UV-I 0 W/m 11,8 C 12,3 C 3,2 km/h (1 Bft) 100,00 %
21.10.2017 19:22 12,3 C 11,7 C 97 % 1016,5 hPa 0,0 l/m 2,7 km/h (1 Bft) O-NO 77 0 min 0,000 mm 0,0 UV-I 0 W/m 11,8 C 12,3 C 6,4 km/h (2 Bft) 100,00 %
21.10.2017 19:24 12,3 C 11,7 C 97 % 1016,5 hPa 0,0 l/m 3,6 km/h (1 Bft) O-NO 77 0 min 0,000 mm 0,0 UV-I 0 W/m 11,8 C 12,3 C 4,8 km/h (1 Bft) 100,00 %
21.10.2017 19:26 12,3 C 11,7 C 97 % 1016,5 hPa 0,0 l/m 4,6 km/h (1 Bft) O-NO 72 0 min 0,000 mm 0,0 UV-I 0 W/m 11,8 C 12,3 C 6,4 km/h (2 Bft) 98,00 %
21.10.2017 19:28 12,4 C 11,7 C 97 % 1016,5 hPa 0,0 l/m 4,4 km/h (1 Bft) O-NO 62 0 min 0,000 mm 0,0 UV-I 0 W/m 11,9 C 12,4 C 6,4 km/h (2 Bft) 100,00 %
21.10.2017 19:30 12,3 C 11,7 C 97 % 1016,5 hPa 0,0 l/m 5,1 km/h (1 Bft) O-NO 58 0 min 0,000 mm 0,0 UV-I 0 W/m 11,8 C 12,3 C 8,0 km/h (2 Bft) 100,00 %
21.10.2017 19:32 12,3 C 11,7 C 97 % 1016,6 hPa 0,0 l/m 5,2 km/h (1 Bft) O-NO 78 0 min 0,000 mm 0,0 UV-I 0 W/m 11,8 C 12,3 C 8,0 km/h (2 Bft) 100,00 %
21.10.2017 19:34 12,3 C 11,7 C 97 % 1016,5 hPa 0,0 l/m 5,8 km/h (2 Bft) O 101 0 min 0,000 mm 0,0 UV-I 0 W/m 11,8 C 12,3 C 9,7 km/h (2 Bft) 98,11 %
21.10.2017 19:36 12,3 C 11,7 C 97 % 1016,5 hPa 0,0 l/m 4,7 km/h (1 Bft) O 86 0 min 0,000 mm 0,0 UV-I 0 W/m 11,8 C 12,3 C 6,4 km/h (2 Bft) 100,00 %
21.10.2017 19:38 12,3 C 11,7 C 97 % 1016,5 hPa 0,0 l/m 2,9 km/h (1 Bft) O 94 0 min 0,000 mm 0,0 UV-I 0 W/m 11,8 C 12,3 C 6,4 km/h (2 Bft) 94,74 %
21.10.2017 19:40 12,3 C 11,7 C 97 % 1016,4 hPa 0,0 l/m 3,8 km/h (1 Bft) O-SO 107 0 min 0,000 mm 0,0 UV-I 0 W/m 11,8 C 12,3 C 6,4 km/h (2 Bft) 98,21 %
21.10.2017 19:42 12,3 C 11,7 C 97 % 1016,4 hPa 0,0 l/m 3,7 km/h (1 Bft) O-SO 112 0 min 0,000 mm 0,0 UV-I 0 W/m 11,8 C 12,3 C 6,4 km/h (2 Bft) 97,37 %
21.10.2017 19:44 12,3 C 11,7 C 97 % 1016,4 hPa 0,0 l/m 6,3 km/h (2 Bft) O-SO 111 0 min 0,000 mm 0,0 UV-I 0 W/m 11,8 C 12,3 C 9,7 km/h (2 Bft) 94,92 %
21.10.2017 19:46 12,3 C 11,7 C 97 % 1016,4 hPa 0,0 l/m 2,7 km/h (1 Bft) O-SO 103 0 min 0,000 mm 0,0 UV-I 0 W/m 11,8 C 12,3 C 6,4 km/h (2 Bft) 97,56 %
21.10.2017 19:48 12,3 C 11,7 C 97 % 1016,5 hPa 0,0 l/m 0,1 km/h (0 Bft) O-SO 103 0 min 0,000 mm 0,0 UV-I 0 W/m 11,8 C 12,3 C 1,6 km/h (1 Bft) 95,74 %
21.10.2017 19:50 12,2 C 11,7 C 97 % 1016,5 hPa 0,0 l/m 0,0 km/h (0 Bft) O-SO 103 0 min 0,000 mm 0,0 UV-I 0 W/m 11,7 C 12,2 C 0,0 km/h (0 Bft) 95,74 %
21.10.2017 19:52 12,1 C 11,7 C 97 % 1016,5 hPa 0,0 l/m 0,0 km/h (0 Bft) O-SO 103 0 min 0,000 mm 0,0 UV-I 0 W/m 11,6 C 12,1 C 0,0 km/h (0 Bft) 98,00 %
21.10.2017 19:54 12,1 C 11,7 C 97 % 1016,5 hPa 0,0 l/m 0,0 km/h (0 Bft) O-SO 103 0 min 0,000 mm 0,0 UV-I 0 W/m 11,6 C 12,1 C 0,0 km/h (0 Bft) 97,92 %
21.10.2017 19:56 11,9 C 11,7 C 96 % 1016,5 hPa 0,0 l/m 0,1 km/h (0 Bft) O-SO 103 0 min 0,000 mm 0,0 UV-I 0 W/m 11,3 C 11,9 C 1,6 km/h (1 Bft) 97,37 %
21.10.2017 19:58 11,8 C 11,7 C 96 % 1016,6 hPa 0,0 l/m 1,7 km/h (1 Bft) O-NO 61 0 min 0,000 mm 0,0 UV-I 0 W/m 11,2 C 11,8 C 3,2 km/h (1 Bft) 96,00 %
21.10.2017 20:00 11,8 C 11,7 C 97 % 1016,6 hPa 0,0 l/m 1,7 km/h (1 Bft) O-NO 61 0 min 0,000 mm 0,0 UV-I 0 W/m 11,3 C 11,8 C 3,2 km/h (1 Bft) 97,87 %
21.10.2017 20:02 11,8 C 11,7 C 97 % 1016,5 hPa 0,0 l/m 2,8 km/h (1 Bft) O-NO 61 0 min 0,000 mm 0,0 UV-I 0 W/m 11,3 C 11,8 C 4,8 km/h (1 Bft) 96,15 %
21.10.2017 20:04 11,8 C 11,7 C 97 % 1016,5 hPa 0,0 l/m 3,5 km/h (1 Bft) O-NO 61 0 min 0,000 mm 0,0 UV-I 0 W/m 11,3 C 11,8 C 4,8 km/h (1 Bft) 97,73 %
21.10.2017 20:06 11,7 C 11,7 C 97 % 1016,4 hPa 0,0 l/m 3,0 km/h (1 Bft) O-NO 61 0 min 0,000 mm 0,0 UV-I 0 W/m 11,2 C 11,7 C 4,8 km/h (1 Bft) 97,56 %
21.10.2017 20:08 11,8 C 11,7 C 97 % 1016,4 hPa 0,0 l/m 3,7 km/h (1 Bft) O-NO 61 0 min 0,000 mm 0,0 UV-I 0 W/m 11,3 C 11,8 C 4,8 km/h (1 Bft) 96,00 %
21.10.2017 20:10 11,8 C 11,7 C 97 % 1016,4 hPa 0,0 l/m 3,7 km/h (1 Bft) O-NO 61 0 min 0,000 mm 0,0 UV-I 0 W/m 11,3 C 11,8 C 4,8 km/h (1 Bft) 98,11 %
21.10.2017 20:12 11,8 C 11,7 C 97 % 1016,4 hPa 0,0 l/m 2,7 km/h (1 Bft) O-NO 61 0 min 0,000 mm 0,0 UV-I 0 W/m 11,3 C 11,8 C 4,8 km/h (1 Bft) 97,37 %
21.10.2017 20:14 11,8 C 11,7 C 97 % 1016,5 hPa 0,0 l/m 3,3 km/h (1 Bft) O-NO 61 0 min 0,000 mm 0,0 UV-I 0 W/m 11,3 C 11,8 C 4,8 km/h (1 Bft) 98,00 %
21.10.2017 20:16 11,9 C 11,7 C 97 % 1016,5 hPa 0,0 l/m 2,9 km/h (1 Bft) O-NO 61 0 min 0,000 mm 0,0 UV-I 0 W/m 11,4 C 11,9 C 4,8 km/h (1 Bft) 98,11 %
21.10.2017 20:18 11,9 C 11,7 C 97 % 1016,4 hPa 0,0 l/m 2,9 km/h (1 Bft) O-NO 61 0 min 0,000 mm 0,0 UV-I 0 W/m 11,4 C 11,9 C 4,8 km/h (1 Bft) 100,00 %
21.10.2017 20:20 11,9 C 11,7 C 97 % 1016,4 hPa 0,0 l/m 3,7 km/h (1 Bft) O 90 0 min 0,000 mm 0,0 UV-I 0 W/m 11,4 C 11,9 C 6,4 km/h (2 Bft) 100,00 %
21.10.2017 20:22 11,8 C 11,7 C 97 % 1016,4 hPa 0,0 l/m 2,2 km/h (1 Bft) O 90 0 min 0,000 mm 0,0 UV-I 0 W/m 11,3 C 11,8 C 4,8 km/h (1 Bft) 97,87 %
21.10.2017 20:24 11,7 C 11,7 C 97 % 1016,4 hPa 0,0 l/m 1,8 km/h (1 Bft) O 90 0 min 0,000 mm 0,0 UV-I 0 W/m 11,2 C 11,7 C 3,2 km/h (1 Bft) 100,00 %
21.10.2017 20:26 11,7 C 11,7 C 97 % 1016,3 hPa 0,0 l/m 0,8 km/h (0 Bft) O 90 0 min 0,000 mm 0,0 UV-I 0 W/m 11,2 C 11,7 C 1,6 km/h (1 Bft) 100,00 %
21.10.2017 20:28 11,7 C 11,7 C 97 % 1016,3 hPa 0,0 l/m 2,2 km/h (1 Bft) O 90 0 min 0,000 mm 0,0 UV-I 0 W/m 11,2 C 11,7 C 3,2 km/h (1 Bft) 98,00 %
21.10.2017 20:30 11,7 C 11,7 C 97 % 1016,3 hPa 0,0 l/m 1,9 km/h (1 Bft) O 94 0 min 0,000 mm 0,0 UV-I 0 W/m 11,2 C 11,7 C 6,4 km/h (2 Bft) 100,00 %
21.10.2017 20:32 11,8 C 11,7 C 97 % 1016,3 hPa 0,0 l/m 5,4 km/h (1 Bft) O 92 0 min 0,000 mm 0,0 UV-I 0 W/m 11,3 C 11,8 C 6,4 km/h (2 Bft) 100,00 %
21.10.2017 20:34 11,9 C 11,7 C 97 % 1016,3 hPa 0,0 l/m 2,2 km/h (1 Bft) O 92 0 min 0,000 mm 0,0 UV-I 0 W/m 11,4 C 11,9 C 4,8 km/h (1 Bft) 98,00 %
21.10.2017 20:36 11,9 C 11,7 C 97 % 1016,3 hPa 0,0 l/m 1,3 km/h (1 Bft) NO 36 0 min 0,000 mm 0,0 UV-I 0 W/m 11,4 C 11,9 C 4,8 km/h (1 Bft) 100,00 %
21.10.2017 20:38 11,8 C 11,7 C 97 % 1016,3 hPa 0,0 l/m 3,3 km/h (1 Bft) NO 48 0 min 0,000 mm 0,0 UV-I 0 W/m 11,3 C 11,8 C 6,4 km/h (2 Bft) 100,00 %
21.10.2017 20:40 11,7 C 11,7 C 97 % 1016,3 hPa 0,0 l/m 5,7 km/h (1 Bft) NO 51 0 min 0,000 mm 0,0 UV-I 0 W/m 11,2 C 11,7 C 9,7 km/h (2 Bft) 100,00 %
21.10.2017 20:42 11,7 C 11,7 C 97 % 1016,3 hPa 0,0 l/m 3,8 km/h (1 Bft) O-NO 59 0 min 0,000 mm 0,0 UV-I 0 W/m 11,2 C 11,7 C 4,8 km/h (1 Bft) 100,00 %
21.10.2017 20:44 11,7 C 11,7 C 97 % 1016,3 hPa 0,0 l/m 4,0 km/h (1 Bft) O-NO 59 0 min 0,000 mm 0,0 UV-I 0 W/m 11,2 C 11,7 C 6,4 km/h (2 Bft) 98,21 %
21.10.2017 20:46 11,7 C 11,7 C 97 % 1016,3 hPa 0,0 l/m 3,4 km/h (1 Bft) O-NO 59 0 min 0,000 mm 0,0 UV-I 0 W/m 11,2 C 11,7 C 4,8 km/h (1 Bft) 95,74 %
21.10.2017 20:48 11,7 C 11,7 C 97 % 1016,2 hPa 0,0 l/m 3,4 km/h (1 Bft) O-NO 60 0 min 0,000 mm 0,0 UV-I 0 W/m 11,2 C 11,7 C 4,8 km/h (1 Bft) 97,14 %
21.10.2017 20:50 11,7 C 11,7 C 97 % 1016,2 hPa 0,0 l/m 3,7 km/h (1 Bft) O-NO 58 0 min 0,000 mm 0,0 UV-I 0 W/m 11,2 C 11,7 C 6,4 km/h (2 Bft) 98,39 %
21.10.2017 20:52 11,6 C 11,7 C 97 % 1016,2 hPa 0,0 l/m 2,7 km/h (1 Bft) O-NO 58 0 min 0,000 mm 0,0 UV-I 0 W/m 11,1 C 11,6 C 3,2 km/h (1 Bft) 97,56 %
21.10.2017 20:54 11,4 C 11,7 C 97 % 1016,2 hPa 0,0 l/m 2,1 km/h (1 Bft) O-NO 58 0 min 0,000 mm 0,0 UV-I 0 W/m 10,9 C 11,4 C 3,2 km/h (1 Bft) 98,00 %
21.10.2017 20:56 11,4 C 11,7 C 97 % 1016,2 hPa 0,0 l/m 1,2 km/h (1 Bft) O-NO 58 0 min 0,000 mm 0,0 UV-I 0 W/m 10,9 C 11,4 C 3,2 km/h (1 Bft) 97,56 %
21.10.2017 20:58 11,4 C 11,7 C 97 % 1016,2 hPa 0,0 l/m 3,1 km/h (1 Bft) O-NO 58 0 min 0,000 mm 0,0 UV-I 0 W/m 10,9 C 11,4 C 4,8 km/h (1 Bft) 96,00 %
21.10.2017 21:00 11,6 C 11,7 C 97 % 1016,1 hPa 0,0 l/m 3,6 km/h (1 Bft) O 90 0 min 0,000 mm 0,0 UV-I 0 W/m 11,1 C 11,6 C 4,8 km/h (1 Bft) 98,00 %
21.10.2017 21:02 11,7 C 11,7 C 97 % 1016,1 hPa 0,0 l/m 3,6 km/h (1 Bft) O-NO 74 0 min 0,000 mm 0,0 UV-I 0 W/m 11,2 C 11,7 C 4,8 km/h (1 Bft) 97,87 %
21.10.2017 21:04 11,7 C 11,7 C 97 % 1016,1 hPa 0,0 l/m 3,5 km/h (1 Bft) O-NO 74 0 min 0,000 mm 0,0 UV-I 0 W/m 11,2 C 11,7 C 4,8 km/h (1 Bft) 97,56 %
21.10.2017 21:06 11,7 C 11,7 C 97 % 1016,1 hPa 0,0 l/m 4,0 km/h (1 Bft) O-NO 78 0 min 0,000 mm 0,0 UV-I 0 W/m 11,2 C 11,7 C 6,4 km/h (2 Bft) 97,87 %
21.10.2017 21:08 11,7 C 11,7 C 97 % 1016,1 hPa 0,0 l/m 3,9 km/h (1 Bft) O 83 0 min 0,000 mm 0,0 UV-I 0 W/m 11,2 C 11,7 C 4,8 km/h (1 Bft) 98,00 %
21.10.2017 21:10 11,8 C 11,7 C 97 % 1016,1 hPa 0,0 l/m 3,9 km/h (1 Bft) O 80 0 min 0,000 mm 0,0 UV-I 0 W/m 11,3 C 11,8 C 8,0 km/h (2 Bft) 98,00 %
21.10.2017 21:12 11,8 C 11,7 C 97 % 1016,1 hPa 0,0 l/m 2,5 km/h (1 Bft) O 80 0 min 0,000 mm 0,0 UV-I 0 W/m 11,3 C 11,8 C 3,2 km/h (1 Bft) 97,44 %
21.10.2017 21:14 11,7 C 11,7 C 97 % 1016,1 hPa 0,0 l/m 2,3 km/h (1 Bft) O 80 0 min 0,000 mm 0,0 UV-I 0 W/m 11,2 C 11,7 C 3,2 km/h (1 Bft) 98,00 %
21.10.2017 21:16 11,7 C 11,7 C 97 % 1016,1 hPa 0,0 l/m 2,4 km/h (1 Bft) O 80 0 min 0,000 mm 0,0 UV-I 0 W/m 11,2 C 11,7 C 4,8 km/h (1 Bft) 97,87 %
21.10.2017 21:18 11,7 C 11,7 C 97 % 1016,0 hPa 0,0 l/m 4,1 km/h (1 Bft) O 80 0 min 0,000 mm 0,0 UV-I 0 W/m 11,2 C 11,7 C 6,4 km/h (2 Bft) 97,87 %
21.10.2017 21:20 11,7 C 11,7 C 97 % 1016,0 hPa 0,0 l/m 4,5 km/h (1 Bft) O-NO 76 0 min 0,000 mm 0,0 UV-I 0 W/m 11,2 C 11,7 C 6,4 km/h (2 Bft) 97,56 %
21.10.2017 21:22 11,8 C 11,7 C 97 % 1016,0 hPa 0,0 l/m 6,7 km/h (2 Bft) O-NO 69 0 min 0,000 mm 0,0 UV-I 0 W/m 11,3 C 11,6 C 11,3 km/h (2 Bft) 94,34 %
21.10.2017 21:24 11,8 C 11,7 C 97 % 1016,0 hPa 0,0 l/m 5,1 km/h (1 Bft) O-SO 106 0 min 0,000 mm 0,0 UV-I 0 W/m 11,3 C 11,8 C 8,0 km/h (2 Bft) 98,00 %
21.10.2017 21:26 11,8 C 11,7 C 97 % 1015,9 hPa 0,0 l/m 3,7 km/h (1 Bft) O 93 0 min 0,000 mm 0,0 UV-I 0 W/m 11,3 C 11,8 C 4,8 km/h (1 Bft) 97,56 %
21.10.2017 21:28 11,8 C 11,7 C 97 % 1015,9 hPa 0,0 l/m 5,4 km/h (1 Bft) O-SO 108 0 min 0,000 mm 0,0 UV-I 0 W/m 11,3 C 11,8 C 8,0 km/h (2 Bft) 96,43 %
21.10.2017 21:30 11,8 C 11,7 C 97 % 1015,9 hPa 0,0 l/m 6,0 km/h (2 Bft) O 92 0 min 0,000 mm 0,0 UV-I 0 W/m 11,3 C 11,8 C 9,7 km/h (2 Bft) 97,37 %
21.10.2017 21:32 11,8 C 11,7 C 97 % 1015,9 hPa 0,0 l/m 3,5 km/h (1 Bft) O 92 0 min 0,000 mm 0,0 UV-I 0 W/m 11,3 C 11,8 C 4,8 km/h (1 Bft) 95,74 %
21.10.2017 21:34 11,9 C 11,7 C 97 % 1015,8 hPa 0,0 l/m 5,3 km/h (1 Bft) O 84 0 min 0,000 mm 0,0 UV-I 0 W/m 11,4 C 11,9 C 6,4 km/h (2 Bft) 97,96 %
21.10.2017 21:36 11,9 C 11,7 C 97 % 1015,8 hPa 0,0 l/m 4,0 km/h (1 Bft) O-SO 117 0 min 0,000 mm 0,0 UV-I 0 W/m 11,4 C 11,9 C 6,4 km/h (2 Bft) 98,00 %
21.10.2017 21:38 11,9 C 11,7 C 97 % 1015,8 hPa 0,0 l/m 2,7 km/h (1 Bft) O-SO 116 0 min 0,000 mm 0,0 UV-I 0 W/m 11,4 C 11,9 C 6,4 km/h (2 Bft) 97,37 %
21.10.2017 21:40 11,8 C 11,7 C 97 % 1015,9 hPa 0,0 l/m 1,1 km/h (1 Bft) O-SO 116 0 min 0,000 mm 0,0 UV-I 0 W/m 11,3 C 11,8 C 3,2 km/h (1 Bft) 96,23 %
21.10.2017 21:42 11,8 C 11,7 C 97 % 1015,8 hPa 0,0 l/m 2,5 km/h (1 Bft) O-SO 117 0 min 0,000 mm 0,0 UV-I 0 W/m 11,3 C 11,8 C 6,4 km/h (2 Bft) 95,45 %
21.10.2017 21:44 11,8 C 11,7 C 97 % 1015,8 hPa 0,0 l/m 3,6 km/h (1 Bft) O-SO 111 0 min 0,000 mm 0,0 UV-I 0 W/m 11,3 C 11,8 C 8,0 km/h (2 Bft) 93,62 %
21.10.2017 21:46 11,7 C 11,7 C 97 % 1015,8 hPa 0,0 l/m 2,7 km/h (1 Bft) O-SO 121 0 min 0,000 mm 0,0 UV-I 0 W/m 11,2 C 11,7 C 6,4 km/h (2 Bft) 94,00 %
21.10.2017 21:48 11,7 C 11,7 C 97 % 1015,7 hPa 0,0 l/m 3,8 km/h (1 Bft) O-SO 105 0 min 0,000 mm 0,0 UV-I 0 W/m 11,2 C 11,7 C 6,4 km/h (2 Bft) 95,24 %
21.10.2017 21:50 11,6 C 11,7 C 97 % 1015,7 hPa 0,0 l/m 3,4 km/h (1 Bft) SO 128 0 min 0,000 mm 0,0 UV-I 0 W/m 11,1 C 11,6 C 6,4 km/h (2 Bft) 97,87 %
21.10.2017 21:52 11,6 C 11,7 C 97 % 1015,7 hPa 0,0 l/m 3,0 km/h (1 Bft) O-SO 104 0 min 0,000 mm 0,0 UV-I 0 W/m 11,1 C 11,6 C 6,4 km/h (2 Bft) 94,55 %
21.10.2017 21:54 11,6 C 11,7 C 97 % 1015,7 hPa 0,0 l/m 4,4 km/h (1 Bft) O-SO 103 0 min 0,000 mm 0,0 UV-I 0 W/m 11,1 C 11,6 C 6,4 km/h (2 Bft) 97,44 %
21.10.2017 21:56 11,6 C 11,7 C 97 % 1015,6 hPa 0,0 l/m 7,8 km/h (2 Bft) SO 130 0 min 0,000 mm 0,0 UV-I 0 W/m 11,1 C 10,7 C 11,3 km/h (2 Bft) 98,11 %
21.10.2017 21:58 11,6 C 11,7 C 97 % 1015,6 hPa 0,0 l/m 6,9 km/h (2 Bft) O-SO 113 0 min 0,000 mm 0,0 UV-I 0 W/m 11,1 C 11,3 C 12,9 km/h (3 Bft) 100,00 %
21.10.2017 22:00 11,6 C 11,7 C 97 % 1015,6 hPa 0,0 l/m 4,3 km/h (1 Bft) O 100 0 min 0,000 mm 0,0 UV-I 0 W/m 11,1 C 11,6 C 6,4 km/h (2 Bft) 97,37 %
21.10.2017 22:02 11,5 C 11,7 C 97 % 1015,6 hPa 0,0 l/m 2,0 km/h (1 Bft) O 100 0 min 0,000 mm 0,0 UV-I 0 W/m 11,0 C 11,5 C 3,2 km/h (1 Bft) 97,87 %
21.10.2017 22:04 11,5 C 11,7 C 97 % 1015,5 hPa 0,0 l/m 0,6 km/h (0 Bft) O 100 0 min 0,000 mm 0,0 UV-I 0 W/m 11,0 C 11,5 C 1,6 km/h (1 Bft) 96,23 %
21.10.2017 22:06 11,5 C 11,7 C 97 % 1015,5 hPa 0,0 l/m 0,2 km/h (0 Bft) O-SO 106 0 min 0,000 mm 0,0 UV-I 0 W/m 11,0 C 11,5 C 3,2 km/h (1 Bft) 97,87 %
21.10.2017 22:08 11,5 C 11,7 C 97 % 1015,4 hPa 0,0 l/m 3,0 km/h (1 Bft) O-SO 113 0 min 0,000 mm 0,0 UV-I 0 W/m 11,0 C 11,5 C 6,4 km/h (2 Bft) 97,56 %
21.10.2017 22:10 11,5 C 11,7 C 97 % 1015,5 hPa 0,0 l/m 2,2 km/h (1 Bft) SO 136 0 min 0,000 mm 0,0 UV-I 0 W/m 11,0 C 11,5 C 4,8 km/h (1 Bft) 97,56 %
21.10.2017 22:12 11,4 C 11,7 C 97 % 1015,5 hPa 0,0 l/m 3,6 km/h (1 Bft) SO 129 0 min 0,000 mm 0,0 UV-I 0 W/m 10,9 C 11,4 C 4,8 km/h (1 Bft) 98,11 %
21.10.2017 22:14 11,4 C 11,7 C 97 % 1015,4 hPa 0,0 l/m 2,9 km/h (1 Bft) S-SO 147 0 min 0,000 mm 0,0 UV-I 0 W/m 10,9 C 11,4 C 6,4 km/h (2 Bft) 96,67 %
21.10.2017 22:18 11,4 C 11,7 C 97 % 1015,4 hPa 0,0 l/m 5,9 km/h (2 Bft) SO 127 0 min 0,000 mm 0,0 UV-I 0 W/m 10,9 C 11,4 C 9,7 km/h (2 Bft) 100,00 %
21.10.2017 22:20 11,4 C 11,7 C 97 % 1015,5 hPa 0,0 l/m 3,3 km/h (1 Bft) O-SO 107 0 min 0,000 mm 0,0 UV-I 0 W/m 10,9 C 11,4 C 11,3 km/h (2 Bft) 98,00 %
21.10.2017 22:22 11,4 C 11,7 C 97 % 1015,4 hPa 0,0 l/m 2,2 km/h (1 Bft) SO 142 0 min 0,000 mm 0,0 UV-I 0 W/m 10,9 C 11,4 C 6,4 km/h (2 Bft) 100,00 %
21.10.2017 22:24 11,3 C 11,7 C 97 % 1015,5 hPa 0,0 l/m 2,6 km/h (1 Bft) S-SO 165 0 min 0,000 mm 0,0 UV-I 0 W/m 10,8 C 11,3 C 6,4 km/h (2 Bft) 100,00 %
21.10.2017 22:26 11,3 C 11,7 C 97 % 1015,4 hPa 0,0 l/m 3,7 km/h (1 Bft) SO 143 0 min 0,000 mm 0,0 UV-I 0 W/m 10,8 C 11,3 C 9,7 km/h (2 Bft) 100,00 %
21.10.2017 22:28 11,4 C 11,7 C 97 % 1015,4 hPa 0,0 l/m 3,4 km/h (1 Bft) SO 144 0 min 0,000 mm 0,0 UV-I 0 W/m 10,9 C 11,4 C 8,0 km/h (2 Bft) 98,00 %
21.10.2017 22:30 11,4 C 11,7 C 97 % 1015,4 hPa 0,0 l/m 3,6 km/h (1 Bft) SO 144 0 min 0,000 mm 0,0 UV-I 0 W/m 10,9 C 11,4 C 11,3 km/h (2 Bft) 100,00 %
21.10.2017 22:32 11,4 C 11,7 C 97 % 1015,3 hPa 0,0 l/m 2,1 km/h (1 Bft) S-SO 148 0 min 0,000 mm 0,0 UV-I 0 W/m 10,9 C 11,4 C 3,2 km/h (1 Bft) 100,00 %
21.10.2017 22:34 11,4 C 11,7 C 97 % 1015,3 hPa 0,0 l/m 2,1 km/h (1 Bft) SO 142 0 min 0,000 mm 0,0 UV-I 0 W/m 10,9 C 11,4 C 4,8 km/h (1 Bft) 98,00 %
21.10.2017 22:36 11,3 C 11,7 C 97 % 1015,2 hPa 0,0 l/m 1,0 km/h (0 Bft) SO 142 0 min 0,000 mm 0,0 UV-I 0 W/m 10,8 C 11,3 C 3,2 km/h (1 Bft) 98,00 %
21.10.2017 22:38 11,3 C 11,7 C 97 % 1015,2 hPa 0,0 l/m 0,7 km/h (0 Bft) SO 142 0 min 0,000 mm 0,0 UV-I 0 W/m 10,8 C 11,3 C 3,2 km/h (1 Bft) 100,00 %
21.10.2017 22:40 11,3 C 11,7 C 97 % 1015,2 hPa 0,0 l/m 0,3 km/h (0 Bft) SO 142 0 min 0,000 mm 0,0 UV-I 0 W/m 10,8 C 11,3 C 1,6 km/h (1 Bft) 98,21 %
21.10.2017 22:42 11,2 C 11,7 C 97 % 1015,2 hPa 0,0 l/m 0,3 km/h (0 Bft) SO 142 0 min 0,000 mm 0,0 UV-I 0 W/m 10,7 C 11,2 C 1,6 km/h (1 Bft) 100,00 %
21.10.2017 22:44 11,2 C 11,7 C 97 % 1015,2 hPa 0,0 l/m 2,6 km/h (1 Bft) O-NO 75 0 min 0,000 mm 0,0 UV-I 0 W/m 10,7 C 11,2 C 4,8 km/h (1 Bft) 100,00 %
21.10.2017 22:46 11,1 C 11,7 C 97 % 1015,1 hPa 0,0 l/m 1,2 km/h (1 Bft) O-NO 75 0 min 0,000 mm 0,0 UV-I 0 W/m 10,6 C 11,1 C 3,2 km/h (1 Bft) 100,00 %
21.10.2017 22:48 11,0 C 11,7 C 97 % 1015,1 hPa 0,0 l/m 0,1 km/h (0 Bft) O-NO 75 0 min 0,000 mm 0,0 UV-I 0 W/m 10,5 C 11,0 C 1,6 km/h (1 Bft) 100,00 %
21.10.2017 22:50 10,9 C 11,7 C 97 % 1015,0 hPa 0,0 l/m 0,0 km/h (0 Bft) O-NO 75 0 min 0,000 mm 0,0 UV-I 0 W/m 10,4 C 10,9 C 0,0 km/h (0 Bft) 100,00 %
21.10.2017 22:52 10,7 C 11,7 C 97 % 1015,0 hPa 0,0 l/m 0,9 km/h (0 Bft) NO 44 0 min 0,000 mm 0,0 UV-I 0 W/m 10,2 C 10,7 C 4,8 km/h (1 Bft) 94,29 %
21.10.2017 22:54 10,6 C 11,7 C 97 % 1015,0 hPa 0,0 l/m 6,3 km/h (2 Bft) NO 36 0 min 0,000 mm 0,0 UV-I 0 W/m 10,1 C 10,6 C 8,0 km/h (2 Bft) 100,00 %
21.10.2017 22:56 10,6 C 11,7 C 97 % 1014,9 hPa 0,0 l/m 8,0 km/h (2 Bft) NO 40 0 min 0,000 mm 0,0 UV-I 0 W/m 10,1 C 9,5 C 12,9 km/h (3 Bft) 100,00 %
21.10.2017 22:58 10,6 C 11,7 C 97 % 1014,9 hPa 0,0 l/m 9,3 km/h (2 Bft) N-NO 30 0 min 0,000 mm 0,0 UV-I 0 W/m 10,1 C 8,7 C 14,5 km/h (3 Bft) 97,87 %
21.10.2017 23:00 10,6 C 11,7 C 97 % 1014,9 hPa 0,0 l/m 10,2 km/h (2 Bft) N-NO 25 0 min 0,000 mm 0,0 UV-I 0 W/m 10,1 C 8,1 C 14,5 km/h (3 Bft) 100,00 %
21.10.2017 23:02 10,6 C 11,7 C 97 % 1015,0 hPa 0,0 l/m 7,9 km/h (2 Bft) N-NO 28 0 min 0,000 mm 0,0 UV-I 0 W/m 10,1 C 9,5 C 12,9 km/h (3 Bft) 98,11 %
21.10.2017 23:04 10,5 C 11,7 C 97 % 1015,0 hPa 0,0 l/m 4,2 km/h (1 Bft) NO 34 0 min 0,000 mm 0,0 UV-I 0 W/m 10,0 C 10,5 C 6,4 km/h (2 Bft) 100,00 %
21.10.2017 23:06 10,4 C 11,7 C 97 % 1015,0 hPa 0,0 l/m 1,9 km/h (1 Bft) NO 34 0 min 0,000 mm 0,0 UV-I 0 W/m 9,9 C 10,4 C 3,2 km/h (1 Bft) 98,08 %
21.10.2017 23:08 10,4 C 11,7 C 97 % 1015,0 hPa 0,0 l/m 0,2 km/h (0 Bft) NO 34 0 min 0,000 mm 0,0 UV-I 0 W/m 9,9 C 10,4 C 1,6 km/h (1 Bft) 100,00 %
21.10.2017 23:10 10,4 C 11,7 C 97 % 1014,9 hPa 0,0 l/m 0,1 km/h (0 Bft) NO 34 0 min 0,000 mm 0,0 UV-I 0 W/m 9,9 C 10,4 C 1,6 km/h (1 Bft) 100,00 %
21.10.2017 23:12 10,3 C 11,7 C 97 % 1014,9 hPa 0,0 l/m 3,1 km/h (1 Bft) NO 34 0 min 0,000 mm 0,0 UV-I 0 W/m 9,8 C 10,3 C 4,8 km/h (1 Bft) 100,00 %
21.10.2017 23:14 10,2 C 11,7 C 97 % 1014,8 hPa 0,0 l/m 4,9 km/h (1 Bft) NO 34 0 min 0,000 mm 0,0 UV-I 0 W/m 9,7 C 10,2 C 6,4 km/h (2 Bft) 100,00 %
21.10.2017 23:16 10,2 C 11,7 C 97 % 1014,8 hPa 0,0 l/m 5,9 km/h (2 Bft) N-NO 31 0 min 0,000 mm 0,0 UV-I 0 W/m 9,7 C 10,2 C 8,0 km/h (2 Bft) 100,00 %
21.10.2017 23:18 10,2 C 11,7 C 97 % 1014,9 hPa 0,0 l/m 6,4 km/h (2 Bft) N-NO 32 0 min 0,000 mm 0,0 UV-I 0 W/m 9,7 C 10,2 C 8,0 km/h (2 Bft) 100,00 %
21.10.2017 23:20 10,2 C 11,7 C 97 % 1014,9 hPa 0,0 l/m 5,7 km/h (1 Bft) N-NO 28 0 min 0,000 mm 0,0 UV-I 0 W/m 9,7 C 10,2 C 8,0 km/h (2 Bft) 100,00 %
21.10.2017 23:22 10,2 C 11,7 C 97 % 1014,8 hPa 0,0 l/m 3,3 km/h (1 Bft) N-NO 24 0 min 0,000 mm 0,0 UV-I 0 W/m 9,7 C 10,2 C 6,4 km/h (2 Bft) 98,46 %
21.10.2017 23:24 10,2 C 11,7 C 98 % 1014,8 hPa 0,0 l/m 0,7 km/h (0 Bft) N-NO 28 0 min 0,000 mm 0,0 UV-I 0 W/m 9,9 C 10,2 C 3,2 km/h (1 Bft) 98,00 %
21.10.2017 23:26 10,2 C 11,7 C 98 % 1014,8 hPa 0,0 l/m 0,7 km/h (0 Bft) N-NO 30 0 min 0,000 mm 0,0 UV-I 0 W/m 9,9 C 10,2 C 3,2 km/h (1 Bft) 97,37 %
21.10.2017 23:28 10,2 C 11,7 C 98 % 1014,9 hPa 0,0 l/m 0,4 km/h (0 Bft) N-NO 30 0 min 0,000 mm 0,0 UV-I 0 W/m 9,9 C 10,2 C 1,6 km/h (1 Bft) 93,62 %
21.10.2017 23:30 10,2 C 11,7 C 98 % 1015,0 hPa 0,0 l/m 0,5 km/h (0 Bft) N 355 0 min 0,000 mm 0,0 UV-I 0 W/m 9,9 C 10,2 C 3,2 km/h (1 Bft) 100,00 %
21.10.2017 23:32 10,1 C 11,7 C 98 % 1015,0 hPa 0,0 l/m 1,0 km/h (0 Bft) N-NW 348 0 min 0,000 mm 0,0 UV-I 0 W/m 9,8 C 10,1 C 3,2 km/h (1 Bft) 100,00 %
21.10.2017 23:34 10,1 C 11,7 C 97 % 1015,0 hPa 0,0 l/m 1,6 km/h (1 Bft) N 349 0 min 0,000 mm 0,0 UV-I 0 W/m 9,6 C 10,1 C 4,8 km/h (1 Bft) 100,00 %
21.10.2017 23:36 10,1 C 11,7 C 97 % 1015,0 hPa 0,0 l/m 3,6 km/h (1 Bft) N-NO 18 0 min 0,000 mm 0,0 UV-I 0 W/m 9,6 C 10,1 C 4,8 km/h (1 Bft) 100,00 %
21.10.2017 23:38 10,1 C 11,7 C 97 % 1015,0 hPa 0,0 l/m 2,5 km/h (1 Bft) N-NO 18 0 min 0,000 mm 0,0 UV-I 0 W/m 9,6 C 10,1 C 4,8 km/h (1 Bft) 100,00 %
21.10.2017 23:40 10,0 C 11,7 C 97 % 1015,1 hPa 0,0 l/m 3,9 km/h (1 Bft) N-NO 18 0 min 0,000 mm 0,0 UV-I 0 W/m 9,5 C 10,0 C 4,8 km/h (1 Bft) 100,00 %
21.10.2017 23:42 10,0 C 11,7 C 98 % 1015,0 hPa 0,0 l/m 3,7 km/h (1 Bft) N-NO 18 0 min 0,000 mm 0,0 UV-I 0 W/m 9,7 C 10,0 C 4,8 km/h (1 Bft) 100,00 %
21.10.2017 23:44 10,0 C 11,7 C 98 % 1014,8 hPa 0,0 l/m 3,4 km/h (1 Bft) N-NO 29 0 min 0,000 mm 0,0 UV-I 0 W/m 9,7 C 10,0 C 4,8 km/h (1 Bft) 94,87 %
21.10.2017 23:46 10,0 C 11,7 C 98 % 1014,8 hPa 0,0 l/m 3,0 km/h (1 Bft) N-NO 29 0 min 0,000 mm 0,0 UV-I 0 W/m 9,7 C 10,0 C 4,8 km/h (1 Bft) 98,08 %
21.10.2017 23:48 9,9 C 11,7 C 98 % 1014,7 hPa 0,0 l/m 2,2 km/h (1 Bft) N-NO 29 0 min 0,000 mm 0,0 UV-I 0 W/m 9,6 C 9,9 C 3,2 km/h (1 Bft) 94,34 %
21.10.2017 23:50 9,9 C 11,7 C 98 % 1014,7 hPa 0,0 l/m 2,6 km/h (1 Bft) N-NO 29 0 min 0,000 mm 0,0 UV-I 0 W/m 9,6 C 9,9 C 4,8 km/h (1 Bft) 100,00 %
21.10.2017 23:52 9,8 C 11,7 C 98 % 1014,8 hPa 0,0 l/m 2,9 km/h (1 Bft) N-NO 29 0 min 0,000 mm 0,0 UV-I 0 W/m 9,5 C 9,8 C 4,8 km/h (1 Bft) 95,16 %
21.10.2017 23:54 9,8 C 11,7 C 97 % 1014,7 hPa 0,0 l/m 1,3 km/h (1 Bft) N-NO 29 0 min 0,000 mm 0,0 UV-I 0 W/m 9,3 C 9,8 C 1,6 km/h (1 Bft) 98,21 %
21.10.2017 23:56 9,8 C 11,7 C 97 % 1014,7 hPa 0,0 l/m 2,0 km/h (1 Bft) N-NO 29 0 min 0,000 mm 0,0 UV-I 0 W/m 9,3 C 9,8 C 3,2 km/h (1 Bft) 97,37 %
21.10.2017 23:58 9,8 C 11,7 C 97 % 1014,6 hPa 0,0 l/m 2,7 km/h (1 Bft) N-NO 29 0 min 0,000 mm 0,0 UV-I 0 W/m 9,3 C 9,8 C 4,8 km/h (1 Bft) 98,11 %
_ Min-Zeit 02:28 00:00 16:56 23:58 - 00:00 - - - - - - 00:14 00:18 00:00 17:44
Minimum _ 6,8 C 11,7 C 92 % 1014,6 hPa - 0,0 km/h (0 Bft) - - - - - - 6,5 C 6,7 C 0,0 km/h (0 Bft) 90,00 %
_ Max-Zeit 15:38 00:00 00:18 10:48 10:54 23:00 - - 15:02 16:02 11:22 15:30 15:38 15:38 22:58 00:00
Maximum _ 15,1 C 11,7 C 98 % 1019,0 hPa 0,2 l/m 10,2 km/h
N-NO (2 Bft)
- - 2 min 0,102 mm 0,8 UV-I 296 W/m 14,1 C 15,1 C 14,5 km/h
NO (3 Bft)
100,00 %
Durchschnitt _ 10,3 C 11,7 C 97 % 1017,2 hPa #0,6 l/m 2,1 km/h (1 Bft) O-NO - #1:36 h #0,457 mm 0,6 UV-I 79 W/m 9,8 C 10,3 C 3,9 km/h (1 Bft) 98,16 %